<?xml version="1.0" encoding="UTF-8" standalone="no" ?>
<gpx xmlns="http://www.topografix.com/GPX/1/1" xmlns:xsi="http://www.w3.org/2001/XMLSchema-instance" xsi:schemaLocation="http://www.topografix.com/GPX/1/1 http://www.topografix.com/GPX/1/1/gpx.xsd" version="1.1" creator="VisuGPX - https://www.visugpx.com">
  <metadata>
    <name>COL DU MARCHAIRUZ - MONT TENDRE (SUISSE)</name>
    <desc><![CDATA[Randonnée avec variante de retour depuis le mont Tendre]]></desc>
  </metadata>
  <trk>
    <name><![CDATA[MONT TENDRE VARIANTE]]></name>
    <trkseg>
      <trkpt lat="46.55243" lon="6.25032">
        <ele>1456.53</ele>
        <time>2013-07-14T08:12:03Z</time>
      </trkpt>
      <trkpt lat="46.55244" lon="6.25031">
        <ele>1455.57</ele>
        <time>2013-07-14T08:12:30Z</time>
      </trkpt>
      <trkpt lat="46.5524" lon="6.25031">
        <ele>1456.05</ele>
        <time>2013-07-14T08:12:53Z</time>
      </trkpt>
      <trkpt lat="46.55242" lon="6.25032">
        <ele>1456.05</ele>
        <time>2013-07-14T08:13:04Z</time>
      </trkpt>
      <trkpt lat="46.55241" lon="6.25033">
        <ele>1456.05</ele>
        <time>2013-07-14T08:13:08Z</time>
      </trkpt>
      <trkpt lat="46.55244" lon="6.25033">
        <ele>1456.53</ele>
        <time>2013-07-14T08:13:19Z</time>
      </trkpt>
      <trkpt lat="46.55244" lon="6.25034">
        <ele>1456.05</ele>
        <time>2013-07-14T08:13:35Z</time>
      </trkpt>
      <trkpt lat="46.55244" lon="6.25035">
        <ele>1456.53</ele>
        <time>2013-07-14T08:13:50Z</time>
      </trkpt>
      <trkpt lat="46.55248" lon="6.25037">
        <ele>1458.94</ele>
        <time>2013-07-14T08:13:56Z</time>
      </trkpt>
      <trkpt lat="46.55248" lon="6.25037">
        <ele>1456.53</ele>
        <time>2013-07-14T08:13:58Z</time>
      </trkpt>
      <trkpt lat="46.55248" lon="6.25037">
        <ele>1456.53</ele>
        <time>2013-07-14T08:13:59Z</time>
      </trkpt>
      <trkpt lat="46.55252" lon="6.25042">
        <ele>1456.05</ele>
        <time>2013-07-14T08:14:08Z</time>
      </trkpt>
      <trkpt lat="46.55254" lon="6.25043">
        <ele>1456.05</ele>
        <time>2013-07-14T08:14:10Z</time>
      </trkpt>
      <trkpt lat="46.55256" lon="6.25043">
        <ele>1456.53</ele>
        <time>2013-07-14T08:14:12Z</time>
      </trkpt>
      <trkpt lat="46.55267" lon="6.25051">
        <ele>1456.53</ele>
        <time>2013-07-14T08:14:24Z</time>
      </trkpt>
      <trkpt lat="46.55273" lon="6.25059">
        <ele>1457.02</ele>
        <time>2013-07-14T08:14:36Z</time>
      </trkpt>
      <trkpt lat="46.55276" lon="6.25062">
        <ele>1456.53</ele>
        <time>2013-07-14T08:14:54Z</time>
      </trkpt>
      <trkpt lat="46.5528" lon="6.25068">
        <ele>1457.02</ele>
        <time>2013-07-14T08:15:01Z</time>
      </trkpt>
      <trkpt lat="46.55282" lon="6.2507">
        <ele>1457.5</ele>
        <time>2013-07-14T08:15:03Z</time>
      </trkpt>
      <trkpt lat="46.55288" lon="6.25076">
        <ele>1457.5</ele>
        <time>2013-07-14T08:15:10Z</time>
      </trkpt>
      <trkpt lat="46.55294" lon="6.25087">
        <ele>1457.98</ele>
        <time>2013-07-14T08:15:18Z</time>
      </trkpt>
      <trkpt lat="46.55297" lon="6.25092">
        <ele>1458.46</ele>
        <time>2013-07-14T08:15:21Z</time>
      </trkpt>
      <trkpt lat="46.553" lon="6.25096">
        <ele>1458.46</ele>
        <time>2013-07-14T08:15:24Z</time>
      </trkpt>
      <trkpt lat="46.55311" lon="6.25113">
        <ele>1459.42</ele>
        <time>2013-07-14T08:15:37Z</time>
      </trkpt>
      <trkpt lat="46.5532" lon="6.25124">
        <ele>1459.9</ele>
        <time>2013-07-14T08:15:50Z</time>
      </trkpt>
      <trkpt lat="46.55322" lon="6.25125">
        <ele>1459.9</ele>
        <time>2013-07-14T08:15:52Z</time>
      </trkpt>
      <trkpt lat="46.5533" lon="6.25137">
        <ele>1461.34</ele>
        <time>2013-07-14T08:16:04Z</time>
      </trkpt>
      <trkpt lat="46.55334" lon="6.25159">
        <ele>1462.3</ele>
        <time>2013-07-14T08:16:19Z</time>
      </trkpt>
      <trkpt lat="46.5534" lon="6.25169">
        <ele>1463.74</ele>
        <time>2013-07-14T08:16:32Z</time>
      </trkpt>
      <trkpt lat="46.55351" lon="6.2518">
        <ele>1464.71</ele>
        <time>2013-07-14T08:16:47Z</time>
      </trkpt>
      <trkpt lat="46.55355" lon="6.25183">
        <ele>1464.71</ele>
        <time>2013-07-14T08:16:50Z</time>
      </trkpt>
      <trkpt lat="46.55367" lon="6.25192">
        <ele>1464.23</ele>
        <time>2013-07-14T08:17:00Z</time>
      </trkpt>
      <trkpt lat="46.5537" lon="6.25196">
        <ele>1464.23</ele>
        <time>2013-07-14T08:17:04Z</time>
      </trkpt>
      <trkpt lat="46.55374" lon="6.25201">
        <ele>1463.74</ele>
        <time>2013-07-14T08:17:08Z</time>
      </trkpt>
      <trkpt lat="46.55379" lon="6.25205">
        <ele>1463.74</ele>
        <time>2013-07-14T08:17:12Z</time>
      </trkpt>
      <trkpt lat="46.55385" lon="6.25211">
        <ele>1463.74</ele>
        <time>2013-07-14T08:17:20Z</time>
      </trkpt>
      <trkpt lat="46.55397" lon="6.25223">
        <ele>1461.82</ele>
        <time>2013-07-14T08:17:34Z</time>
      </trkpt>
      <trkpt lat="46.55398" lon="6.25225">
        <ele>1461.82</ele>
        <time>2013-07-14T08:17:36Z</time>
      </trkpt>
      <trkpt lat="46.55406" lon="6.25236">
        <ele>1460.38</ele>
        <time>2013-07-14T08:17:50Z</time>
      </trkpt>
      <trkpt lat="46.55413" lon="6.25246">
        <ele>1458.46</ele>
        <time>2013-07-14T08:18:01Z</time>
      </trkpt>
      <trkpt lat="46.55414" lon="6.25248">
        <ele>1458.46</ele>
        <time>2013-07-14T08:18:03Z</time>
      </trkpt>
      <trkpt lat="46.55422" lon="6.2526">
        <ele>1457.5</ele>
        <time>2013-07-14T08:18:12Z</time>
      </trkpt>
      <trkpt lat="46.55427" lon="6.25267">
        <ele>1456.53</ele>
        <time>2013-07-14T08:18:20Z</time>
      </trkpt>
      <trkpt lat="46.55436" lon="6.25279">
        <ele>1455.09</ele>
        <time>2013-07-14T08:18:32Z</time>
      </trkpt>
      <trkpt lat="46.5544" lon="6.25283">
        <ele>1455.09</ele>
        <time>2013-07-14T08:18:37Z</time>
      </trkpt>
      <trkpt lat="46.55449" lon="6.25291">
        <ele>1455.09</ele>
        <time>2013-07-14T08:18:50Z</time>
      </trkpt>
      <trkpt lat="46.55454" lon="6.25295">
        <ele>1454.61</ele>
        <time>2013-07-14T08:18:54Z</time>
      </trkpt>
      <trkpt lat="46.55466" lon="6.25306">
        <ele>1454.61</ele>
        <time>2013-07-14T08:19:05Z</time>
      </trkpt>
      <trkpt lat="46.5547" lon="6.25312">
        <ele>1455.09</ele>
        <time>2013-07-14T08:19:11Z</time>
      </trkpt>
      <trkpt lat="46.55475" lon="6.25316">
        <ele>1455.09</ele>
        <time>2013-07-14T08:19:16Z</time>
      </trkpt>
      <trkpt lat="46.55483" lon="6.25327">
        <ele>1455.09</ele>
        <time>2013-07-14T08:19:25Z</time>
      </trkpt>
      <trkpt lat="46.55493" lon="6.25344">
        <ele>1456.53</ele>
        <time>2013-07-14T08:19:39Z</time>
      </trkpt>
      <trkpt lat="46.555" lon="6.25355">
        <ele>1457.02</ele>
        <time>2013-07-14T08:19:51Z</time>
      </trkpt>
      <trkpt lat="46.55504" lon="6.2536">
        <ele>1457.02</ele>
        <time>2013-07-14T08:19:55Z</time>
      </trkpt>
      <trkpt lat="46.55511" lon="6.25374">
        <ele>1458.46</ele>
        <time>2013-07-14T08:20:08Z</time>
      </trkpt>
      <trkpt lat="46.55516" lon="6.2539">
        <ele>1459.42</ele>
        <time>2013-07-14T08:20:21Z</time>
      </trkpt>
      <trkpt lat="46.5552" lon="6.25393">
        <ele>1460.86</ele>
        <time>2013-07-14T08:20:39Z</time>
      </trkpt>
      <trkpt lat="46.55529" lon="6.25403">
        <ele>1462.3</ele>
        <time>2013-07-14T08:20:52Z</time>
      </trkpt>
      <trkpt lat="46.55537" lon="6.25413">
        <ele>1462.78</ele>
        <time>2013-07-14T08:21:03Z</time>
      </trkpt>
      <trkpt lat="46.55545" lon="6.25425">
        <ele>1463.26</ele>
        <time>2013-07-14T08:21:16Z</time>
      </trkpt>
      <trkpt lat="46.55548" lon="6.25427">
        <ele>1463.26</ele>
        <time>2013-07-14T08:21:19Z</time>
      </trkpt>
      <trkpt lat="46.55555" lon="6.25436">
        <ele>1464.71</ele>
        <time>2013-07-14T08:21:31Z</time>
      </trkpt>
      <trkpt lat="46.55565" lon="6.25447">
        <ele>1465.67</ele>
        <time>2013-07-14T08:21:45Z</time>
      </trkpt>
      <trkpt lat="46.55575" lon="6.25456">
        <ele>1466.63</ele>
        <time>2013-07-14T08:21:58Z</time>
      </trkpt>
      <trkpt lat="46.55579" lon="6.25463">
        <ele>1467.11</ele>
        <time>2013-07-14T08:22:04Z</time>
      </trkpt>
      <trkpt lat="46.55589" lon="6.25475">
        <ele>1468.55</ele>
        <time>2013-07-14T08:22:17Z</time>
      </trkpt>
      <trkpt lat="46.55597" lon="6.25484">
        <ele>1468.55</ele>
        <time>2013-07-14T08:22:27Z</time>
      </trkpt>
      <trkpt lat="46.55601" lon="6.25492">
        <ele>1469.03</ele>
        <time>2013-07-14T08:22:38Z</time>
      </trkpt>
      <trkpt lat="46.55608" lon="6.255">
        <ele>1469.03</ele>
        <time>2013-07-14T08:22:51Z</time>
      </trkpt>
      <trkpt lat="46.55619" lon="6.25512">
        <ele>1469.51</ele>
        <time>2013-07-14T08:23:03Z</time>
      </trkpt>
      <trkpt lat="46.55634" lon="6.25522">
        <ele>1469.03</ele>
        <time>2013-07-14T08:23:18Z</time>
      </trkpt>
      <trkpt lat="46.5564" lon="6.25534">
        <ele>1468.55</ele>
        <time>2013-07-14T08:23:33Z</time>
      </trkpt>
      <trkpt lat="46.55648" lon="6.25544">
        <ele>1469.03</ele>
        <time>2013-07-14T08:23:45Z</time>
      </trkpt>
      <trkpt lat="46.55656" lon="6.25562">
        <ele>1468.55</ele>
        <time>2013-07-14T08:24:01Z</time>
      </trkpt>
      <trkpt lat="46.55656" lon="6.25564">
        <ele>1468.07</ele>
        <time>2013-07-14T08:24:02Z</time>
      </trkpt>
      <trkpt lat="46.55666" lon="6.25577">
        <ele>1468.55</ele>
        <time>2013-07-14T08:24:17Z</time>
      </trkpt>
      <trkpt lat="46.55679" lon="6.25587">
        <ele>1468.55</ele>
        <time>2013-07-14T08:24:27Z</time>
      </trkpt>
      <trkpt lat="46.5569" lon="6.25599">
        <ele>1469.51</ele>
        <time>2013-07-14T08:24:40Z</time>
      </trkpt>
      <trkpt lat="46.557" lon="6.25607">
        <ele>1469.99</ele>
        <time>2013-07-14T08:24:54Z</time>
      </trkpt>
      <trkpt lat="46.55705" lon="6.25613">
        <ele>1470.95</ele>
        <time>2013-07-14T08:25:06Z</time>
      </trkpt>
      <trkpt lat="46.55711" lon="6.25631">
        <ele>1472.88</ele>
        <time>2013-07-14T08:25:24Z</time>
      </trkpt>
      <trkpt lat="46.55718" lon="6.25646">
        <ele>1474.8</ele>
        <time>2013-07-14T08:25:37Z</time>
      </trkpt>
      <trkpt lat="46.55724" lon="6.25658">
        <ele>1476.24</ele>
        <time>2013-07-14T08:25:49Z</time>
      </trkpt>
      <trkpt lat="46.55728" lon="6.25661">
        <ele>1477.68</ele>
        <time>2013-07-14T08:25:53Z</time>
      </trkpt>
      <trkpt lat="46.5573" lon="6.25663">
        <ele>1477.2</ele>
        <time>2013-07-14T08:25:55Z</time>
      </trkpt>
      <trkpt lat="46.55739" lon="6.25672">
        <ele>1479.13</ele>
        <time>2013-07-14T08:26:09Z</time>
      </trkpt>
      <trkpt lat="46.55743" lon="6.25681">
        <ele>1481.05</ele>
        <time>2013-07-14T08:26:21Z</time>
      </trkpt>
      <trkpt lat="46.5575" lon="6.25691">
        <ele>1482.49</ele>
        <time>2013-07-14T08:26:36Z</time>
      </trkpt>
      <trkpt lat="46.55753" lon="6.25692">
        <ele>1482.97</ele>
        <time>2013-07-14T08:26:40Z</time>
      </trkpt>
      <trkpt lat="46.55761" lon="6.25704">
        <ele>1484.41</ele>
        <time>2013-07-14T08:26:52Z</time>
      </trkpt>
      <trkpt lat="46.55762" lon="6.25707">
        <ele>1484.89</ele>
        <time>2013-07-14T08:26:56Z</time>
      </trkpt>
      <trkpt lat="46.55766" lon="6.25709">
        <ele>1485.37</ele>
        <time>2013-07-14T08:26:59Z</time>
      </trkpt>
      <trkpt lat="46.55773" lon="6.25715">
        <ele>1485.85</ele>
        <time>2013-07-14T08:27:10Z</time>
      </trkpt>
      <trkpt lat="46.55784" lon="6.25724">
        <ele>1486.34</ele>
        <time>2013-07-14T08:27:24Z</time>
      </trkpt>
      <trkpt lat="46.55793" lon="6.25732">
        <ele>1485.85</ele>
        <time>2013-07-14T08:27:32Z</time>
      </trkpt>
      <trkpt lat="46.55802" lon="6.25744">
        <ele>1484.89</ele>
        <time>2013-07-14T08:27:46Z</time>
      </trkpt>
      <trkpt lat="46.55808" lon="6.2575">
        <ele>1484.89</ele>
        <time>2013-07-14T08:27:52Z</time>
      </trkpt>
      <trkpt lat="46.55811" lon="6.25753">
        <ele>1484.89</ele>
        <time>2013-07-14T08:27:56Z</time>
      </trkpt>
      <trkpt lat="46.55816" lon="6.25767">
        <ele>1483.45</ele>
        <time>2013-07-14T08:28:09Z</time>
      </trkpt>
      <trkpt lat="46.55824" lon="6.25778">
        <ele>1482.49</ele>
        <time>2013-07-14T08:28:20Z</time>
      </trkpt>
      <trkpt lat="46.55828" lon="6.25783">
        <ele>1481.53</ele>
        <time>2013-07-14T08:28:26Z</time>
      </trkpt>
      <trkpt lat="46.55836" lon="6.25791">
        <ele>1480.57</ele>
        <time>2013-07-14T08:28:39Z</time>
      </trkpt>
      <trkpt lat="46.55837" lon="6.25791">
        <ele>1480.09</ele>
        <time>2013-07-14T08:28:40Z</time>
      </trkpt>
      <trkpt lat="46.55843" lon="6.25797">
        <ele>1479.61</ele>
        <time>2013-07-14T08:28:47Z</time>
      </trkpt>
      <trkpt lat="46.55851" lon="6.25807">
        <ele>1478.65</ele>
        <time>2013-07-14T08:29:01Z</time>
      </trkpt>
      <trkpt lat="46.55853" lon="6.25809">
        <ele>1478.16</ele>
        <time>2013-07-14T08:29:03Z</time>
      </trkpt>
      <trkpt lat="46.55863" lon="6.25821">
        <ele>1475.76</ele>
        <time>2013-07-14T08:29:18Z</time>
      </trkpt>
      <trkpt lat="46.55868" lon="6.25825">
        <ele>1474.8</ele>
        <time>2013-07-14T08:29:24Z</time>
      </trkpt>
      <trkpt lat="46.55877" lon="6.25832">
        <ele>1472.4</ele>
        <time>2013-07-14T08:29:38Z</time>
      </trkpt>
      <trkpt lat="46.55885" lon="6.25839">
        <ele>1469.99</ele>
        <time>2013-07-14T08:29:54Z</time>
      </trkpt>
      <trkpt lat="46.55895" lon="6.25847">
        <ele>1467.59</ele>
        <time>2013-07-14T08:30:08Z</time>
      </trkpt>
      <trkpt lat="46.55906" lon="6.25857">
        <ele>1466.63</ele>
        <time>2013-07-14T08:30:19Z</time>
      </trkpt>
      <trkpt lat="46.55908" lon="6.25863">
        <ele>1465.19</ele>
        <time>2013-07-14T08:30:29Z</time>
      </trkpt>
      <trkpt lat="46.5592" lon="6.25875">
        <ele>1463.26</ele>
        <time>2013-07-14T08:30:43Z</time>
      </trkpt>
      <trkpt lat="46.55932" lon="6.25887">
        <ele>1462.3</ele>
        <time>2013-07-14T08:30:56Z</time>
      </trkpt>
      <trkpt lat="46.55939" lon="6.2589">
        <ele>1462.3</ele>
        <time>2013-07-14T08:31:01Z</time>
      </trkpt>
      <trkpt lat="46.55948" lon="6.25907">
        <ele>1461.82</ele>
        <time>2013-07-14T08:31:14Z</time>
      </trkpt>
      <trkpt lat="46.55947" lon="6.25917">
        <ele>1463.26</ele>
        <time>2013-07-14T08:31:27Z</time>
      </trkpt>
      <trkpt lat="46.55946" lon="6.25919">
        <ele>1462.78</ele>
        <time>2013-07-14T08:31:29Z</time>
      </trkpt>
      <trkpt lat="46.55936" lon="6.25932">
        <ele>1461.34</ele>
        <time>2013-07-14T08:31:41Z</time>
      </trkpt>
      <trkpt lat="46.55932" lon="6.25938">
        <ele>1459.9</ele>
        <time>2013-07-14T08:31:51Z</time>
      </trkpt>
      <trkpt lat="46.5593" lon="6.25955">
        <ele>1459.42</ele>
        <time>2013-07-14T08:32:00Z</time>
      </trkpt>
      <trkpt lat="46.55928" lon="6.25968">
        <ele>1460.38</ele>
        <time>2013-07-14T08:32:12Z</time>
      </trkpt>
      <trkpt lat="46.55933" lon="6.2598">
        <ele>1460.86</ele>
        <time>2013-07-14T08:32:21Z</time>
      </trkpt>
      <trkpt lat="46.5594" lon="6.25995">
        <ele>1461.82</ele>
        <time>2013-07-14T08:32:31Z</time>
      </trkpt>
      <trkpt lat="46.55942" lon="6.25998">
        <ele>1461.34</ele>
        <time>2013-07-14T08:32:33Z</time>
      </trkpt>
      <trkpt lat="46.55947" lon="6.26006">
        <ele>1461.82</ele>
        <time>2013-07-14T08:32:39Z</time>
      </trkpt>
      <trkpt lat="46.5595" lon="6.26009">
        <ele>1462.3</ele>
        <time>2013-07-14T08:32:42Z</time>
      </trkpt>
      <trkpt lat="46.55961" lon="6.2602">
        <ele>1463.74</ele>
        <time>2013-07-14T08:32:55Z</time>
      </trkpt>
      <trkpt lat="46.55967" lon="6.26033">
        <ele>1464.23</ele>
        <time>2013-07-14T08:33:04Z</time>
      </trkpt>
      <trkpt lat="46.55974" lon="6.26049">
        <ele>1465.67</ele>
        <time>2013-07-14T08:33:18Z</time>
      </trkpt>
      <trkpt lat="46.55976" lon="6.26051">
        <ele>1466.15</ele>
        <time>2013-07-14T08:33:22Z</time>
      </trkpt>
      <trkpt lat="46.55986" lon="6.26061">
        <ele>1467.59</ele>
        <time>2013-07-14T08:33:34Z</time>
      </trkpt>
      <trkpt lat="46.55992" lon="6.26074">
        <ele>1469.03</ele>
        <time>2013-07-14T08:33:45Z</time>
      </trkpt>
      <trkpt lat="46.55995" lon="6.26081">
        <ele>1469.51</ele>
        <time>2013-07-14T08:33:50Z</time>
      </trkpt>
      <trkpt lat="46.56005" lon="6.26094">
        <ele>1470.95</ele>
        <time>2013-07-14T08:34:05Z</time>
      </trkpt>
      <trkpt lat="46.56015" lon="6.26109">
        <ele>1472.4</ele>
        <time>2013-07-14T08:34:19Z</time>
      </trkpt>
      <trkpt lat="46.56016" lon="6.26111">
        <ele>1472.4</ele>
        <time>2013-07-14T08:34:21Z</time>
      </trkpt>
      <trkpt lat="46.56017" lon="6.26113">
        <ele>1472.88</ele>
        <time>2013-07-14T08:34:24Z</time>
      </trkpt>
      <trkpt lat="46.56022" lon="6.26115">
        <ele>1473.84</ele>
        <time>2013-07-14T08:34:35Z</time>
      </trkpt>
      <trkpt lat="46.56023" lon="6.26114">
        <ele>1473.84</ele>
        <time>2013-07-14T08:35:01Z</time>
      </trkpt>
      <trkpt lat="46.56021" lon="6.26113">
        <ele>1474.32</ele>
        <time>2013-07-14T08:35:08Z</time>
      </trkpt>
      <trkpt lat="46.56023" lon="6.26118">
        <ele>1474.8</ele>
        <time>2013-07-14T08:35:13Z</time>
      </trkpt>
      <trkpt lat="46.56024" lon="6.26121">
        <ele>1474.8</ele>
        <time>2013-07-14T08:35:15Z</time>
      </trkpt>
      <trkpt lat="46.56027" lon="6.26127">
        <ele>1475.28</ele>
        <time>2013-07-14T08:35:20Z</time>
      </trkpt>
      <trkpt lat="46.5603" lon="6.26129">
        <ele>1475.76</ele>
        <time>2013-07-14T08:35:23Z</time>
      </trkpt>
      <trkpt lat="46.56032" lon="6.26132">
        <ele>1475.76</ele>
        <time>2013-07-14T08:35:25Z</time>
      </trkpt>
      <trkpt lat="46.56036" lon="6.26135">
        <ele>1476.24</ele>
        <time>2013-07-14T08:35:29Z</time>
      </trkpt>
      <trkpt lat="46.56038" lon="6.26139">
        <ele>1476.72</ele>
        <time>2013-07-14T08:35:33Z</time>
      </trkpt>
      <trkpt lat="46.56039" lon="6.26141">
        <ele>1476.72</ele>
        <time>2013-07-14T08:35:35Z</time>
      </trkpt>
      <trkpt lat="46.56042" lon="6.26146">
        <ele>1477.2</ele>
        <time>2013-07-14T08:35:41Z</time>
      </trkpt>
      <trkpt lat="46.56046" lon="6.26151">
        <ele>1478.16</ele>
        <time>2013-07-14T08:35:47Z</time>
      </trkpt>
      <trkpt lat="46.56054" lon="6.26164">
        <ele>1479.13</ele>
        <time>2013-07-14T08:36:00Z</time>
      </trkpt>
      <trkpt lat="46.56056" lon="6.26169">
        <ele>1479.61</ele>
        <time>2013-07-14T08:36:04Z</time>
      </trkpt>
      <trkpt lat="46.5606" lon="6.26173">
        <ele>1479.61</ele>
        <time>2013-07-14T08:36:10Z</time>
      </trkpt>
      <trkpt lat="46.56068" lon="6.26185">
        <ele>1481.05</ele>
        <time>2013-07-14T08:36:24Z</time>
      </trkpt>
      <trkpt lat="46.56071" lon="6.26192">
        <ele>1481.53</ele>
        <time>2013-07-14T08:36:30Z</time>
      </trkpt>
      <trkpt lat="46.56073" lon="6.26195">
        <ele>1481.53</ele>
        <time>2013-07-14T08:36:33Z</time>
      </trkpt>
      <trkpt lat="46.5608" lon="6.26203">
        <ele>1482.01</ele>
        <time>2013-07-14T08:36:43Z</time>
      </trkpt>
      <trkpt lat="46.56087" lon="6.26215">
        <ele>1482.01</ele>
        <time>2013-07-14T08:36:57Z</time>
      </trkpt>
      <trkpt lat="46.56094" lon="6.26226">
        <ele>1482.01</ele>
        <time>2013-07-14T08:37:06Z</time>
      </trkpt>
      <trkpt lat="46.56098" lon="6.26234">
        <ele>1482.01</ele>
        <time>2013-07-14T08:37:12Z</time>
      </trkpt>
      <trkpt lat="46.56105" lon="6.26241">
        <ele>1482.01</ele>
        <time>2013-07-14T08:37:20Z</time>
      </trkpt>
      <trkpt lat="46.56107" lon="6.26248">
        <ele>1482.01</ele>
        <time>2013-07-14T08:37:26Z</time>
      </trkpt>
      <trkpt lat="46.56108" lon="6.26254">
        <ele>1482.49</ele>
        <time>2013-07-14T08:37:30Z</time>
      </trkpt>
      <trkpt lat="46.56113" lon="6.2627">
        <ele>1481.53</ele>
        <time>2013-07-14T08:37:43Z</time>
      </trkpt>
      <trkpt lat="46.56112" lon="6.26272">
        <ele>1481.53</ele>
        <time>2013-07-14T08:37:44Z</time>
      </trkpt>
      <trkpt lat="46.5611" lon="6.26285">
        <ele>1475.28</ele>
        <time>2013-07-14T08:37:53Z</time>
      </trkpt>
      <trkpt lat="46.5611" lon="6.26286">
        <ele>1481.53</ele>
        <time>2013-07-14T08:37:54Z</time>
      </trkpt>
      <trkpt lat="46.5611" lon="6.26289">
        <ele>1480.57</ele>
        <time>2013-07-14T08:37:57Z</time>
      </trkpt>
      <trkpt lat="46.56115" lon="6.26304">
        <ele>1479.61</ele>
        <time>2013-07-14T08:38:09Z</time>
      </trkpt>
      <trkpt lat="46.56116" lon="6.26308">
        <ele>1480.09</ele>
        <time>2013-07-14T08:38:12Z</time>
      </trkpt>
      <trkpt lat="46.56121" lon="6.26313">
        <ele>1480.09</ele>
        <time>2013-07-14T08:38:18Z</time>
      </trkpt>
      <trkpt lat="46.56123" lon="6.26315">
        <ele>1480.09</ele>
        <time>2013-07-14T08:38:21Z</time>
      </trkpt>
      <trkpt lat="46.56126" lon="6.26317">
        <ele>1480.09</ele>
        <time>2013-07-14T08:38:26Z</time>
      </trkpt>
      <trkpt lat="46.5613" lon="6.26321">
        <ele>1479.61</ele>
        <time>2013-07-14T08:38:31Z</time>
      </trkpt>
      <trkpt lat="46.56137" lon="6.26329">
        <ele>1479.13</ele>
        <time>2013-07-14T08:38:41Z</time>
      </trkpt>
      <trkpt lat="46.5615" lon="6.26344">
        <ele>1479.13</ele>
        <time>2013-07-14T08:38:56Z</time>
      </trkpt>
      <trkpt lat="46.56159" lon="6.26351">
        <ele>1478.16</ele>
        <time>2013-07-14T08:39:05Z</time>
      </trkpt>
      <trkpt lat="46.56163" lon="6.26355">
        <ele>1478.16</ele>
        <time>2013-07-14T08:39:10Z</time>
      </trkpt>
      <trkpt lat="46.56166" lon="6.26358">
        <ele>1477.68</ele>
        <time>2013-07-14T08:39:14Z</time>
      </trkpt>
      <trkpt lat="46.56171" lon="6.26365">
        <ele>1477.68</ele>
        <time>2013-07-14T08:39:18Z</time>
      </trkpt>
      <trkpt lat="46.5618" lon="6.26378">
        <ele>1477.68</ele>
        <time>2013-07-14T08:39:30Z</time>
      </trkpt>
      <trkpt lat="46.56192" lon="6.26394">
        <ele>1477.68</ele>
        <time>2013-07-14T08:39:45Z</time>
      </trkpt>
      <trkpt lat="46.56204" lon="6.26408">
        <ele>1477.2</ele>
        <time>2013-07-14T08:39:57Z</time>
      </trkpt>
      <trkpt lat="46.56208" lon="6.26415">
        <ele>1476.72</ele>
        <time>2013-07-14T08:40:08Z</time>
      </trkpt>
      <trkpt lat="46.56208" lon="6.26417">
        <ele>1476.72</ele>
        <time>2013-07-14T08:40:19Z</time>
      </trkpt>
      <trkpt lat="46.56209" lon="6.26418">
        <ele>1476.72</ele>
        <time>2013-07-14T08:40:20Z</time>
      </trkpt>
      <trkpt lat="46.56217" lon="6.26427">
        <ele>1477.2</ele>
        <time>2013-07-14T08:40:32Z</time>
      </trkpt>
      <trkpt lat="46.56222" lon="6.26434">
        <ele>1477.2</ele>
        <time>2013-07-14T08:40:41Z</time>
      </trkpt>
      <trkpt lat="46.56223" lon="6.26437">
        <ele>1477.2</ele>
        <time>2013-07-14T08:40:44Z</time>
      </trkpt>
      <trkpt lat="46.56226" lon="6.26443">
        <ele>1477.2</ele>
        <time>2013-07-14T08:40:48Z</time>
      </trkpt>
      <trkpt lat="46.56226" lon="6.26447">
        <ele>1477.2</ele>
        <time>2013-07-14T08:40:50Z</time>
      </trkpt>
      <trkpt lat="46.56228" lon="6.26467">
        <ele>1476.72</ele>
        <time>2013-07-14T08:41:03Z</time>
      </trkpt>
      <trkpt lat="46.5623" lon="6.26477">
        <ele>1475.28</ele>
        <time>2013-07-14T08:41:10Z</time>
      </trkpt>
      <trkpt lat="46.56232" lon="6.26491">
        <ele>1474.32</ele>
        <time>2013-07-14T08:41:18Z</time>
      </trkpt>
      <trkpt lat="46.56235" lon="6.26514">
        <ele>1472.88</ele>
        <time>2013-07-14T08:41:31Z</time>
      </trkpt>
      <trkpt lat="46.56237" lon="6.26521">
        <ele>1472.88</ele>
        <time>2013-07-14T08:41:35Z</time>
      </trkpt>
      <trkpt lat="46.5624" lon="6.26527">
        <ele>1472.4</ele>
        <time>2013-07-14T08:41:39Z</time>
      </trkpt>
      <trkpt lat="46.56241" lon="6.26533">
        <ele>1472.4</ele>
        <time>2013-07-14T08:41:43Z</time>
      </trkpt>
      <trkpt lat="46.56256" lon="6.26543">
        <ele>1473.36</ele>
        <time>2013-07-14T08:41:58Z</time>
      </trkpt>
      <trkpt lat="46.56257" lon="6.26544">
        <ele>1473.84</ele>
        <time>2013-07-14T08:41:59Z</time>
      </trkpt>
      <trkpt lat="46.5626" lon="6.26545">
        <ele>1473.84</ele>
        <time>2013-07-14T08:42:02Z</time>
      </trkpt>
      <trkpt lat="46.56265" lon="6.26548">
        <ele>1474.32</ele>
        <time>2013-07-14T08:42:07Z</time>
      </trkpt>
      <trkpt lat="46.56276" lon="6.26556">
        <ele>1475.28</ele>
        <time>2013-07-14T08:42:17Z</time>
      </trkpt>
      <trkpt lat="46.56278" lon="6.26558">
        <ele>1475.28</ele>
        <time>2013-07-14T08:42:19Z</time>
      </trkpt>
      <trkpt lat="46.5629" lon="6.26567">
        <ele>1475.28</ele>
        <time>2013-07-14T08:42:33Z</time>
      </trkpt>
      <trkpt lat="46.56296" lon="6.26572">
        <ele>1475.76</ele>
        <time>2013-07-14T08:42:39Z</time>
      </trkpt>
      <trkpt lat="46.563" lon="6.26577">
        <ele>1476.24</ele>
        <time>2013-07-14T08:42:44Z</time>
      </trkpt>
      <trkpt lat="46.56306" lon="6.26589">
        <ele>1477.68</ele>
        <time>2013-07-14T08:42:54Z</time>
      </trkpt>
      <trkpt lat="46.56309" lon="6.26592">
        <ele>1477.68</ele>
        <time>2013-07-14T08:42:57Z</time>
      </trkpt>
      <trkpt lat="46.56311" lon="6.26596">
        <ele>1477.68</ele>
        <time>2013-07-14T08:43:00Z</time>
      </trkpt>
      <trkpt lat="46.56314" lon="6.266">
        <ele>1478.16</ele>
        <time>2013-07-14T08:43:03Z</time>
      </trkpt>
      <trkpt lat="46.56317" lon="6.26606">
        <ele>1478.16</ele>
        <time>2013-07-14T08:43:08Z</time>
      </trkpt>
      <trkpt lat="46.56321" lon="6.2661">
        <ele>1478.65</ele>
        <time>2013-07-14T08:43:12Z</time>
      </trkpt>
      <trkpt lat="46.56325" lon="6.26618">
        <ele>1479.13</ele>
        <time>2013-07-14T08:43:19Z</time>
      </trkpt>
      <trkpt lat="46.5633" lon="6.26625">
        <ele>1479.13</ele>
        <time>2013-07-14T08:43:25Z</time>
      </trkpt>
      <trkpt lat="46.56339" lon="6.26637">
        <ele>1479.61</ele>
        <time>2013-07-14T08:43:34Z</time>
      </trkpt>
      <trkpt lat="46.56349" lon="6.26651">
        <ele>1479.13</ele>
        <time>2013-07-14T08:43:46Z</time>
      </trkpt>
      <trkpt lat="46.56358" lon="6.26665">
        <ele>1478.65</ele>
        <time>2013-07-14T08:43:57Z</time>
      </trkpt>
      <trkpt lat="46.5636" lon="6.26669">
        <ele>1478.65</ele>
        <time>2013-07-14T08:44:00Z</time>
      </trkpt>
      <trkpt lat="46.56364" lon="6.26672">
        <ele>1478.65</ele>
        <time>2013-07-14T08:44:05Z</time>
      </trkpt>
      <trkpt lat="46.56368" lon="6.26676">
        <ele>1478.65</ele>
        <time>2013-07-14T08:44:09Z</time>
      </trkpt>
      <trkpt lat="46.56381" lon="6.26687">
        <ele>1477.2</ele>
        <time>2013-07-14T08:44:22Z</time>
      </trkpt>
      <trkpt lat="46.56384" lon="6.2669">
        <ele>1477.2</ele>
        <time>2013-07-14T08:44:25Z</time>
      </trkpt>
      <trkpt lat="46.56397" lon="6.26702">
        <ele>1476.24</ele>
        <time>2013-07-14T08:44:38Z</time>
      </trkpt>
      <trkpt lat="46.56401" lon="6.26707">
        <ele>1475.76</ele>
        <time>2013-07-14T08:44:42Z</time>
      </trkpt>
      <trkpt lat="46.56413" lon="6.26719">
        <ele>1475.28</ele>
        <time>2013-07-14T08:44:56Z</time>
      </trkpt>
      <trkpt lat="46.56421" lon="6.26731">
        <ele>1474.8</ele>
        <time>2013-07-14T08:45:06Z</time>
      </trkpt>
      <trkpt lat="46.56421" lon="6.26734">
        <ele>1474.8</ele>
        <time>2013-07-14T08:45:08Z</time>
      </trkpt>
      <trkpt lat="46.56422" lon="6.2674">
        <ele>1474.32</ele>
        <time>2013-07-14T08:45:12Z</time>
      </trkpt>
      <trkpt lat="46.56422" lon="6.26745">
        <ele>1474.32</ele>
        <time>2013-07-14T08:45:15Z</time>
      </trkpt>
      <trkpt lat="46.56423" lon="6.26756">
        <ele>1474.8</ele>
        <time>2013-07-14T08:45:21Z</time>
      </trkpt>
      <trkpt lat="46.56424" lon="6.26759">
        <ele>1474.32</ele>
        <time>2013-07-14T08:45:23Z</time>
      </trkpt>
      <trkpt lat="46.56425" lon="6.26763">
        <ele>1474.32</ele>
        <time>2013-07-14T08:45:26Z</time>
      </trkpt>
      <trkpt lat="46.56427" lon="6.26776">
        <ele>1474.32</ele>
        <time>2013-07-14T08:45:34Z</time>
      </trkpt>
      <trkpt lat="46.56431" lon="6.2679">
        <ele>1475.28</ele>
        <time>2013-07-14T08:45:48Z</time>
      </trkpt>
      <trkpt lat="46.56436" lon="6.26795">
        <ele>1475.28</ele>
        <time>2013-07-14T08:45:58Z</time>
      </trkpt>
      <trkpt lat="46.56436" lon="6.26796">
        <ele>1475.76</ele>
        <time>2013-07-14T08:45:59Z</time>
      </trkpt>
      <trkpt lat="46.56437" lon="6.26802">
        <ele>1475.76</ele>
        <time>2013-07-14T08:46:03Z</time>
      </trkpt>
      <trkpt lat="46.56438" lon="6.26814">
        <ele>1477.2</ele>
        <time>2013-07-14T08:46:14Z</time>
      </trkpt>
      <trkpt lat="46.56434" lon="6.26828">
        <ele>1478.65</ele>
        <time>2013-07-14T08:46:25Z</time>
      </trkpt>
      <trkpt lat="46.56434" lon="6.2683">
        <ele>1479.61</ele>
        <time>2013-07-14T08:46:27Z</time>
      </trkpt>
      <trkpt lat="46.56433" lon="6.26836">
        <ele>1479.61</ele>
        <time>2013-07-14T08:46:31Z</time>
      </trkpt>
      <trkpt lat="46.5643" lon="6.26843">
        <ele>1479.61</ele>
        <time>2013-07-14T08:46:35Z</time>
      </trkpt>
      <trkpt lat="46.56425" lon="6.2686">
        <ele>1480.57</ele>
        <time>2013-07-14T08:46:49Z</time>
      </trkpt>
      <trkpt lat="46.56425" lon="6.26867">
        <ele>1481.53</ele>
        <time>2013-07-14T08:46:54Z</time>
      </trkpt>
      <trkpt lat="46.56427" lon="6.26876">
        <ele>1482.01</ele>
        <time>2013-07-14T08:47:01Z</time>
      </trkpt>
      <trkpt lat="46.56435" lon="6.26891">
        <ele>1482.97</ele>
        <time>2013-07-14T08:47:13Z</time>
      </trkpt>
      <trkpt lat="46.56438" lon="6.26893">
        <ele>1483.45</ele>
        <time>2013-07-14T08:47:17Z</time>
      </trkpt>
      <trkpt lat="46.5644" lon="6.26896">
        <ele>1482.97</ele>
        <time>2013-07-14T08:47:19Z</time>
      </trkpt>
      <trkpt lat="46.56448" lon="6.26909">
        <ele>1484.41</ele>
        <time>2013-07-14T08:47:31Z</time>
      </trkpt>
      <trkpt lat="46.56451" lon="6.26913">
        <ele>1484.41</ele>
        <time>2013-07-14T08:47:36Z</time>
      </trkpt>
      <trkpt lat="46.56454" lon="6.26916">
        <ele>1484.89</ele>
        <time>2013-07-14T08:47:38Z</time>
      </trkpt>
      <trkpt lat="46.56458" lon="6.26923">
        <ele>1485.37</ele>
        <time>2013-07-14T08:47:45Z</time>
      </trkpt>
      <trkpt lat="46.5646" lon="6.26925">
        <ele>1485.85</ele>
        <time>2013-07-14T08:47:48Z</time>
      </trkpt>
      <trkpt lat="46.56464" lon="6.26931">
        <ele>1486.34</ele>
        <time>2013-07-14T08:47:54Z</time>
      </trkpt>
      <trkpt lat="46.56466" lon="6.26936">
        <ele>1486.82</ele>
        <time>2013-07-14T08:47:58Z</time>
      </trkpt>
      <trkpt lat="46.56466" lon="6.2694">
        <ele>1487.3</ele>
        <time>2013-07-14T08:48:01Z</time>
      </trkpt>
      <trkpt lat="46.56471" lon="6.26954">
        <ele>1487.78</ele>
        <time>2013-07-14T08:48:12Z</time>
      </trkpt>
      <trkpt lat="46.56473" lon="6.26956">
        <ele>1486.82</ele>
        <time>2013-07-14T08:48:14Z</time>
      </trkpt>
      <trkpt lat="46.56476" lon="6.2696">
        <ele>1486.82</ele>
        <time>2013-07-14T08:48:18Z</time>
      </trkpt>
      <trkpt lat="46.56477" lon="6.26962">
        <ele>1487.3</ele>
        <time>2013-07-14T08:48:20Z</time>
      </trkpt>
      <trkpt lat="46.56482" lon="6.26969">
        <ele>1488.26</ele>
        <time>2013-07-14T08:48:33Z</time>
      </trkpt>
      <trkpt lat="46.56485" lon="6.26972">
        <ele>1489.22</ele>
        <time>2013-07-14T08:48:44Z</time>
      </trkpt>
      <trkpt lat="46.56487" lon="6.26974">
        <ele>1489.7</ele>
        <time>2013-07-14T08:48:47Z</time>
      </trkpt>
      <trkpt lat="46.56497" lon="6.26981">
        <ele>1490.66</ele>
        <time>2013-07-14T08:48:59Z</time>
      </trkpt>
      <trkpt lat="46.56507" lon="6.26993">
        <ele>1491.14</ele>
        <time>2013-07-14T08:49:10Z</time>
      </trkpt>
      <trkpt lat="46.5651" lon="6.26995">
        <ele>1491.14</ele>
        <time>2013-07-14T08:49:13Z</time>
      </trkpt>
      <trkpt lat="46.56514" lon="6.26997">
        <ele>1490.66</ele>
        <time>2013-07-14T08:49:16Z</time>
      </trkpt>
      <trkpt lat="46.56516" lon="6.26999">
        <ele>1490.66</ele>
        <time>2013-07-14T08:49:19Z</time>
      </trkpt>
      <trkpt lat="46.56521" lon="6.27004">
        <ele>1492.1</ele>
        <time>2013-07-14T08:49:25Z</time>
      </trkpt>
      <trkpt lat="46.56523" lon="6.27007">
        <ele>1492.1</ele>
        <time>2013-07-14T08:49:28Z</time>
      </trkpt>
      <trkpt lat="46.56526" lon="6.2701">
        <ele>1492.1</ele>
        <time>2013-07-14T08:49:32Z</time>
      </trkpt>
      <trkpt lat="46.56529" lon="6.27014">
        <ele>1492.58</ele>
        <time>2013-07-14T08:49:36Z</time>
      </trkpt>
      <trkpt lat="46.56532" lon="6.27016">
        <ele>1492.1</ele>
        <time>2013-07-14T08:49:39Z</time>
      </trkpt>
      <trkpt lat="46.56535" lon="6.27019">
        <ele>1493.06</ele>
        <time>2013-07-14T08:49:43Z</time>
      </trkpt>
      <trkpt lat="46.56539" lon="6.27022">
        <ele>1493.06</ele>
        <time>2013-07-14T08:49:47Z</time>
      </trkpt>
      <trkpt lat="46.56547" lon="6.27029">
        <ele>1493.55</ele>
        <time>2013-07-14T08:49:55Z</time>
      </trkpt>
      <trkpt lat="46.5655" lon="6.27031">
        <ele>1493.55</ele>
        <time>2013-07-14T08:49:59Z</time>
      </trkpt>
      <trkpt lat="46.56553" lon="6.27032">
        <ele>1494.03</ele>
        <time>2013-07-14T08:50:02Z</time>
      </trkpt>
      <trkpt lat="46.5656" lon="6.27043">
        <ele>1495.95</ele>
        <time>2013-07-14T08:50:12Z</time>
      </trkpt>
      <trkpt lat="46.56562" lon="6.27047">
        <ele>1496.91</ele>
        <time>2013-07-14T08:50:16Z</time>
      </trkpt>
      <trkpt lat="46.56564" lon="6.27049">
        <ele>1496.91</ele>
        <time>2013-07-14T08:50:19Z</time>
      </trkpt>
      <trkpt lat="46.56568" lon="6.27052">
        <ele>1497.39</ele>
        <time>2013-07-14T08:50:23Z</time>
      </trkpt>
      <trkpt lat="46.5658" lon="6.2706">
        <ele>1497.87</ele>
        <time>2013-07-14T08:50:36Z</time>
      </trkpt>
      <trkpt lat="46.56584" lon="6.27063">
        <ele>1498.83</ele>
        <time>2013-07-14T08:50:41Z</time>
      </trkpt>
      <trkpt lat="46.56588" lon="6.27065">
        <ele>1499.31</ele>
        <time>2013-07-14T08:50:45Z</time>
      </trkpt>
      <trkpt lat="46.56594" lon="6.27072">
        <ele>1500.76</ele>
        <time>2013-07-14T08:50:54Z</time>
      </trkpt>
      <trkpt lat="46.56596" lon="6.27075">
        <ele>1501.24</ele>
        <time>2013-07-14T08:50:57Z</time>
      </trkpt>
      <trkpt lat="46.56597" lon="6.27078">
        <ele>1501.72</ele>
        <time>2013-07-14T08:51:00Z</time>
      </trkpt>
      <trkpt lat="46.56601" lon="6.27081">
        <ele>1502.2</ele>
        <time>2013-07-14T08:51:05Z</time>
      </trkpt>
      <trkpt lat="46.56609" lon="6.27091">
        <ele>1503.64</ele>
        <time>2013-07-14T08:51:17Z</time>
      </trkpt>
      <trkpt lat="46.5661" lon="6.27092">
        <ele>1503.64</ele>
        <time>2013-07-14T08:51:18Z</time>
      </trkpt>
      <trkpt lat="46.56611" lon="6.27095">
        <ele>1504.6</ele>
        <time>2013-07-14T08:51:21Z</time>
      </trkpt>
      <trkpt lat="46.56619" lon="6.27104">
        <ele>1506.04</ele>
        <time>2013-07-14T08:51:31Z</time>
      </trkpt>
      <trkpt lat="46.56629" lon="6.27114">
        <ele>1507.48</ele>
        <time>2013-07-14T08:51:44Z</time>
      </trkpt>
      <trkpt lat="46.5663" lon="6.27115">
        <ele>1507</ele>
        <time>2013-07-14T08:51:45Z</time>
      </trkpt>
      <trkpt lat="46.56639" lon="6.27122">
        <ele>1508.93</ele>
        <time>2013-07-14T08:51:57Z</time>
      </trkpt>
      <trkpt lat="46.56645" lon="6.2713">
        <ele>1510.37</ele>
        <time>2013-07-14T08:52:09Z</time>
      </trkpt>
      <trkpt lat="46.56647" lon="6.27132">
        <ele>1510.85</ele>
        <time>2013-07-14T08:52:11Z</time>
      </trkpt>
      <trkpt lat="46.56657" lon="6.2714">
        <ele>1512.29</ele>
        <time>2013-07-14T08:52:21Z</time>
      </trkpt>
      <trkpt lat="46.56663" lon="6.27146">
        <ele>1514.21</ele>
        <time>2013-07-14T08:52:28Z</time>
      </trkpt>
      <trkpt lat="46.56665" lon="6.27148">
        <ele>1514.69</ele>
        <time>2013-07-14T08:52:30Z</time>
      </trkpt>
      <trkpt lat="46.56667" lon="6.2715">
        <ele>1515.18</ele>
        <time>2013-07-14T08:52:34Z</time>
      </trkpt>
      <trkpt lat="46.56674" lon="6.27156">
        <ele>1516.14</ele>
        <time>2013-07-14T08:52:41Z</time>
      </trkpt>
      <trkpt lat="46.56676" lon="6.2716">
        <ele>1516.62</ele>
        <time>2013-07-14T08:52:45Z</time>
      </trkpt>
      <trkpt lat="46.56677" lon="6.27163">
        <ele>1517.1</ele>
        <time>2013-07-14T08:52:48Z</time>
      </trkpt>
      <trkpt lat="46.56682" lon="6.27172">
        <ele>1518.54</ele>
        <time>2013-07-14T08:52:55Z</time>
      </trkpt>
      <trkpt lat="46.56687" lon="6.27172">
        <ele>1519.5</ele>
        <time>2013-07-14T08:53:09Z</time>
      </trkpt>
      <trkpt lat="46.56689" lon="6.27173">
        <ele>1519.5</ele>
        <time>2013-07-14T08:53:21Z</time>
      </trkpt>
      <trkpt lat="46.56688" lon="6.27171">
        <ele>1519.5</ele>
        <time>2013-07-14T08:53:39Z</time>
      </trkpt>
      <trkpt lat="46.56688" lon="6.27172">
        <ele>1519.5</ele>
        <time>2013-07-14T08:53:58Z</time>
      </trkpt>
      <trkpt lat="46.56688" lon="6.27172">
        <ele>1519.5</ele>
        <time>2013-07-14T08:54:10Z</time>
      </trkpt>
      <trkpt lat="46.56688" lon="6.27172">
        <ele>1519.5</ele>
        <time>2013-07-14T08:54:35Z</time>
      </trkpt>
      <trkpt lat="46.56688" lon="6.27173">
        <ele>1518.54</ele>
        <time>2013-07-14T08:54:50Z</time>
      </trkpt>
      <trkpt lat="46.56689" lon="6.27174">
        <ele>1519.5</ele>
        <time>2013-07-14T08:55:14Z</time>
      </trkpt>
      <trkpt lat="46.5669" lon="6.27173">
        <ele>1519.5</ele>
        <time>2013-07-14T08:55:17Z</time>
      </trkpt>
      <trkpt lat="46.567" lon="6.27178">
        <ele>1520.94</ele>
        <time>2013-07-14T08:55:28Z</time>
      </trkpt>
      <trkpt lat="46.5671" lon="6.27184">
        <ele>1521.9</ele>
        <time>2013-07-14T08:55:42Z</time>
      </trkpt>
      <trkpt lat="46.5671" lon="6.27184">
        <ele>1522.39</ele>
        <time>2013-07-14T08:55:43Z</time>
      </trkpt>
      <trkpt lat="46.56713" lon="6.27187">
        <ele>1522.87</ele>
        <time>2013-07-14T08:55:47Z</time>
      </trkpt>
      <trkpt lat="46.56715" lon="6.27189">
        <ele>1521.9</ele>
        <time>2013-07-14T08:55:50Z</time>
      </trkpt>
      <trkpt lat="46.56719" lon="6.27193">
        <ele>1522.87</ele>
        <time>2013-07-14T08:55:56Z</time>
      </trkpt>
      <trkpt lat="46.56729" lon="6.27204">
        <ele>1524.31</ele>
        <time>2013-07-14T08:56:09Z</time>
      </trkpt>
      <trkpt lat="46.56732" lon="6.27206">
        <ele>1524.79</ele>
        <time>2013-07-14T08:56:13Z</time>
      </trkpt>
      <trkpt lat="46.56745" lon="6.27216">
        <ele>1525.75</ele>
        <time>2013-07-14T08:56:29Z</time>
      </trkpt>
      <trkpt lat="46.56756" lon="6.27224">
        <ele>1526.71</ele>
        <time>2013-07-14T08:56:42Z</time>
      </trkpt>
      <trkpt lat="46.5676" lon="6.27227">
        <ele>1527.67</ele>
        <time>2013-07-14T08:56:47Z</time>
      </trkpt>
      <trkpt lat="46.56768" lon="6.2723">
        <ele>1527.19</ele>
        <time>2013-07-14T08:56:55Z</time>
      </trkpt>
      <trkpt lat="46.56777" lon="6.27237">
        <ele>1527.67</ele>
        <time>2013-07-14T08:57:04Z</time>
      </trkpt>
      <trkpt lat="46.56784" lon="6.27245">
        <ele>1527.67</ele>
        <time>2013-07-14T08:57:15Z</time>
      </trkpt>
      <trkpt lat="46.56792" lon="6.27247">
        <ele>1528.15</ele>
        <time>2013-07-14T08:57:21Z</time>
      </trkpt>
      <trkpt lat="46.56794" lon="6.27249">
        <ele>1528.15</ele>
        <time>2013-07-14T08:57:23Z</time>
      </trkpt>
      <trkpt lat="46.56802" lon="6.27253">
        <ele>1528.15</ele>
        <time>2013-07-14T08:57:31Z</time>
      </trkpt>
      <trkpt lat="46.56807" lon="6.27255">
        <ele>1527.67</ele>
        <time>2013-07-14T08:57:36Z</time>
      </trkpt>
      <trkpt lat="46.5682" lon="6.27261">
        <ele>1527.67</ele>
        <time>2013-07-14T08:57:49Z</time>
      </trkpt>
      <trkpt lat="46.56825" lon="6.27265">
        <ele>1528.15</ele>
        <time>2013-07-14T08:57:55Z</time>
      </trkpt>
      <trkpt lat="46.56838" lon="6.27271">
        <ele>1528.15</ele>
        <time>2013-07-14T08:58:07Z</time>
      </trkpt>
      <trkpt lat="46.56849" lon="6.27275">
        <ele>1527.19</ele>
        <time>2013-07-14T08:58:19Z</time>
      </trkpt>
      <trkpt lat="46.56864" lon="6.27279">
        <ele>1525.27</ele>
        <time>2013-07-14T08:58:34Z</time>
      </trkpt>
      <trkpt lat="46.56876" lon="6.27284">
        <ele>1523.35</ele>
        <time>2013-07-14T08:58:45Z</time>
      </trkpt>
      <trkpt lat="46.56888" lon="6.27287">
        <ele>1523.83</ele>
        <time>2013-07-14T08:58:56Z</time>
      </trkpt>
      <trkpt lat="46.56895" lon="6.27291">
        <ele>1521.42</ele>
        <time>2013-07-14T08:59:07Z</time>
      </trkpt>
      <trkpt lat="46.56896" lon="6.27291">
        <ele>1520.94</ele>
        <time>2013-07-14T08:59:09Z</time>
      </trkpt>
      <trkpt lat="46.56906" lon="6.27294">
        <ele>1519.98</ele>
        <time>2013-07-14T08:59:17Z</time>
      </trkpt>
      <trkpt lat="46.56918" lon="6.27299">
        <ele>1516.62</ele>
        <time>2013-07-14T08:59:29Z</time>
      </trkpt>
      <trkpt lat="46.56932" lon="6.27302">
        <ele>1514.21</ele>
        <time>2013-07-14T08:59:42Z</time>
      </trkpt>
      <trkpt lat="46.56936" lon="6.27304">
        <ele>1513.73</ele>
        <time>2013-07-14T08:59:57Z</time>
      </trkpt>
      <trkpt lat="46.56937" lon="6.27304">
        <ele>1513.73</ele>
        <time>2013-07-14T09:00:00Z</time>
      </trkpt>
      <trkpt lat="46.56952" lon="6.27308">
        <ele>1511.33</ele>
        <time>2013-07-14T09:00:10Z</time>
      </trkpt>
      <trkpt lat="46.56963" lon="6.27314">
        <ele>1508.93</ele>
        <time>2013-07-14T09:00:21Z</time>
      </trkpt>
      <trkpt lat="46.56965" lon="6.27315">
        <ele>1508.93</ele>
        <time>2013-07-14T09:00:23Z</time>
      </trkpt>
      <trkpt lat="46.56968" lon="6.27319">
        <ele>1508.45</ele>
        <time>2013-07-14T09:00:27Z</time>
      </trkpt>
      <trkpt lat="46.56982" lon="6.27327">
        <ele>1507.48</ele>
        <time>2013-07-14T09:00:40Z</time>
      </trkpt>
      <trkpt lat="46.56987" lon="6.27331">
        <ele>1507</ele>
        <time>2013-07-14T09:00:46Z</time>
      </trkpt>
      <trkpt lat="46.56998" lon="6.27339">
        <ele>1507</ele>
        <time>2013-07-14T09:00:56Z</time>
      </trkpt>
      <trkpt lat="46.56998" lon="6.2734">
        <ele>1507</ele>
        <time>2013-07-14T09:00:57Z</time>
      </trkpt>
      <trkpt lat="46.57009" lon="6.27351">
        <ele>1509.89</ele>
        <time>2013-07-14T09:01:13Z</time>
      </trkpt>
      <trkpt lat="46.57015" lon="6.27358">
        <ele>1512.29</ele>
        <time>2013-07-14T09:01:18Z</time>
      </trkpt>
      <trkpt lat="46.57023" lon="6.27367">
        <ele>1514.21</ele>
        <time>2013-07-14T09:01:28Z</time>
      </trkpt>
      <trkpt lat="46.57028" lon="6.2737">
        <ele>1516.14</ele>
        <time>2013-07-14T09:01:40Z</time>
      </trkpt>
      <trkpt lat="46.5703" lon="6.27374">
        <ele>1516.62</ele>
        <time>2013-07-14T09:01:55Z</time>
      </trkpt>
      <trkpt lat="46.57035" lon="6.2738">
        <ele>1518.54</ele>
        <time>2013-07-14T09:02:05Z</time>
      </trkpt>
      <trkpt lat="46.57044" lon="6.27391">
        <ele>1520.46</ele>
        <time>2013-07-14T09:02:20Z</time>
      </trkpt>
      <trkpt lat="46.57049" lon="6.27395">
        <ele>1521.9</ele>
        <time>2013-07-14T09:02:26Z</time>
      </trkpt>
      <trkpt lat="46.57053" lon="6.27402">
        <ele>1522.87</ele>
        <time>2013-07-14T09:02:32Z</time>
      </trkpt>
      <trkpt lat="46.57056" lon="6.27404">
        <ele>1523.83</ele>
        <time>2013-07-14T09:02:36Z</time>
      </trkpt>
      <trkpt lat="46.57059" lon="6.27408">
        <ele>1525.27</ele>
        <time>2013-07-14T09:02:40Z</time>
      </trkpt>
      <trkpt lat="46.57064" lon="6.27413">
        <ele>1526.71</ele>
        <time>2013-07-14T09:02:47Z</time>
      </trkpt>
      <trkpt lat="46.57072" lon="6.27427">
        <ele>1529.11</ele>
        <time>2013-07-14T09:03:01Z</time>
      </trkpt>
      <trkpt lat="46.57074" lon="6.2743">
        <ele>1530.56</ele>
        <time>2013-07-14T09:03:05Z</time>
      </trkpt>
      <trkpt lat="46.57077" lon="6.27435">
        <ele>1531.04</ele>
        <time>2013-07-14T09:03:10Z</time>
      </trkpt>
      <trkpt lat="46.57079" lon="6.2744">
        <ele>1532.48</ele>
        <time>2013-07-14T09:03:15Z</time>
      </trkpt>
      <trkpt lat="46.57082" lon="6.27444">
        <ele>1532.96</ele>
        <time>2013-07-14T09:03:19Z</time>
      </trkpt>
      <trkpt lat="46.57084" lon="6.27446">
        <ele>1532.96</ele>
        <time>2013-07-14T09:03:22Z</time>
      </trkpt>
      <trkpt lat="46.57088" lon="6.27449">
        <ele>1535.36</ele>
        <time>2013-07-14T09:03:28Z</time>
      </trkpt>
      <trkpt lat="46.57094" lon="6.27462">
        <ele>1537.29</ele>
        <time>2013-07-14T09:03:40Z</time>
      </trkpt>
      <trkpt lat="46.57095" lon="6.27461">
        <ele>1538.25</ele>
        <time>2013-07-14T09:03:51Z</time>
      </trkpt>
      <trkpt lat="46.57096" lon="6.27462">
        <ele>1538.25</ele>
        <time>2013-07-14T09:04:10Z</time>
      </trkpt>
      <trkpt lat="46.57101" lon="6.27472">
        <ele>1539.69</ele>
        <time>2013-07-14T09:04:21Z</time>
      </trkpt>
      <trkpt lat="46.57105" lon="6.27478">
        <ele>1541.13</ele>
        <time>2013-07-14T09:04:28Z</time>
      </trkpt>
      <trkpt lat="46.57109" lon="6.27482">
        <ele>1543.05</ele>
        <time>2013-07-14T09:04:33Z</time>
      </trkpt>
      <trkpt lat="46.57119" lon="6.27498">
        <ele>1546.42</ele>
        <time>2013-07-14T09:04:46Z</time>
      </trkpt>
      <trkpt lat="46.5712" lon="6.275">
        <ele>1546.42</ele>
        <time>2013-07-14T09:04:48Z</time>
      </trkpt>
      <trkpt lat="46.57124" lon="6.27506">
        <ele>1547.86</ele>
        <time>2013-07-14T09:04:53Z</time>
      </trkpt>
      <trkpt lat="46.57126" lon="6.27508">
        <ele>1548.34</ele>
        <time>2013-07-14T09:04:55Z</time>
      </trkpt>
      <trkpt lat="46.57129" lon="6.27513">
        <ele>1548.82</ele>
        <time>2013-07-14T09:05:00Z</time>
      </trkpt>
      <trkpt lat="46.57134" lon="6.27519">
        <ele>1550.74</ele>
        <time>2013-07-14T09:05:06Z</time>
      </trkpt>
      <trkpt lat="46.57141" lon="6.2753">
        <ele>1553.63</ele>
        <time>2013-07-14T09:05:15Z</time>
      </trkpt>
      <trkpt lat="46.57146" lon="6.27533">
        <ele>1555.07</ele>
        <time>2013-07-14T09:05:20Z</time>
      </trkpt>
      <trkpt lat="46.57149" lon="6.27539">
        <ele>1555.55</ele>
        <time>2013-07-14T09:05:24Z</time>
      </trkpt>
      <trkpt lat="46.57157" lon="6.27549">
        <ele>1558.43</ele>
        <time>2013-07-14T09:05:34Z</time>
      </trkpt>
      <trkpt lat="46.57161" lon="6.27553">
        <ele>1559.4</ele>
        <time>2013-07-14T09:05:44Z</time>
      </trkpt>
      <trkpt lat="46.57161" lon="6.27553">
        <ele>1559.4</ele>
        <time>2013-07-14T09:06:02Z</time>
      </trkpt>
      <trkpt lat="46.5716" lon="6.27552">
        <ele>1559.4</ele>
        <time>2013-07-14T09:06:20Z</time>
      </trkpt>
      <trkpt lat="46.5716" lon="6.27553">
        <ele>1558.92</ele>
        <time>2013-07-14T09:06:37Z</time>
      </trkpt>
      <trkpt lat="46.5716" lon="6.27553">
        <ele>1558.92</ele>
        <time>2013-07-14T09:06:59Z</time>
      </trkpt>
      <trkpt lat="46.5716" lon="6.27552">
        <ele>1559.88</ele>
        <time>2013-07-14T09:07:27Z</time>
      </trkpt>
      <trkpt lat="46.57161" lon="6.27553">
        <ele>1559.88</ele>
        <time>2013-07-14T09:07:55Z</time>
      </trkpt>
      <trkpt lat="46.57161" lon="6.27553">
        <ele>1558.92</ele>
        <time>2013-07-14T09:08:17Z</time>
      </trkpt>
      <trkpt lat="46.5716" lon="6.27554">
        <ele>1558.92</ele>
        <time>2013-07-14T09:08:37Z</time>
      </trkpt>
      <trkpt lat="46.5716" lon="6.27552">
        <ele>1558.43</ele>
        <time>2013-07-14T09:08:53Z</time>
      </trkpt>
      <trkpt lat="46.57161" lon="6.27555">
        <ele>1558.92</ele>
        <time>2013-07-14T09:08:59Z</time>
      </trkpt>
      <trkpt lat="46.57167" lon="6.2756">
        <ele>1560.84</ele>
        <time>2013-07-14T09:09:06Z</time>
      </trkpt>
      <trkpt lat="46.57175" lon="6.2757">
        <ele>1562.28</ele>
        <time>2013-07-14T09:09:17Z</time>
      </trkpt>
      <trkpt lat="46.57186" lon="6.27582">
        <ele>1563.72</ele>
        <time>2013-07-14T09:09:31Z</time>
      </trkpt>
      <trkpt lat="46.57197" lon="6.27594">
        <ele>1565.64</ele>
        <time>2013-07-14T09:09:46Z</time>
      </trkpt>
      <trkpt lat="46.57204" lon="6.27598">
        <ele>1566.12</ele>
        <time>2013-07-14T09:09:54Z</time>
      </trkpt>
      <trkpt lat="46.57212" lon="6.27608">
        <ele>1566.12</ele>
        <time>2013-07-14T09:10:06Z</time>
      </trkpt>
      <trkpt lat="46.57222" lon="6.27612">
        <ele>1567.09</ele>
        <time>2013-07-14T09:10:18Z</time>
      </trkpt>
      <trkpt lat="46.57234" lon="6.27612">
        <ele>1567.57</ele>
        <time>2013-07-14T09:10:33Z</time>
      </trkpt>
      <trkpt lat="46.57238" lon="6.27613">
        <ele>1567.57</ele>
        <time>2013-07-14T09:10:46Z</time>
      </trkpt>
      <trkpt lat="46.57239" lon="6.27613">
        <ele>1567.57</ele>
        <time>2013-07-14T09:10:58Z</time>
      </trkpt>
      <trkpt lat="46.57238" lon="6.27614">
        <ele>1567.09</ele>
        <time>2013-07-14T09:11:19Z</time>
      </trkpt>
      <trkpt lat="46.57246" lon="6.2761">
        <ele>1567.57</ele>
        <time>2013-07-14T09:11:33Z</time>
      </trkpt>
      <trkpt lat="46.5725" lon="6.27607">
        <ele>1568.05</ele>
        <time>2013-07-14T09:11:38Z</time>
      </trkpt>
      <trkpt lat="46.57259" lon="6.27604">
        <ele>1567.57</ele>
        <time>2013-07-14T09:11:47Z</time>
      </trkpt>
      <trkpt lat="46.57269" lon="6.27602">
        <ele>1567.57</ele>
        <time>2013-07-14T09:12:02Z</time>
      </trkpt>
      <trkpt lat="46.57271" lon="6.27602">
        <ele>1567.57</ele>
        <time>2013-07-14T09:12:05Z</time>
      </trkpt>
      <trkpt lat="46.57288" lon="6.27601">
        <ele>1567.09</ele>
        <time>2013-07-14T09:12:19Z</time>
      </trkpt>
      <trkpt lat="46.57301" lon="6.27594">
        <ele>1568.53</ele>
        <time>2013-07-14T09:12:32Z</time>
      </trkpt>
      <trkpt lat="46.57304" lon="6.27592">
        <ele>1569.01</ele>
        <time>2013-07-14T09:12:36Z</time>
      </trkpt>
      <trkpt lat="46.57308" lon="6.27588">
        <ele>1569.49</ele>
        <time>2013-07-14T09:12:42Z</time>
      </trkpt>
      <trkpt lat="46.57313" lon="6.27584">
        <ele>1569.97</ele>
        <time>2013-07-14T09:12:47Z</time>
      </trkpt>
      <trkpt lat="46.57325" lon="6.27579">
        <ele>1566.12</ele>
        <time>2013-07-14T09:13:00Z</time>
      </trkpt>
      <trkpt lat="46.5733" lon="6.27581">
        <ele>1567.09</ele>
        <time>2013-07-14T09:13:05Z</time>
      </trkpt>
      <trkpt lat="46.57342" lon="6.27587">
        <ele>1565.16</ele>
        <time>2013-07-14T09:13:17Z</time>
      </trkpt>
      <trkpt lat="46.57349" lon="6.27595">
        <ele>1564.68</ele>
        <time>2013-07-14T09:13:32Z</time>
      </trkpt>
      <trkpt lat="46.57349" lon="6.27596">
        <ele>1563.24</ele>
        <time>2013-07-14T09:13:33Z</time>
      </trkpt>
      <trkpt lat="46.57358" lon="6.27602">
        <ele>1561.8</ele>
        <time>2013-07-14T09:13:42Z</time>
      </trkpt>
      <trkpt lat="46.57362" lon="6.27605">
        <ele>1560.36</ele>
        <time>2013-07-14T09:13:46Z</time>
      </trkpt>
      <trkpt lat="46.57364" lon="6.27607">
        <ele>1560.36</ele>
        <time>2013-07-14T09:13:48Z</time>
      </trkpt>
      <trkpt lat="46.5737" lon="6.27619">
        <ele>1558.43</ele>
        <time>2013-07-14T09:13:59Z</time>
      </trkpt>
      <trkpt lat="46.57372" lon="6.2762">
        <ele>1557.95</ele>
        <time>2013-07-14T09:14:16Z</time>
      </trkpt>
      <trkpt lat="46.57372" lon="6.2762">
        <ele>1556.99</ele>
        <time>2013-07-14T09:14:35Z</time>
      </trkpt>
      <trkpt lat="46.57376" lon="6.27621">
        <ele>1556.03</ele>
        <time>2013-07-14T09:14:52Z</time>
      </trkpt>
      <trkpt lat="46.57379" lon="6.27624">
        <ele>1556.03</ele>
        <time>2013-07-14T09:14:57Z</time>
      </trkpt>
      <trkpt lat="46.57382" lon="6.27626">
        <ele>1555.55</ele>
        <time>2013-07-14T09:15:01Z</time>
      </trkpt>
      <trkpt lat="46.57393" lon="6.27638">
        <ele>1553.15</ele>
        <time>2013-07-14T09:15:15Z</time>
      </trkpt>
      <trkpt lat="46.57403" lon="6.27652">
        <ele>1549.3</ele>
        <time>2013-07-14T09:15:30Z</time>
      </trkpt>
      <trkpt lat="46.5741" lon="6.27649">
        <ele>1548.34</ele>
        <time>2013-07-14T09:15:36Z</time>
      </trkpt>
      <trkpt lat="46.57411" lon="6.27641">
        <ele>1550.74</ele>
        <time>2013-07-14T09:15:40Z</time>
      </trkpt>
      <trkpt lat="46.57414" lon="6.27637">
        <ele>1549.3</ele>
        <time>2013-07-14T09:16:01Z</time>
      </trkpt>
      <trkpt lat="46.57414" lon="6.27632">
        <ele>1547.38</ele>
        <time>2013-07-14T09:16:23Z</time>
      </trkpt>
      <trkpt lat="46.57413" lon="6.27632">
        <ele>1549.78</ele>
        <time>2013-07-14T09:16:24Z</time>
      </trkpt>
      <trkpt lat="46.5741" lon="6.2764">
        <ele>1549.3</ele>
        <time>2013-07-14T09:16:29Z</time>
      </trkpt>
      <trkpt lat="46.5741" lon="6.27643">
        <ele>1549.3</ele>
        <time>2013-07-14T09:16:31Z</time>
      </trkpt>
      <trkpt lat="46.57417" lon="6.27658">
        <ele>1547.38</ele>
        <time>2013-07-14T09:16:41Z</time>
      </trkpt>
      <trkpt lat="46.57434" lon="6.2768">
        <ele>1546.42</ele>
        <time>2013-07-14T09:16:56Z</time>
      </trkpt>
      <trkpt lat="46.57451" lon="6.277">
        <ele>1549.78</ele>
        <time>2013-07-14T09:17:13Z</time>
      </trkpt>
      <trkpt lat="46.57452" lon="6.27702">
        <ele>1550.26</ele>
        <time>2013-07-14T09:17:14Z</time>
      </trkpt>
      <trkpt lat="46.57466" lon="6.27705">
        <ele>1550.26</ele>
        <time>2013-07-14T09:17:29Z</time>
      </trkpt>
      <trkpt lat="46.57468" lon="6.27703">
        <ele>1550.74</ele>
        <time>2013-07-14T09:17:42Z</time>
      </trkpt>
      <trkpt lat="46.57481" lon="6.27704">
        <ele>1550.74</ele>
        <time>2013-07-14T09:18:01Z</time>
      </trkpt>
      <trkpt lat="46.57491" lon="6.27703">
        <ele>1549.3</ele>
        <time>2013-07-14T09:18:16Z</time>
      </trkpt>
      <trkpt lat="46.575" lon="6.27702">
        <ele>1548.34</ele>
        <time>2013-07-14T09:18:31Z</time>
      </trkpt>
      <trkpt lat="46.57513" lon="6.277">
        <ele>1546.42</ele>
        <time>2013-07-14T09:18:46Z</time>
      </trkpt>
      <trkpt lat="46.57527" lon="6.27704">
        <ele>1545.46</ele>
        <time>2013-07-14T09:19:03Z</time>
      </trkpt>
      <trkpt lat="46.57538" lon="6.27709">
        <ele>1545.94</ele>
        <time>2013-07-14T09:19:20Z</time>
      </trkpt>
      <trkpt lat="46.57544" lon="6.27717">
        <ele>1546.42</ele>
        <time>2013-07-14T09:19:30Z</time>
      </trkpt>
      <trkpt lat="46.5755" lon="6.27723">
        <ele>1545.94</ele>
        <time>2013-07-14T09:19:45Z</time>
      </trkpt>
      <trkpt lat="46.57551" lon="6.27724">
        <ele>1545.46</ele>
        <time>2013-07-14T09:19:47Z</time>
      </trkpt>
      <trkpt lat="46.57558" lon="6.27732">
        <ele>1546.42</ele>
        <time>2013-07-14T09:19:54Z</time>
      </trkpt>
      <trkpt lat="46.57561" lon="6.27735">
        <ele>1546.42</ele>
        <time>2013-07-14T09:19:58Z</time>
      </trkpt>
      <trkpt lat="46.57577" lon="6.27753">
        <ele>1545.46</ele>
        <time>2013-07-14T09:20:16Z</time>
      </trkpt>
      <trkpt lat="46.5759" lon="6.27763">
        <ele>1545.46</ele>
        <time>2013-07-14T09:20:28Z</time>
      </trkpt>
      <trkpt lat="46.57606" lon="6.27773">
        <ele>1543.05</ele>
        <time>2013-07-14T09:20:43Z</time>
      </trkpt>
      <trkpt lat="46.57616" lon="6.27783">
        <ele>1542.57</ele>
        <time>2013-07-14T09:20:56Z</time>
      </trkpt>
      <trkpt lat="46.57618" lon="6.27785">
        <ele>1541.61</ele>
        <time>2013-07-14T09:20:59Z</time>
      </trkpt>
      <trkpt lat="46.5762" lon="6.2779">
        <ele>1541.13</ele>
        <time>2013-07-14T09:21:02Z</time>
      </trkpt>
      <trkpt lat="46.57637" lon="6.27805">
        <ele>1538.73</ele>
        <time>2013-07-14T09:21:20Z</time>
      </trkpt>
      <trkpt lat="46.57637" lon="6.27804">
        <ele>1530.56</ele>
        <time>2013-07-14T09:21:33Z</time>
      </trkpt>
      <trkpt lat="46.57638" lon="6.27803">
        <ele>1543.53</ele>
        <time>2013-07-14T09:21:34Z</time>
      </trkpt>
      <trkpt lat="46.57638" lon="6.27803">
        <ele>1538.73</ele>
        <time>2013-07-14T09:21:35Z</time>
      </trkpt>
      <trkpt lat="46.57637" lon="6.27804">
        <ele>1538.73</ele>
        <time>2013-07-14T09:21:47Z</time>
      </trkpt>
      <trkpt lat="46.57637" lon="6.27803">
        <ele>1538.25</ele>
        <time>2013-07-14T09:22:06Z</time>
      </trkpt>
      <trkpt lat="46.57638" lon="6.27803">
        <ele>1538.73</ele>
        <time>2013-07-14T09:22:27Z</time>
      </trkpt>
      <trkpt lat="46.5764" lon="6.27804">
        <ele>1537.29</ele>
        <time>2013-07-14T09:22:41Z</time>
      </trkpt>
      <trkpt lat="46.57661" lon="6.27826">
        <ele>1533.92</ele>
        <time>2013-07-14T09:22:58Z</time>
      </trkpt>
      <trkpt lat="46.5767" lon="6.27836">
        <ele>1532</ele>
        <time>2013-07-14T09:23:14Z</time>
      </trkpt>
      <trkpt lat="46.5768" lon="6.27842">
        <ele>1528.63</ele>
        <time>2013-07-14T09:23:30Z</time>
      </trkpt>
      <trkpt lat="46.57692" lon="6.27858">
        <ele>1525.75</ele>
        <time>2013-07-14T09:23:46Z</time>
      </trkpt>
      <trkpt lat="46.57703" lon="6.27872">
        <ele>1522.39</ele>
        <time>2013-07-14T09:24:01Z</time>
      </trkpt>
      <trkpt lat="46.57712" lon="6.27881">
        <ele>1519.02</ele>
        <time>2013-07-14T09:24:12Z</time>
      </trkpt>
      <trkpt lat="46.57724" lon="6.27887">
        <ele>1517.58</ele>
        <time>2013-07-14T09:24:30Z</time>
      </trkpt>
      <trkpt lat="46.57731" lon="6.27899">
        <ele>1515.18</ele>
        <time>2013-07-14T09:24:41Z</time>
      </trkpt>
      <trkpt lat="46.57741" lon="6.27905">
        <ele>1513.25</ele>
        <time>2013-07-14T09:24:55Z</time>
      </trkpt>
      <trkpt lat="46.57764" lon="6.27911">
        <ele>1511.81</ele>
        <time>2013-07-14T09:25:12Z</time>
      </trkpt>
      <trkpt lat="46.57777" lon="6.27908">
        <ele>1510.37</ele>
        <time>2013-07-14T09:25:27Z</time>
      </trkpt>
      <trkpt lat="46.57778" lon="6.27908">
        <ele>1509.89</ele>
        <time>2013-07-14T09:25:32Z</time>
      </trkpt>
      <trkpt lat="46.57786" lon="6.279">
        <ele>1509.41</ele>
        <time>2013-07-14T09:25:36Z</time>
      </trkpt>
      <trkpt lat="46.57793" lon="6.27893">
        <ele>1509.41</ele>
        <time>2013-07-14T09:25:42Z</time>
      </trkpt>
      <trkpt lat="46.57801" lon="6.27889">
        <ele>1507.97</ele>
        <time>2013-07-14T09:25:53Z</time>
      </trkpt>
      <trkpt lat="46.57807" lon="6.27889">
        <ele>1507.48</ele>
        <time>2013-07-14T09:26:08Z</time>
      </trkpt>
      <trkpt lat="46.57825" lon="6.27883">
        <ele>1506.52</ele>
        <time>2013-07-14T09:26:22Z</time>
      </trkpt>
      <trkpt lat="46.57836" lon="6.27879">
        <ele>1507</ele>
        <time>2013-07-14T09:26:39Z</time>
      </trkpt>
      <trkpt lat="46.57836" lon="6.27879">
        <ele>1506.52</ele>
        <time>2013-07-14T09:27:00Z</time>
      </trkpt>
      <trkpt lat="46.57843" lon="6.27877">
        <ele>1506.52</ele>
        <time>2013-07-14T09:27:17Z</time>
      </trkpt>
      <trkpt lat="46.57844" lon="6.27876">
        <ele>1506.52</ele>
        <time>2013-07-14T09:27:34Z</time>
      </trkpt>
      <trkpt lat="46.57844" lon="6.27877">
        <ele>1506.52</ele>
        <time>2013-07-14T09:28:06Z</time>
      </trkpt>
      <trkpt lat="46.57848" lon="6.27873">
        <ele>1507</ele>
        <time>2013-07-14T09:28:19Z</time>
      </trkpt>
      <trkpt lat="46.57854" lon="6.2787">
        <ele>1506.04</ele>
        <time>2013-07-14T09:28:24Z</time>
      </trkpt>
      <trkpt lat="46.57865" lon="6.27875">
        <ele>1505.08</ele>
        <time>2013-07-14T09:28:36Z</time>
      </trkpt>
      <trkpt lat="46.57878" lon="6.27884">
        <ele>1505.56</ele>
        <time>2013-07-14T09:28:53Z</time>
      </trkpt>
      <trkpt lat="46.57882" lon="6.27887">
        <ele>1506.04</ele>
        <time>2013-07-14T09:28:58Z</time>
      </trkpt>
      <trkpt lat="46.57885" lon="6.2789">
        <ele>1506.04</ele>
        <time>2013-07-14T09:29:02Z</time>
      </trkpt>
      <trkpt lat="46.57888" lon="6.27893">
        <ele>1506.04</ele>
        <time>2013-07-14T09:29:05Z</time>
      </trkpt>
      <trkpt lat="46.57903" lon="6.27904">
        <ele>1506.04</ele>
        <time>2013-07-14T09:29:19Z</time>
      </trkpt>
      <trkpt lat="46.57915" lon="6.27912">
        <ele>1507</ele>
        <time>2013-07-14T09:29:35Z</time>
      </trkpt>
      <trkpt lat="46.57927" lon="6.27928">
        <ele>1507</ele>
        <time>2013-07-14T09:29:51Z</time>
      </trkpt>
      <trkpt lat="46.5793" lon="6.27937">
        <ele>1507.48</ele>
        <time>2013-07-14T09:29:59Z</time>
      </trkpt>
      <trkpt lat="46.57935" lon="6.27946">
        <ele>1509.41</ele>
        <time>2013-07-14T09:30:09Z</time>
      </trkpt>
      <trkpt lat="46.57936" lon="6.27951">
        <ele>1508.93</ele>
        <time>2013-07-14T09:30:12Z</time>
      </trkpt>
      <trkpt lat="46.57939" lon="6.27967">
        <ele>1509.89</ele>
        <time>2013-07-14T09:30:22Z</time>
      </trkpt>
      <trkpt lat="46.57941" lon="6.27974">
        <ele>1510.85</ele>
        <time>2013-07-14T09:30:28Z</time>
      </trkpt>
      <trkpt lat="46.57944" lon="6.27982">
        <ele>1511.81</ele>
        <time>2013-07-14T09:30:35Z</time>
      </trkpt>
      <trkpt lat="46.57946" lon="6.27992">
        <ele>1512.29</ele>
        <time>2013-07-14T09:30:42Z</time>
      </trkpt>
      <trkpt lat="46.57945" lon="6.28004">
        <ele>1513.25</ele>
        <time>2013-07-14T09:30:49Z</time>
      </trkpt>
      <trkpt lat="46.57947" lon="6.28014">
        <ele>1513.73</ele>
        <time>2013-07-14T09:30:56Z</time>
      </trkpt>
      <trkpt lat="46.57947" lon="6.28016">
        <ele>1514.69</ele>
        <time>2013-07-14T09:30:58Z</time>
      </trkpt>
      <trkpt lat="46.57946" lon="6.28026">
        <ele>1515.18</ele>
        <time>2013-07-14T09:31:10Z</time>
      </trkpt>
      <trkpt lat="46.57947" lon="6.2804">
        <ele>1516.14</ele>
        <time>2013-07-14T09:31:21Z</time>
      </trkpt>
      <trkpt lat="46.57949" lon="6.28055">
        <ele>1517.1</ele>
        <time>2013-07-14T09:31:34Z</time>
      </trkpt>
      <trkpt lat="46.57946" lon="6.28072">
        <ele>1517.58</ele>
        <time>2013-07-14T09:31:42Z</time>
      </trkpt>
      <trkpt lat="46.57948" lon="6.28086">
        <ele>1519.02</ele>
        <time>2013-07-14T09:31:58Z</time>
      </trkpt>
      <trkpt lat="46.57949" lon="6.28092">
        <ele>1519.02</ele>
        <time>2013-07-14T09:32:04Z</time>
      </trkpt>
      <trkpt lat="46.57949" lon="6.28104">
        <ele>1519.98</ele>
        <time>2013-07-14T09:32:12Z</time>
      </trkpt>
      <trkpt lat="46.5795" lon="6.28113">
        <ele>1519.98</ele>
        <time>2013-07-14T09:32:18Z</time>
      </trkpt>
      <trkpt lat="46.5795" lon="6.28122">
        <ele>1520.46</ele>
        <time>2013-07-14T09:32:24Z</time>
      </trkpt>
      <trkpt lat="46.5795" lon="6.28129">
        <ele>1520.94</ele>
        <time>2013-07-14T09:32:31Z</time>
      </trkpt>
      <trkpt lat="46.57952" lon="6.28138">
        <ele>1521.42</ele>
        <time>2013-07-14T09:32:38Z</time>
      </trkpt>
      <trkpt lat="46.57953" lon="6.28143">
        <ele>1521.9</ele>
        <time>2013-07-14T09:32:46Z</time>
      </trkpt>
      <trkpt lat="46.57957" lon="6.28167">
        <ele>1523.35</ele>
        <time>2013-07-14T09:33:01Z</time>
      </trkpt>
      <trkpt lat="46.57957" lon="6.28169">
        <ele>1522.87</ele>
        <time>2013-07-14T09:33:02Z</time>
      </trkpt>
      <trkpt lat="46.57958" lon="6.28171">
        <ele>1523.83</ele>
        <time>2013-07-14T09:33:04Z</time>
      </trkpt>
      <trkpt lat="46.57961" lon="6.28178">
        <ele>1523.35</ele>
        <time>2013-07-14T09:33:09Z</time>
      </trkpt>
      <trkpt lat="46.57965" lon="6.28197">
        <ele>1524.79</ele>
        <time>2013-07-14T09:33:23Z</time>
      </trkpt>
      <trkpt lat="46.5797" lon="6.28216">
        <ele>1525.75</ele>
        <time>2013-07-14T09:33:35Z</time>
      </trkpt>
      <trkpt lat="46.57982" lon="6.28226">
        <ele>1528.15</ele>
        <time>2013-07-14T09:33:49Z</time>
      </trkpt>
      <trkpt lat="46.57992" lon="6.28244">
        <ele>1529.11</ele>
        <time>2013-07-14T09:34:05Z</time>
      </trkpt>
      <trkpt lat="46.58002" lon="6.28254">
        <ele>1531.52</ele>
        <time>2013-07-14T09:34:20Z</time>
      </trkpt>
      <trkpt lat="46.58009" lon="6.28266">
        <ele>1534.4</ele>
        <time>2013-07-14T09:34:35Z</time>
      </trkpt>
      <trkpt lat="46.58019" lon="6.28278">
        <ele>1537.77</ele>
        <time>2013-07-14T09:34:49Z</time>
      </trkpt>
      <trkpt lat="46.58023" lon="6.2828">
        <ele>1538.73</ele>
        <time>2013-07-14T09:35:03Z</time>
      </trkpt>
      <trkpt lat="46.58028" lon="6.28293">
        <ele>1540.65</ele>
        <time>2013-07-14T09:35:14Z</time>
      </trkpt>
      <trkpt lat="46.58031" lon="6.28294">
        <ele>1541.61</ele>
        <time>2013-07-14T09:35:29Z</time>
      </trkpt>
      <trkpt lat="46.58031" lon="6.28293">
        <ele>1541.61</ele>
        <time>2013-07-14T09:35:52Z</time>
      </trkpt>
      <trkpt lat="46.58031" lon="6.28293">
        <ele>1537.77</ele>
        <time>2013-07-14T09:35:59Z</time>
      </trkpt>
      <trkpt lat="46.58031" lon="6.28293">
        <ele>1544.98</ele>
        <time>2013-07-14T09:36:00Z</time>
      </trkpt>
      <trkpt lat="46.58031" lon="6.28293">
        <ele>1541.61</ele>
        <time>2013-07-14T09:36:01Z</time>
      </trkpt>
      <trkpt lat="46.58029" lon="6.28298">
        <ele>1546.42</ele>
        <time>2013-07-14T09:36:15Z</time>
      </trkpt>
      <trkpt lat="46.58028" lon="6.28299">
        <ele>1542.57</ele>
        <time>2013-07-14T09:36:16Z</time>
      </trkpt>
      <trkpt lat="46.58028" lon="6.283">
        <ele>1537.77</ele>
        <time>2013-07-14T09:36:17Z</time>
      </trkpt>
      <trkpt lat="46.58027" lon="6.28301">
        <ele>1544.5</ele>
        <time>2013-07-14T09:36:18Z</time>
      </trkpt>
      <trkpt lat="46.58026" lon="6.28302">
        <ele>1541.13</ele>
        <time>2013-07-14T09:36:20Z</time>
      </trkpt>
      <trkpt lat="46.58026" lon="6.28303">
        <ele>1544.5</ele>
        <time>2013-07-14T09:36:21Z</time>
      </trkpt>
      <trkpt lat="46.58025" lon="6.28305">
        <ele>1537.77</ele>
        <time>2013-07-14T09:36:23Z</time>
      </trkpt>
      <trkpt lat="46.58024" lon="6.28306">
        <ele>1548.34</ele>
        <time>2013-07-14T09:36:24Z</time>
      </trkpt>
      <trkpt lat="46.58023" lon="6.28307">
        <ele>1544.5</ele>
        <time>2013-07-14T09:36:25Z</time>
      </trkpt>
      <trkpt lat="46.58022" lon="6.28309">
        <ele>1540.65</ele>
        <time>2013-07-14T09:36:27Z</time>
      </trkpt>
      <trkpt lat="46.58022" lon="6.28309">
        <ele>1546.42</ele>
        <time>2013-07-14T09:36:28Z</time>
      </trkpt>
      <trkpt lat="46.58021" lon="6.2831">
        <ele>1545.94</ele>
        <time>2013-07-14T09:36:29Z</time>
      </trkpt>
      <trkpt lat="46.5802" lon="6.28311">
        <ele>1544.5</ele>
        <time>2013-07-14T09:36:31Z</time>
      </trkpt>
      <trkpt lat="46.58018" lon="6.28314">
        <ele>1532</ele>
        <time>2013-07-14T09:36:35Z</time>
      </trkpt>
      <trkpt lat="46.58017" lon="6.28315">
        <ele>1536.32</ele>
        <time>2013-07-14T09:36:36Z</time>
      </trkpt>
      <trkpt lat="46.58017" lon="6.28316">
        <ele>1546.42</ele>
        <time>2013-07-14T09:36:37Z</time>
      </trkpt>
      <trkpt lat="46.58016" lon="6.28317">
        <ele>1539.21</ele>
        <time>2013-07-14T09:36:38Z</time>
      </trkpt>
      <trkpt lat="46.58015" lon="6.28319">
        <ele>1544.98</ele>
        <time>2013-07-14T09:36:40Z</time>
      </trkpt>
      <trkpt lat="46.58014" lon="6.28322">
        <ele>1548.34</ele>
        <time>2013-07-14T09:36:42Z</time>
      </trkpt>
      <trkpt lat="46.58004" lon="6.28337">
        <ele>1546.9</ele>
        <time>2013-07-14T09:36:56Z</time>
      </trkpt>
      <trkpt lat="46.58" lon="6.28345">
        <ele>1547.86</ele>
        <time>2013-07-14T09:37:06Z</time>
      </trkpt>
      <trkpt lat="46.57992" lon="6.28362">
        <ele>1549.78</ele>
        <time>2013-07-14T09:37:21Z</time>
      </trkpt>
      <trkpt lat="46.57987" lon="6.28375">
        <ele>1548.82</ele>
        <time>2013-07-14T09:37:31Z</time>
      </trkpt>
      <trkpt lat="46.57978" lon="6.28386">
        <ele>1552.19</ele>
        <time>2013-07-14T09:37:43Z</time>
      </trkpt>
      <trkpt lat="46.57972" lon="6.28391">
        <ele>1552.67</ele>
        <time>2013-07-14T09:37:51Z</time>
      </trkpt>
      <trkpt lat="46.57958" lon="6.28398">
        <ele>1553.63</ele>
        <time>2013-07-14T09:38:07Z</time>
      </trkpt>
      <trkpt lat="46.57951" lon="6.28402">
        <ele>1554.11</ele>
        <time>2013-07-14T09:38:14Z</time>
      </trkpt>
      <trkpt lat="46.57948" lon="6.28404">
        <ele>1554.11</ele>
        <time>2013-07-14T09:38:17Z</time>
      </trkpt>
      <trkpt lat="46.57941" lon="6.28419">
        <ele>1556.99</ele>
        <time>2013-07-14T09:38:29Z</time>
      </trkpt>
      <trkpt lat="46.57939" lon="6.28426">
        <ele>1556.51</ele>
        <time>2013-07-14T09:38:34Z</time>
      </trkpt>
      <trkpt lat="46.57938" lon="6.28429">
        <ele>1558.43</ele>
        <time>2013-07-14T09:38:37Z</time>
      </trkpt>
      <trkpt lat="46.57932" lon="6.2844">
        <ele>1557.47</ele>
        <time>2013-07-14T09:38:49Z</time>
      </trkpt>
      <trkpt lat="46.57929" lon="6.28443">
        <ele>1558.92</ele>
        <time>2013-07-14T09:38:53Z</time>
      </trkpt>
      <trkpt lat="46.57926" lon="6.28465">
        <ele>1560.84</ele>
        <time>2013-07-14T09:39:06Z</time>
      </trkpt>
      <trkpt lat="46.57923" lon="6.28482">
        <ele>1559.4</ele>
        <time>2013-07-14T09:39:19Z</time>
      </trkpt>
      <trkpt lat="46.57922" lon="6.28484">
        <ele>1561.8</ele>
        <time>2013-07-14T09:39:20Z</time>
      </trkpt>
      <trkpt lat="46.57917" lon="6.28501">
        <ele>1561.8</ele>
        <time>2013-07-14T09:39:33Z</time>
      </trkpt>
      <trkpt lat="46.57915" lon="6.28516">
        <ele>1563.24</ele>
        <time>2013-07-14T09:39:44Z</time>
      </trkpt>
      <trkpt lat="46.57914" lon="6.28519">
        <ele>1562.76</ele>
        <time>2013-07-14T09:39:46Z</time>
      </trkpt>
      <trkpt lat="46.57914" lon="6.28522">
        <ele>1563.24</ele>
        <time>2013-07-14T09:39:48Z</time>
      </trkpt>
      <trkpt lat="46.57914" lon="6.28527">
        <ele>1565.16</ele>
        <time>2013-07-14T09:39:51Z</time>
      </trkpt>
      <trkpt lat="46.57913" lon="6.28533">
        <ele>1564.68</ele>
        <time>2013-07-14T09:39:55Z</time>
      </trkpt>
      <trkpt lat="46.57909" lon="6.28552">
        <ele>1564.2</ele>
        <time>2013-07-14T09:40:08Z</time>
      </trkpt>
      <trkpt lat="46.57911" lon="6.2857">
        <ele>1563.72</ele>
        <time>2013-07-14T09:40:23Z</time>
      </trkpt>
      <trkpt lat="46.57911" lon="6.28577">
        <ele>1563.72</ele>
        <time>2013-07-14T09:40:29Z</time>
      </trkpt>
      <trkpt lat="46.57918" lon="6.28599">
        <ele>1564.2</ele>
        <time>2013-07-14T09:40:44Z</time>
      </trkpt>
      <trkpt lat="46.57919" lon="6.28603">
        <ele>1564.2</ele>
        <time>2013-07-14T09:40:47Z</time>
      </trkpt>
      <trkpt lat="46.57921" lon="6.28619">
        <ele>1565.16</ele>
        <time>2013-07-14T09:41:02Z</time>
      </trkpt>
      <trkpt lat="46.57923" lon="6.28624">
        <ele>1563.72</ele>
        <time>2013-07-14T09:41:05Z</time>
      </trkpt>
      <trkpt lat="46.57923" lon="6.28625">
        <ele>1564.68</ele>
        <time>2013-07-14T09:41:06Z</time>
      </trkpt>
      <trkpt lat="46.57927" lon="6.28632">
        <ele>1565.64</ele>
        <time>2013-07-14T09:41:12Z</time>
      </trkpt>
      <trkpt lat="46.57933" lon="6.2864">
        <ele>1567.57</ele>
        <time>2013-07-14T09:41:25Z</time>
      </trkpt>
      <trkpt lat="46.57938" lon="6.28655">
        <ele>1568.53</ele>
        <time>2013-07-14T09:41:39Z</time>
      </trkpt>
      <trkpt lat="46.57941" lon="6.28658">
        <ele>1569.49</ele>
        <time>2013-07-14T09:42:00Z</time>
      </trkpt>
      <trkpt lat="46.5795" lon="6.28667">
        <ele>1571.41</ele>
        <time>2013-07-14T09:42:12Z</time>
      </trkpt>
      <trkpt lat="46.57963" lon="6.28677">
        <ele>1573.33</ele>
        <time>2013-07-14T09:42:24Z</time>
      </trkpt>
      <trkpt lat="46.57963" lon="6.28677">
        <ele>1573.33</ele>
        <time>2013-07-14T09:42:25Z</time>
      </trkpt>
      <trkpt lat="46.57969" lon="6.2868">
        <ele>1573.82</ele>
        <time>2013-07-14T09:42:31Z</time>
      </trkpt>
      <trkpt lat="46.57971" lon="6.28682">
        <ele>1575.26</ele>
        <time>2013-07-14T09:42:33Z</time>
      </trkpt>
      <trkpt lat="46.57977" lon="6.28693">
        <ele>1575.74</ele>
        <time>2013-07-14T09:42:43Z</time>
      </trkpt>
      <trkpt lat="46.57988" lon="6.28705">
        <ele>1580.54</ele>
        <time>2013-07-14T09:42:58Z</time>
      </trkpt>
      <trkpt lat="46.5799" lon="6.28711">
        <ele>1580.06</ele>
        <time>2013-07-14T09:43:03Z</time>
      </trkpt>
      <trkpt lat="46.57992" lon="6.28717">
        <ele>1581.51</ele>
        <time>2013-07-14T09:43:07Z</time>
      </trkpt>
      <trkpt lat="46.57996" lon="6.28722">
        <ele>1582.95</ele>
        <time>2013-07-14T09:43:21Z</time>
      </trkpt>
      <trkpt lat="46.58" lon="6.28725">
        <ele>1583.43</ele>
        <time>2013-07-14T09:43:33Z</time>
      </trkpt>
      <trkpt lat="46.58001" lon="6.28726">
        <ele>1583.43</ele>
        <time>2013-07-14T09:43:36Z</time>
      </trkpt>
      <trkpt lat="46.58004" lon="6.28733">
        <ele>1584.87</ele>
        <time>2013-07-14T09:43:42Z</time>
      </trkpt>
      <trkpt lat="46.5801" lon="6.28743">
        <ele>1588.24</ele>
        <time>2013-07-14T09:43:51Z</time>
      </trkpt>
      <trkpt lat="46.58017" lon="6.28747">
        <ele>1589.68</ele>
        <time>2013-07-14T09:43:58Z</time>
      </trkpt>
      <trkpt lat="46.58021" lon="6.28755">
        <ele>1591.12</ele>
        <time>2013-07-14T09:44:04Z</time>
      </trkpt>
      <trkpt lat="46.58032" lon="6.28769">
        <ele>1593.52</ele>
        <time>2013-07-14T09:44:18Z</time>
      </trkpt>
      <trkpt lat="46.58037" lon="6.28775">
        <ele>1595.45</ele>
        <time>2013-07-14T09:44:24Z</time>
      </trkpt>
      <trkpt lat="46.58046" lon="6.28781">
        <ele>1595.93</ele>
        <time>2013-07-14T09:44:35Z</time>
      </trkpt>
      <trkpt lat="46.58048" lon="6.28786">
        <ele>1597.37</ele>
        <time>2013-07-14T09:44:46Z</time>
      </trkpt>
      <trkpt lat="46.58053" lon="6.2879">
        <ele>1597.85</ele>
        <time>2013-07-14T09:44:51Z</time>
      </trkpt>
      <trkpt lat="46.58058" lon="6.28796">
        <ele>1598.33</ele>
        <time>2013-07-14T09:44:56Z</time>
      </trkpt>
      <trkpt lat="46.58058" lon="6.28797">
        <ele>1597.85</ele>
        <time>2013-07-14T09:44:57Z</time>
      </trkpt>
      <trkpt lat="46.58073" lon="6.2881">
        <ele>1600.73</ele>
        <time>2013-07-14T09:45:11Z</time>
      </trkpt>
      <trkpt lat="46.58077" lon="6.2882">
        <ele>1600.25</ele>
        <time>2013-07-14T09:45:20Z</time>
      </trkpt>
      <trkpt lat="46.58078" lon="6.28831">
        <ele>1600.73</ele>
        <time>2013-07-14T09:45:33Z</time>
      </trkpt>
      <trkpt lat="46.58078" lon="6.28836">
        <ele>1601.21</ele>
        <time>2013-07-14T09:45:49Z</time>
      </trkpt>
      <trkpt lat="46.58078" lon="6.28838">
        <ele>1602.66</ele>
        <time>2013-07-14T09:45:52Z</time>
      </trkpt>
      <trkpt lat="46.58079" lon="6.28841">
        <ele>1603.14</ele>
        <time>2013-07-14T09:46:09Z</time>
      </trkpt>
      <trkpt lat="46.5808" lon="6.2884">
        <ele>1598.81</ele>
        <time>2013-07-14T09:46:19Z</time>
      </trkpt>
      <trkpt lat="46.58079" lon="6.2884">
        <ele>1604.1</ele>
        <time>2013-07-14T09:46:20Z</time>
      </trkpt>
      <trkpt lat="46.58079" lon="6.28839">
        <ele>1601.69</ele>
        <time>2013-07-14T09:46:23Z</time>
      </trkpt>
      <trkpt lat="46.58079" lon="6.28837">
        <ele>1602.17</ele>
        <time>2013-07-14T09:46:44Z</time>
      </trkpt>
      <trkpt lat="46.58079" lon="6.28837">
        <ele>1599.77</ele>
        <time>2013-07-14T09:47:09Z</time>
      </trkpt>
      <trkpt lat="46.58079" lon="6.28838">
        <ele>1603.14</ele>
        <time>2013-07-14T09:47:18Z</time>
      </trkpt>
      <trkpt lat="46.58079" lon="6.28838">
        <ele>1600.73</ele>
        <time>2013-07-14T09:47:21Z</time>
      </trkpt>
      <trkpt lat="46.58079" lon="6.28838">
        <ele>1603.14</ele>
        <time>2013-07-14T09:47:24Z</time>
      </trkpt>
      <trkpt lat="46.58079" lon="6.28838">
        <ele>1603.14</ele>
        <time>2013-07-14T09:47:34Z</time>
      </trkpt>
      <trkpt lat="46.58079" lon="6.28838">
        <ele>1599.29</ele>
        <time>2013-07-14T09:47:42Z</time>
      </trkpt>
      <trkpt lat="46.58079" lon="6.28838">
        <ele>1604.1</ele>
        <time>2013-07-14T09:47:44Z</time>
      </trkpt>
      <trkpt lat="46.58079" lon="6.28838">
        <ele>1602.66</ele>
        <time>2013-07-14T09:47:45Z</time>
      </trkpt>
      <trkpt lat="46.58079" lon="6.28838">
        <ele>1600.73</ele>
        <time>2013-07-14T09:47:52Z</time>
      </trkpt>
      <trkpt lat="46.58079" lon="6.28839">
        <ele>1602.17</ele>
        <time>2013-07-14T09:47:54Z</time>
      </trkpt>
      <trkpt lat="46.5807" lon="6.28846">
        <ele>1601.69</ele>
        <time>2013-07-14T09:48:16Z</time>
      </trkpt>
      <trkpt lat="46.58074" lon="6.28842">
        <ele>1598.33</ele>
        <time>2013-07-14T09:48:20Z</time>
      </trkpt>
      <trkpt lat="46.58075" lon="6.28842">
        <ele>1602.17</ele>
        <time>2013-07-14T09:48:21Z</time>
      </trkpt>
      <trkpt lat="46.58072" lon="6.28839">
        <ele>1602.17</ele>
        <time>2013-07-14T09:48:43Z</time>
      </trkpt>
      <trkpt lat="46.58076" lon="6.2884">
        <ele>1602.17</ele>
        <time>2013-07-14T09:49:10Z</time>
      </trkpt>
      <trkpt lat="46.58077" lon="6.28841">
        <ele>1597.85</ele>
        <time>2013-07-14T09:49:27Z</time>
      </trkpt>
      <trkpt lat="46.58077" lon="6.28841">
        <ele>1603.14</ele>
        <time>2013-07-14T09:49:28Z</time>
      </trkpt>
      <trkpt lat="46.58075" lon="6.28842">
        <ele>1602.17</ele>
        <time>2013-07-14T09:49:54Z</time>
      </trkpt>
      <trkpt lat="46.58074" lon="6.28842">
        <ele>1602.17</ele>
        <time>2013-07-14T09:50:04Z</time>
      </trkpt>
      <trkpt lat="46.58078" lon="6.28842">
        <ele>1601.69</ele>
        <time>2013-07-14T09:50:25Z</time>
      </trkpt>
      <trkpt lat="46.58091" lon="6.28833">
        <ele>1602.66</ele>
        <time>2013-07-14T09:50:50Z</time>
      </trkpt>
      <trkpt lat="46.58097" lon="6.28832">
        <ele>1602.66</ele>
        <time>2013-07-14T09:51:10Z</time>
      </trkpt>
      <trkpt lat="46.58096" lon="6.28835">
        <ele>1602.17</ele>
        <time>2013-07-14T09:51:22Z</time>
      </trkpt>
      <trkpt lat="46.58096" lon="6.28832">
        <ele>1606.5</ele>
        <time>2013-07-14T09:51:35Z</time>
      </trkpt>
      <trkpt lat="46.58094" lon="6.28833">
        <ele>1602.66</ele>
        <time>2013-07-14T09:51:36Z</time>
      </trkpt>
      <trkpt lat="46.58082" lon="6.28839">
        <ele>1602.66</ele>
        <time>2013-07-14T09:52:02Z</time>
      </trkpt>
      <trkpt lat="46.58081" lon="6.28839">
        <ele>1603.14</ele>
        <time>2013-07-14T09:52:32Z</time>
      </trkpt>
      <trkpt lat="46.58078" lon="6.2884">
        <ele>1603.14</ele>
        <time>2013-07-14T09:52:51Z</time>
      </trkpt>
      <trkpt lat="46.58077" lon="6.28841">
        <ele>1599.29</ele>
        <time>2013-07-14T09:52:52Z</time>
      </trkpt>
      <trkpt lat="46.58077" lon="6.28842">
        <ele>1603.62</ele>
        <time>2013-07-14T09:52:53Z</time>
      </trkpt>
      <trkpt lat="46.58076" lon="6.28843">
        <ele>1602.66</ele>
        <time>2013-07-14T09:53:16Z</time>
      </trkpt>
      <trkpt lat="46.58072" lon="6.28841">
        <ele>1602.66</ele>
        <time>2013-07-14T09:53:39Z</time>
      </trkpt>
      <trkpt lat="46.58073" lon="6.28844">
        <ele>1602.66</ele>
        <time>2013-07-14T09:54:02Z</time>
      </trkpt>
      <trkpt lat="46.58078" lon="6.28837">
        <ele>1606.02</ele>
        <time>2013-07-14T09:54:14Z</time>
      </trkpt>
      <trkpt lat="46.58079" lon="6.28838">
        <ele>1603.14</ele>
        <time>2013-07-14T09:54:16Z</time>
      </trkpt>
      <trkpt lat="46.5808" lon="6.28838">
        <ele>1603.14</ele>
        <time>2013-07-14T09:54:17Z</time>
      </trkpt>
      <trkpt lat="46.5808" lon="6.28842">
        <ele>1597.37</ele>
        <time>2013-07-14T09:54:41Z</time>
      </trkpt>
      <trkpt lat="46.5808" lon="6.28842">
        <ele>1603.62</ele>
        <time>2013-07-14T09:54:42Z</time>
      </trkpt>
      <trkpt lat="46.58079" lon="6.28847">
        <ele>1600.25</ele>
        <time>2013-07-14T09:55:04Z</time>
      </trkpt>
      <trkpt lat="46.58079" lon="6.28847">
        <ele>1603.62</ele>
        <time>2013-07-14T09:55:05Z</time>
      </trkpt>
      <trkpt lat="46.58079" lon="6.28846">
        <ele>1602.66</ele>
        <time>2013-07-14T09:55:30Z</time>
      </trkpt>
      <trkpt lat="46.58082" lon="6.28845">
        <ele>1602.17</ele>
        <time>2013-07-14T09:55:52Z</time>
      </trkpt>
      <trkpt lat="46.58082" lon="6.28845">
        <ele>1604.58</ele>
        <time>2013-07-14T09:56:01Z</time>
      </trkpt>
      <trkpt lat="46.58082" lon="6.28845">
        <ele>1602.17</ele>
        <time>2013-07-14T09:56:03Z</time>
      </trkpt>
      <trkpt lat="46.58072" lon="6.28843">
        <ele>1602.17</ele>
        <time>2013-07-14T09:56:20Z</time>
      </trkpt>
      <trkpt lat="46.58072" lon="6.28832">
        <ele>1602.17</ele>
        <time>2013-07-14T09:56:43Z</time>
      </trkpt>
      <trkpt lat="46.5808" lon="6.28838">
        <ele>1602.17</ele>
        <time>2013-07-14T09:57:14Z</time>
      </trkpt>
      <trkpt lat="46.5808" lon="6.28839">
        <ele>1602.66</ele>
        <time>2013-07-14T09:57:44Z</time>
      </trkpt>
      <trkpt lat="46.58079" lon="6.28839">
        <ele>1602.66</ele>
        <time>2013-07-14T09:58:24Z</time>
      </trkpt>
      <trkpt lat="46.58079" lon="6.28839">
        <ele>1602.17</ele>
        <time>2013-07-14T09:58:57Z</time>
      </trkpt>
      <trkpt lat="46.58079" lon="6.28839">
        <ele>1600.73</ele>
        <time>2013-07-14T09:59:28Z</time>
      </trkpt>
      <trkpt lat="46.58079" lon="6.28839">
        <ele>1602.66</ele>
        <time>2013-07-14T09:59:30Z</time>
      </trkpt>
      <trkpt lat="46.58081" lon="6.28836">
        <ele>1602.66</ele>
        <time>2013-07-14T09:59:38Z</time>
      </trkpt>
      <trkpt lat="46.58085" lon="6.28829">
        <ele>1601.69</ele>
        <time>2013-07-14T10:00:00Z</time>
      </trkpt>
      <trkpt lat="46.58084" lon="6.28832">
        <ele>1603.14</ele>
        <time>2013-07-14T10:00:04Z</time>
      </trkpt>
      <trkpt lat="46.58069" lon="6.28852">
        <ele>1602.66</ele>
        <time>2013-07-14T10:00:22Z</time>
      </trkpt>
      <trkpt lat="46.58069" lon="6.28847">
        <ele>1602.66</ele>
        <time>2013-07-14T10:00:44Z</time>
      </trkpt>
      <trkpt lat="46.58073" lon="6.28842">
        <ele>1602.66</ele>
        <time>2013-07-14T10:01:05Z</time>
      </trkpt>
      <trkpt lat="46.58074" lon="6.28842">
        <ele>1602.17</ele>
        <time>2013-07-14T10:01:20Z</time>
      </trkpt>
      <trkpt lat="46.58071" lon="6.28843">
        <ele>1602.17</ele>
        <time>2013-07-14T10:01:22Z</time>
      </trkpt>
      <trkpt lat="46.58074" lon="6.28843">
        <ele>1602.66</ele>
        <time>2013-07-14T10:01:44Z</time>
      </trkpt>
      <trkpt lat="46.58075" lon="6.28839">
        <ele>1602.17</ele>
        <time>2013-07-14T10:02:07Z</time>
      </trkpt>
      <trkpt lat="46.5808" lon="6.28846">
        <ele>1602.66</ele>
        <time>2013-07-14T10:02:28Z</time>
      </trkpt>
      <trkpt lat="46.5808" lon="6.28846">
        <ele>1602.66</ele>
        <time>2013-07-14T10:02:32Z</time>
      </trkpt>
      <trkpt lat="46.58079" lon="6.28844">
        <ele>1603.14</ele>
        <time>2013-07-14T10:02:46Z</time>
      </trkpt>
      <trkpt lat="46.58083" lon="6.28831">
        <ele>1598.33</ele>
        <time>2013-07-14T10:03:06Z</time>
      </trkpt>
      <trkpt lat="46.58083" lon="6.28831">
        <ele>1601.21</ele>
        <time>2013-07-14T10:03:07Z</time>
      </trkpt>
      <trkpt lat="46.58082" lon="6.28831">
        <ele>1615.15</ele>
        <time>2013-07-14T10:03:08Z</time>
      </trkpt>
      <trkpt lat="46.58081" lon="6.28831">
        <ele>1605.06</ele>
        <time>2013-07-14T10:03:09Z</time>
      </trkpt>
      <trkpt lat="46.58081" lon="6.28836">
        <ele>1603.62</ele>
        <time>2013-07-14T10:03:25Z</time>
      </trkpt>
      <trkpt lat="46.58081" lon="6.28835">
        <ele>1604.1</ele>
        <time>2013-07-14T10:03:44Z</time>
      </trkpt>
      <trkpt lat="46.58087" lon="6.28826">
        <ele>1601.69</ele>
        <time>2013-07-14T10:03:59Z</time>
      </trkpt>
      <trkpt lat="46.58094" lon="6.28832">
        <ele>1602.66</ele>
        <time>2013-07-14T10:04:10Z</time>
      </trkpt>
      <trkpt lat="46.58106" lon="6.28843">
        <ele>1600.73</ele>
        <time>2013-07-14T10:04:28Z</time>
      </trkpt>
      <trkpt lat="46.58115" lon="6.28853">
        <ele>1599.29</ele>
        <time>2013-07-14T10:04:43Z</time>
      </trkpt>
      <trkpt lat="46.58123" lon="6.28857">
        <ele>1598.33</ele>
        <time>2013-07-14T10:05:00Z</time>
      </trkpt>
      <trkpt lat="46.58131" lon="6.28863">
        <ele>1595.45</ele>
        <time>2013-07-14T10:05:20Z</time>
      </trkpt>
      <trkpt lat="46.58141" lon="6.28864">
        <ele>1593.52</ele>
        <time>2013-07-14T10:05:34Z</time>
      </trkpt>
      <trkpt lat="46.58144" lon="6.28865">
        <ele>1593.52</ele>
        <time>2013-07-14T10:05:40Z</time>
      </trkpt>
      <trkpt lat="46.58155" lon="6.28865">
        <ele>1592.08</ele>
        <time>2013-07-14T10:05:53Z</time>
      </trkpt>
      <trkpt lat="46.58164" lon="6.28875">
        <ele>1591.6</ele>
        <time>2013-07-14T10:06:04Z</time>
      </trkpt>
      <trkpt lat="46.58177" lon="6.28889">
        <ele>1592.08</ele>
        <time>2013-07-14T10:06:19Z</time>
      </trkpt>
      <trkpt lat="46.5818" lon="6.28894">
        <ele>1591.6</ele>
        <time>2013-07-14T10:06:24Z</time>
      </trkpt>
      <trkpt lat="46.58185" lon="6.289">
        <ele>1591.12</ele>
        <time>2013-07-14T10:06:29Z</time>
      </trkpt>
      <trkpt lat="46.58189" lon="6.28902">
        <ele>1591.12</ele>
        <time>2013-07-14T10:06:33Z</time>
      </trkpt>
      <trkpt lat="46.58197" lon="6.2891">
        <ele>1590.16</ele>
        <time>2013-07-14T10:06:45Z</time>
      </trkpt>
      <trkpt lat="46.58213" lon="6.2891">
        <ele>1590.16</ele>
        <time>2013-07-14T10:07:01Z</time>
      </trkpt>
      <trkpt lat="46.58221" lon="6.28926">
        <ele>1587.75</ele>
        <time>2013-07-14T10:07:20Z</time>
      </trkpt>
      <trkpt lat="46.58227" lon="6.28933">
        <ele>1586.31</ele>
        <time>2013-07-14T10:07:37Z</time>
      </trkpt>
      <trkpt lat="46.5823" lon="6.28939">
        <ele>1584.39</ele>
        <time>2013-07-14T10:07:49Z</time>
      </trkpt>
      <trkpt lat="46.58238" lon="6.28957">
        <ele>1582.95</ele>
        <time>2013-07-14T10:08:08Z</time>
      </trkpt>
      <trkpt lat="46.58247" lon="6.28964">
        <ele>1581.03</ele>
        <time>2013-07-14T10:08:24Z</time>
      </trkpt>
      <trkpt lat="46.58272" lon="6.28966">
        <ele>1579.1</ele>
        <time>2013-07-14T10:08:41Z</time>
      </trkpt>
      <trkpt lat="46.5828" lon="6.28977">
        <ele>1577.66</ele>
        <time>2013-07-14T10:08:54Z</time>
      </trkpt>
      <trkpt lat="46.58293" lon="6.28985">
        <ele>1576.7</ele>
        <time>2013-07-14T10:09:11Z</time>
      </trkpt>
      <trkpt lat="46.58306" lon="6.28989">
        <ele>1575.26</ele>
        <time>2013-07-14T10:09:25Z</time>
      </trkpt>
      <trkpt lat="46.5831" lon="6.28997">
        <ele>1574.3</ele>
        <time>2013-07-14T10:09:39Z</time>
      </trkpt>
      <trkpt lat="46.58309" lon="6.29">
        <ele>1573.82</ele>
        <time>2013-07-14T10:09:44Z</time>
      </trkpt>
      <trkpt lat="46.58311" lon="6.29022">
        <ele>1571.41</ele>
        <time>2013-07-14T10:09:59Z</time>
      </trkpt>
      <trkpt lat="46.58318" lon="6.29031">
        <ele>1569.49</ele>
        <time>2013-07-14T10:10:13Z</time>
      </trkpt>
      <trkpt lat="46.58326" lon="6.29039">
        <ele>1568.05</ele>
        <time>2013-07-14T10:10:27Z</time>
      </trkpt>
      <trkpt lat="46.58329" lon="6.29044">
        <ele>1568.05</ele>
        <time>2013-07-14T10:10:31Z</time>
      </trkpt>
      <trkpt lat="46.58337" lon="6.29056">
        <ele>1566.12</ele>
        <time>2013-07-14T10:10:44Z</time>
      </trkpt>
      <trkpt lat="46.58344" lon="6.2907">
        <ele>1564.68</ele>
        <time>2013-07-14T10:10:58Z</time>
      </trkpt>
      <trkpt lat="46.58354" lon="6.29082">
        <ele>1562.76</ele>
        <time>2013-07-14T10:11:11Z</time>
      </trkpt>
      <trkpt lat="46.58367" lon="6.29083">
        <ele>1560.84</ele>
        <time>2013-07-14T10:11:28Z</time>
      </trkpt>
      <trkpt lat="46.58376" lon="6.29091">
        <ele>1557.95</ele>
        <time>2013-07-14T10:11:45Z</time>
      </trkpt>
      <trkpt lat="46.58391" lon="6.29094">
        <ele>1557.95</ele>
        <time>2013-07-14T10:12:02Z</time>
      </trkpt>
      <trkpt lat="46.58396" lon="6.29101">
        <ele>1557.47</ele>
        <time>2013-07-14T10:12:19Z</time>
      </trkpt>
      <trkpt lat="46.58397" lon="6.2911">
        <ele>1557.47</ele>
        <time>2013-07-14T10:12:37Z</time>
      </trkpt>
      <trkpt lat="46.58408" lon="6.2912">
        <ele>1555.55</ele>
        <time>2013-07-14T10:12:51Z</time>
      </trkpt>
      <trkpt lat="46.58414" lon="6.29127">
        <ele>1555.07</ele>
        <time>2013-07-14T10:12:58Z</time>
      </trkpt>
      <trkpt lat="46.58424" lon="6.29141">
        <ele>1554.11</ele>
        <time>2013-07-14T10:13:12Z</time>
      </trkpt>
      <trkpt lat="46.58426" lon="6.29145">
        <ele>1550.26</ele>
        <time>2013-07-14T10:13:18Z</time>
      </trkpt>
      <trkpt lat="46.58426" lon="6.29146">
        <ele>1554.11</ele>
        <time>2013-07-14T10:13:19Z</time>
      </trkpt>
      <trkpt lat="46.58426" lon="6.29146">
        <ele>1546.42</ele>
        <time>2013-07-14T10:13:20Z</time>
      </trkpt>
      <trkpt lat="46.58426" lon="6.29146">
        <ele>1559.4</ele>
        <time>2013-07-14T10:13:21Z</time>
      </trkpt>
      <trkpt lat="46.58427" lon="6.29147">
        <ele>1554.11</ele>
        <time>2013-07-14T10:13:22Z</time>
      </trkpt>
      <trkpt lat="46.5843" lon="6.29158">
        <ele>1553.15</ele>
        <time>2013-07-14T10:13:36Z</time>
      </trkpt>
      <trkpt lat="46.58438" lon="6.29169">
        <ele>1552.19</ele>
        <time>2013-07-14T10:13:51Z</time>
      </trkpt>
      <trkpt lat="46.58439" lon="6.29169">
        <ele>1551.71</ele>
        <time>2013-07-14T10:13:52Z</time>
      </trkpt>
      <trkpt lat="46.58451" lon="6.29178">
        <ele>1550.26</ele>
        <time>2013-07-14T10:14:07Z</time>
      </trkpt>
      <trkpt lat="46.58467" lon="6.29196">
        <ele>1547.86</ele>
        <time>2013-07-14T10:14:24Z</time>
      </trkpt>
      <trkpt lat="46.58474" lon="6.29223">
        <ele>1548.82</ele>
        <time>2013-07-14T10:14:43Z</time>
      </trkpt>
      <trkpt lat="46.58478" lon="6.29229">
        <ele>1545.94</ele>
        <time>2013-07-14T10:15:00Z</time>
      </trkpt>
      <trkpt lat="46.58487" lon="6.29225">
        <ele>1545.94</ele>
        <time>2013-07-14T10:15:18Z</time>
      </trkpt>
      <trkpt lat="46.5849" lon="6.29222">
        <ele>1545.94</ele>
        <time>2013-07-14T10:15:41Z</time>
      </trkpt>
      <trkpt lat="46.58491" lon="6.29217">
        <ele>1545.94</ele>
        <time>2013-07-14T10:16:03Z</time>
      </trkpt>
      <trkpt lat="46.58492" lon="6.29212">
        <ele>1545.46</ele>
        <time>2013-07-14T10:16:24Z</time>
      </trkpt>
      <trkpt lat="46.58492" lon="6.2921">
        <ele>1545.94</ele>
        <time>2013-07-14T10:16:53Z</time>
      </trkpt>
      <trkpt lat="46.58493" lon="6.29208">
        <ele>1545.46</ele>
        <time>2013-07-14T10:17:26Z</time>
      </trkpt>
      <trkpt lat="46.58497" lon="6.29206">
        <ele>1546.42</ele>
        <time>2013-07-14T10:17:50Z</time>
      </trkpt>
      <trkpt lat="46.58506" lon="6.29215">
        <ele>1544.01</ele>
        <time>2013-07-14T10:18:07Z</time>
      </trkpt>
      <trkpt lat="46.58516" lon="6.29225">
        <ele>1541.61</ele>
        <time>2013-07-14T10:18:22Z</time>
      </trkpt>
      <trkpt lat="46.58527" lon="6.29232">
        <ele>1540.65</ele>
        <time>2013-07-14T10:18:41Z</time>
      </trkpt>
      <trkpt lat="46.58536" lon="6.29239">
        <ele>1541.61</ele>
        <time>2013-07-14T10:18:55Z</time>
      </trkpt>
      <trkpt lat="46.58541" lon="6.29255">
        <ele>1541.61</ele>
        <time>2013-07-14T10:19:13Z</time>
      </trkpt>
      <trkpt lat="46.58549" lon="6.2926">
        <ele>1540.17</ele>
        <time>2013-07-14T10:19:30Z</time>
      </trkpt>
      <trkpt lat="46.58563" lon="6.2927">
        <ele>1539.69</ele>
        <time>2013-07-14T10:19:49Z</time>
      </trkpt>
      <trkpt lat="46.58567" lon="6.29289">
        <ele>1537.29</ele>
        <time>2013-07-14T10:20:09Z</time>
      </trkpt>
      <trkpt lat="46.58574" lon="6.29304">
        <ele>1537.29</ele>
        <time>2013-07-14T10:20:19Z</time>
      </trkpt>
      <trkpt lat="46.58585" lon="6.29314">
        <ele>1534.88</ele>
        <time>2013-07-14T10:20:31Z</time>
      </trkpt>
      <trkpt lat="46.586" lon="6.29316">
        <ele>1532.96</ele>
        <time>2013-07-14T10:20:47Z</time>
      </trkpt>
      <trkpt lat="46.58607" lon="6.29329">
        <ele>1532</ele>
        <time>2013-07-14T10:20:59Z</time>
      </trkpt>
      <trkpt lat="46.58619" lon="6.29352">
        <ele>1530.56</ele>
        <time>2013-07-14T10:21:12Z</time>
      </trkpt>
      <trkpt lat="46.58621" lon="6.29368">
        <ele>1530.56</ele>
        <time>2013-07-14T10:21:28Z</time>
      </trkpt>
      <trkpt lat="46.58628" lon="6.29379">
        <ele>1530.56</ele>
        <time>2013-07-14T10:21:41Z</time>
      </trkpt>
      <trkpt lat="46.58632" lon="6.29382">
        <ele>1530.08</ele>
        <time>2013-07-14T10:21:45Z</time>
      </trkpt>
      <trkpt lat="46.58638" lon="6.29395">
        <ele>1530.56</ele>
        <time>2013-07-14T10:21:52Z</time>
      </trkpt>
      <trkpt lat="46.58642" lon="6.29402">
        <ele>1530.56</ele>
        <time>2013-07-14T10:21:55Z</time>
      </trkpt>
      <trkpt lat="46.58647" lon="6.29415">
        <ele>1532</ele>
        <time>2013-07-14T10:22:05Z</time>
      </trkpt>
      <trkpt lat="46.5865" lon="6.29416">
        <ele>1532</ele>
        <time>2013-07-14T10:22:09Z</time>
      </trkpt>
      <trkpt lat="46.58661" lon="6.29428">
        <ele>1532.48</ele>
        <time>2013-07-14T10:22:21Z</time>
      </trkpt>
      <trkpt lat="46.58666" lon="6.29435">
        <ele>1534.4</ele>
        <time>2013-07-14T10:22:28Z</time>
      </trkpt>
      <trkpt lat="46.58675" lon="6.29436">
        <ele>1534.4</ele>
        <time>2013-07-14T10:22:43Z</time>
      </trkpt>
      <trkpt lat="46.58684" lon="6.29447">
        <ele>1536.32</ele>
        <time>2013-07-14T10:22:59Z</time>
      </trkpt>
      <trkpt lat="46.58699" lon="6.29462">
        <ele>1538.25</ele>
        <time>2013-07-14T10:23:17Z</time>
      </trkpt>
      <trkpt lat="46.58709" lon="6.29471">
        <ele>1541.61</ele>
        <time>2013-07-14T10:23:34Z</time>
      </trkpt>
      <trkpt lat="46.58718" lon="6.29473">
        <ele>1541.61</ele>
        <time>2013-07-14T10:23:50Z</time>
      </trkpt>
      <trkpt lat="46.58726" lon="6.29475">
        <ele>1542.09</ele>
        <time>2013-07-14T10:24:05Z</time>
      </trkpt>
      <trkpt lat="46.58728" lon="6.29477">
        <ele>1543.53</ele>
        <time>2013-07-14T10:24:08Z</time>
      </trkpt>
      <trkpt lat="46.58732" lon="6.29479">
        <ele>1544.01</ele>
        <time>2013-07-14T10:24:12Z</time>
      </trkpt>
      <trkpt lat="46.58735" lon="6.29483">
        <ele>1544.98</ele>
        <time>2013-07-14T10:24:15Z</time>
      </trkpt>
      <trkpt lat="46.58739" lon="6.2949">
        <ele>1545.46</ele>
        <time>2013-07-14T10:24:19Z</time>
      </trkpt>
      <trkpt lat="46.58752" lon="6.29497">
        <ele>1546.42</ele>
        <time>2013-07-14T10:24:34Z</time>
      </trkpt>
      <trkpt lat="46.58764" lon="6.29512">
        <ele>1549.3</ele>
        <time>2013-07-14T10:24:50Z</time>
      </trkpt>
      <trkpt lat="46.58771" lon="6.29518">
        <ele>1548.82</ele>
        <time>2013-07-14T10:25:02Z</time>
      </trkpt>
      <trkpt lat="46.58772" lon="6.2952">
        <ele>1550.74</ele>
        <time>2013-07-14T10:25:05Z</time>
      </trkpt>
      <trkpt lat="46.58777" lon="6.29521">
        <ele>1551.71</ele>
        <time>2013-07-14T10:25:10Z</time>
      </trkpt>
      <trkpt lat="46.58781" lon="6.29523">
        <ele>1552.19</ele>
        <time>2013-07-14T10:25:14Z</time>
      </trkpt>
      <trkpt lat="46.58789" lon="6.29527">
        <ele>1553.15</ele>
        <time>2013-07-14T10:25:28Z</time>
      </trkpt>
      <trkpt lat="46.58792" lon="6.29531">
        <ele>1554.59</ele>
        <time>2013-07-14T10:25:34Z</time>
      </trkpt>
      <trkpt lat="46.58802" lon="6.29549">
        <ele>1554.59</ele>
        <time>2013-07-14T10:25:48Z</time>
      </trkpt>
      <trkpt lat="46.58811" lon="6.29558">
        <ele>1554.11</ele>
        <time>2013-07-14T10:26:00Z</time>
      </trkpt>
      <trkpt lat="46.58816" lon="6.29563">
        <ele>1555.07</ele>
        <time>2013-07-14T10:26:10Z</time>
      </trkpt>
      <trkpt lat="46.58817" lon="6.29567">
        <ele>1554.59</ele>
        <time>2013-07-14T10:26:15Z</time>
      </trkpt>
      <trkpt lat="46.5883" lon="6.2958">
        <ele>1554.59</ele>
        <time>2013-07-14T10:26:29Z</time>
      </trkpt>
      <trkpt lat="46.58836" lon="6.2959">
        <ele>1554.59</ele>
        <time>2013-07-14T10:26:37Z</time>
      </trkpt>
      <trkpt lat="46.5884" lon="6.29603">
        <ele>1554.11</ele>
        <time>2013-07-14T10:26:46Z</time>
      </trkpt>
      <trkpt lat="46.58846" lon="6.29612">
        <ele>1553.15</ele>
        <time>2013-07-14T10:26:55Z</time>
      </trkpt>
      <trkpt lat="46.5885" lon="6.29627">
        <ele>1553.63</ele>
        <time>2013-07-14T10:27:02Z</time>
      </trkpt>
      <trkpt lat="46.58861" lon="6.29644">
        <ele>1555.55</ele>
        <time>2013-07-14T10:27:16Z</time>
      </trkpt>
      <trkpt lat="46.58874" lon="6.2965">
        <ele>1555.55</ele>
        <time>2013-07-14T10:27:30Z</time>
      </trkpt>
      <trkpt lat="46.58879" lon="6.29647">
        <ele>1555.07</ele>
        <time>2013-07-14T10:27:38Z</time>
      </trkpt>
      <trkpt lat="46.58883" lon="6.29651">
        <ele>1556.51</ele>
        <time>2013-07-14T10:27:43Z</time>
      </trkpt>
      <trkpt lat="46.58887" lon="6.29655">
        <ele>1556.03</ele>
        <time>2013-07-14T10:27:47Z</time>
      </trkpt>
      <trkpt lat="46.58889" lon="6.29657">
        <ele>1556.51</ele>
        <time>2013-07-14T10:27:49Z</time>
      </trkpt>
      <trkpt lat="46.58897" lon="6.29671">
        <ele>1557.47</ele>
        <time>2013-07-14T10:28:00Z</time>
      </trkpt>
      <trkpt lat="46.58899" lon="6.29681">
        <ele>1556.99</ele>
        <time>2013-07-14T10:28:05Z</time>
      </trkpt>
      <trkpt lat="46.5891" lon="6.29685">
        <ele>1557.47</ele>
        <time>2013-07-14T10:28:19Z</time>
      </trkpt>
      <trkpt lat="46.5892" lon="6.29689">
        <ele>1557.95</ele>
        <time>2013-07-14T10:28:28Z</time>
      </trkpt>
      <trkpt lat="46.58934" lon="6.29705">
        <ele>1559.88</ele>
        <time>2013-07-14T10:28:46Z</time>
      </trkpt>
      <trkpt lat="46.58939" lon="6.29708">
        <ele>1560.84</ele>
        <time>2013-07-14T10:28:52Z</time>
      </trkpt>
      <trkpt lat="46.58951" lon="6.29723">
        <ele>1560.84</ele>
        <time>2013-07-14T10:29:08Z</time>
      </trkpt>
      <trkpt lat="46.58955" lon="6.29728">
        <ele>1560.84</ele>
        <time>2013-07-14T10:29:13Z</time>
      </trkpt>
      <trkpt lat="46.58964" lon="6.29733">
        <ele>1561.8</ele>
        <time>2013-07-14T10:29:21Z</time>
      </trkpt>
      <trkpt lat="46.5897" lon="6.29739">
        <ele>1560.36</ele>
        <time>2013-07-14T10:29:27Z</time>
      </trkpt>
      <trkpt lat="46.58975" lon="6.29744">
        <ele>1561.32</ele>
        <time>2013-07-14T10:29:32Z</time>
      </trkpt>
      <trkpt lat="46.58978" lon="6.2975">
        <ele>1560.84</ele>
        <time>2013-07-14T10:29:37Z</time>
      </trkpt>
      <trkpt lat="46.58995" lon="6.29763">
        <ele>1559.88</ele>
        <time>2013-07-14T10:29:53Z</time>
      </trkpt>
      <trkpt lat="46.58999" lon="6.29766">
        <ele>1559.4</ele>
        <time>2013-07-14T10:29:58Z</time>
      </trkpt>
      <trkpt lat="46.59008" lon="6.29779">
        <ele>1560.36</ele>
        <time>2013-07-14T10:30:08Z</time>
      </trkpt>
      <trkpt lat="46.59015" lon="6.2978">
        <ele>1559.88</ele>
        <time>2013-07-14T10:30:23Z</time>
      </trkpt>
      <trkpt lat="46.59015" lon="6.29777">
        <ele>1559.88</ele>
        <time>2013-07-14T10:30:28Z</time>
      </trkpt>
      <trkpt lat="46.59017" lon="6.29779">
        <ele>1559.88</ele>
        <time>2013-07-14T10:30:33Z</time>
      </trkpt>
      <trkpt lat="46.59021" lon="6.29782">
        <ele>1560.36</ele>
        <time>2013-07-14T10:30:38Z</time>
      </trkpt>
      <trkpt lat="46.59032" lon="6.29803">
        <ele>1560.84</ele>
        <time>2013-07-14T10:30:53Z</time>
      </trkpt>
      <trkpt lat="46.59044" lon="6.29825">
        <ele>1561.32</ele>
        <time>2013-07-14T10:31:06Z</time>
      </trkpt>
      <trkpt lat="46.59052" lon="6.29834">
        <ele>1561.8</ele>
        <time>2013-07-14T10:31:14Z</time>
      </trkpt>
      <trkpt lat="46.5906" lon="6.29839">
        <ele>1560.84</ele>
        <time>2013-07-14T10:31:20Z</time>
      </trkpt>
      <trkpt lat="46.59061" lon="6.29841">
        <ele>1562.28</ele>
        <time>2013-07-14T10:31:22Z</time>
      </trkpt>
      <trkpt lat="46.59074" lon="6.29855">
        <ele>1562.76</ele>
        <time>2013-07-14T10:31:36Z</time>
      </trkpt>
      <trkpt lat="46.59085" lon="6.2987">
        <ele>1563.24</ele>
        <time>2013-07-14T10:31:49Z</time>
      </trkpt>
      <trkpt lat="46.59098" lon="6.29881">
        <ele>1563.72</ele>
        <time>2013-07-14T10:32:02Z</time>
      </trkpt>
      <trkpt lat="46.591" lon="6.29884">
        <ele>1564.2</ele>
        <time>2013-07-14T10:32:05Z</time>
      </trkpt>
      <trkpt lat="46.59114" lon="6.29897">
        <ele>1565.16</ele>
        <time>2013-07-14T10:32:19Z</time>
      </trkpt>
      <trkpt lat="46.59127" lon="6.29904">
        <ele>1565.64</ele>
        <time>2013-07-14T10:32:32Z</time>
      </trkpt>
      <trkpt lat="46.59127" lon="6.29904">
        <ele>1565.64</ele>
        <time>2013-07-14T10:32:58Z</time>
      </trkpt>
      <trkpt lat="46.5913" lon="6.29908">
        <ele>1565.64</ele>
        <time>2013-07-14T10:33:13Z</time>
      </trkpt>
      <trkpt lat="46.59129" lon="6.2991">
        <ele>1565.64</ele>
        <time>2013-07-14T10:33:43Z</time>
      </trkpt>
      <trkpt lat="46.59133" lon="6.29908">
        <ele>1565.64</ele>
        <time>2013-07-14T10:33:48Z</time>
      </trkpt>
      <trkpt lat="46.59143" lon="6.29919">
        <ele>1566.61</ele>
        <time>2013-07-14T10:34:02Z</time>
      </trkpt>
      <trkpt lat="46.59145" lon="6.29923">
        <ele>1566.12</ele>
        <time>2013-07-14T10:34:06Z</time>
      </trkpt>
      <trkpt lat="46.5915" lon="6.29943">
        <ele>1567.57</ele>
        <time>2013-07-14T10:34:19Z</time>
      </trkpt>
      <trkpt lat="46.59154" lon="6.2995">
        <ele>1567.57</ele>
        <time>2013-07-14T10:34:25Z</time>
      </trkpt>
      <trkpt lat="46.59164" lon="6.29969">
        <ele>1569.49</ele>
        <time>2013-07-14T10:34:41Z</time>
      </trkpt>
      <trkpt lat="46.59167" lon="6.29975">
        <ele>1569.49</ele>
        <time>2013-07-14T10:34:48Z</time>
      </trkpt>
      <trkpt lat="46.59174" lon="6.29989">
        <ele>1572.85</ele>
        <time>2013-07-14T10:35:04Z</time>
      </trkpt>
      <trkpt lat="46.59178" lon="6.30007">
        <ele>1574.3</ele>
        <time>2013-07-14T10:35:20Z</time>
      </trkpt>
      <trkpt lat="46.59192" lon="6.30017">
        <ele>1575.26</ele>
        <time>2013-07-14T10:35:34Z</time>
      </trkpt>
      <trkpt lat="46.59203" lon="6.30025">
        <ele>1576.7</ele>
        <time>2013-07-14T10:35:47Z</time>
      </trkpt>
      <trkpt lat="46.59212" lon="6.30033">
        <ele>1579.1</ele>
        <time>2013-07-14T10:36:01Z</time>
      </trkpt>
      <trkpt lat="46.59212" lon="6.30033">
        <ele>1572.85</ele>
        <time>2013-07-14T10:36:07Z</time>
      </trkpt>
      <trkpt lat="46.59212" lon="6.30033">
        <ele>1577.66</ele>
        <time>2013-07-14T10:36:08Z</time>
      </trkpt>
      <trkpt lat="46.59212" lon="6.30033">
        <ele>1586.79</ele>
        <time>2013-07-14T10:36:09Z</time>
      </trkpt>
      <trkpt lat="46.59213" lon="6.30033">
        <ele>1580.54</ele>
        <time>2013-07-14T10:36:10Z</time>
      </trkpt>
      <trkpt lat="46.59214" lon="6.30035">
        <ele>1579.1</ele>
        <time>2013-07-14T10:36:12Z</time>
      </trkpt>
      <trkpt lat="46.59215" lon="6.30035">
        <ele>1580.06</ele>
        <time>2013-07-14T10:36:13Z</time>
      </trkpt>
      <trkpt lat="46.59221" lon="6.30042">
        <ele>1580.06</ele>
        <time>2013-07-14T10:36:22Z</time>
      </trkpt>
      <trkpt lat="46.59228" lon="6.30057">
        <ele>1581.99</ele>
        <time>2013-07-14T10:36:37Z</time>
      </trkpt>
      <trkpt lat="46.59228" lon="6.30057">
        <ele>1581.99</ele>
        <time>2013-07-14T10:36:58Z</time>
      </trkpt>
      <trkpt lat="46.59229" lon="6.30061">
        <ele>1581.51</ele>
        <time>2013-07-14T10:37:14Z</time>
      </trkpt>
      <trkpt lat="46.59233" lon="6.30071">
        <ele>1582.95</ele>
        <time>2013-07-14T10:37:23Z</time>
      </trkpt>
      <trkpt lat="46.59237" lon="6.30075">
        <ele>1584.87</ele>
        <time>2013-07-14T10:37:32Z</time>
      </trkpt>
      <trkpt lat="46.59238" lon="6.30079">
        <ele>1582.95</ele>
        <time>2013-07-14T10:37:35Z</time>
      </trkpt>
      <trkpt lat="46.5924" lon="6.30082">
        <ele>1584.39</ele>
        <time>2013-07-14T10:37:37Z</time>
      </trkpt>
      <trkpt lat="46.59243" lon="6.30085">
        <ele>1583.91</ele>
        <time>2013-07-14T10:37:41Z</time>
      </trkpt>
      <trkpt lat="46.59247" lon="6.30086">
        <ele>1584.39</ele>
        <time>2013-07-14T10:37:47Z</time>
      </trkpt>
      <trkpt lat="46.59249" lon="6.30087">
        <ele>1584.39</ele>
        <time>2013-07-14T10:37:49Z</time>
      </trkpt>
      <trkpt lat="46.59254" lon="6.30095">
        <ele>1584.87</ele>
        <time>2013-07-14T10:38:00Z</time>
      </trkpt>
      <trkpt lat="46.5926" lon="6.3011">
        <ele>1586.31</ele>
        <time>2013-07-14T10:38:12Z</time>
      </trkpt>
      <trkpt lat="46.59265" lon="6.3012">
        <ele>1586.79</ele>
        <time>2013-07-14T10:38:22Z</time>
      </trkpt>
      <trkpt lat="46.59269" lon="6.30126">
        <ele>1585.83</ele>
        <time>2013-07-14T10:38:37Z</time>
      </trkpt>
      <trkpt lat="46.59273" lon="6.30132">
        <ele>1586.31</ele>
        <time>2013-07-14T10:38:44Z</time>
      </trkpt>
      <trkpt lat="46.59278" lon="6.30147">
        <ele>1585.83</ele>
        <time>2013-07-14T10:39:00Z</time>
      </trkpt>
      <trkpt lat="46.59273" lon="6.30161">
        <ele>1585.83</ele>
        <time>2013-07-14T10:39:13Z</time>
      </trkpt>
      <trkpt lat="46.59278" lon="6.30177">
        <ele>1586.31</ele>
        <time>2013-07-14T10:39:28Z</time>
      </trkpt>
      <trkpt lat="46.59278" lon="6.30178">
        <ele>1586.79</ele>
        <time>2013-07-14T10:39:41Z</time>
      </trkpt>
      <trkpt lat="46.5928" lon="6.3018">
        <ele>1587.75</ele>
        <time>2013-07-14T10:39:43Z</time>
      </trkpt>
      <trkpt lat="46.59286" lon="6.30192">
        <ele>1586.79</ele>
        <time>2013-07-14T10:39:55Z</time>
      </trkpt>
      <trkpt lat="46.59286" lon="6.30192">
        <ele>1586.31</ele>
        <time>2013-07-14T10:40:21Z</time>
      </trkpt>
      <trkpt lat="46.59286" lon="6.30196">
        <ele>1587.27</ele>
        <time>2013-07-14T10:40:30Z</time>
      </trkpt>
      <trkpt lat="46.59287" lon="6.30214">
        <ele>1587.75</ele>
        <time>2013-07-14T10:40:44Z</time>
      </trkpt>
      <trkpt lat="46.59287" lon="6.30216">
        <ele>1588.24</ele>
        <time>2013-07-14T10:40:46Z</time>
      </trkpt>
      <trkpt lat="46.59289" lon="6.30233">
        <ele>1591.12</ele>
        <time>2013-07-14T10:40:59Z</time>
      </trkpt>
      <trkpt lat="46.59291" lon="6.30244">
        <ele>1591.6</ele>
        <time>2013-07-14T10:41:12Z</time>
      </trkpt>
      <trkpt lat="46.59292" lon="6.30245">
        <ele>1592.56</ele>
        <time>2013-07-14T10:41:26Z</time>
      </trkpt>
      <trkpt lat="46.59291" lon="6.30258">
        <ele>1593.04</ele>
        <time>2013-07-14T10:41:35Z</time>
      </trkpt>
      <trkpt lat="46.59295" lon="6.30275">
        <ele>1594.48</ele>
        <time>2013-07-14T10:41:48Z</time>
      </trkpt>
      <trkpt lat="46.59295" lon="6.30287">
        <ele>1595.45</ele>
        <time>2013-07-14T10:42:02Z</time>
      </trkpt>
      <trkpt lat="46.59296" lon="6.3029">
        <ele>1598.81</ele>
        <time>2013-07-14T10:42:07Z</time>
      </trkpt>
      <trkpt lat="46.59296" lon="6.30299">
        <ele>1599.77</ele>
        <time>2013-07-14T10:42:19Z</time>
      </trkpt>
      <trkpt lat="46.59295" lon="6.30306">
        <ele>1601.21</ele>
        <time>2013-07-14T10:42:33Z</time>
      </trkpt>
      <trkpt lat="46.59296" lon="6.30307">
        <ele>1602.17</ele>
        <time>2013-07-14T10:43:00Z</time>
      </trkpt>
      <trkpt lat="46.59298" lon="6.30315">
        <ele>1604.1</ele>
        <time>2013-07-14T10:43:07Z</time>
      </trkpt>
      <trkpt lat="46.59298" lon="6.30324">
        <ele>1603.14</ele>
        <time>2013-07-14T10:43:22Z</time>
      </trkpt>
      <trkpt lat="46.59298" lon="6.30324">
        <ele>1602.66</ele>
        <time>2013-07-14T10:43:25Z</time>
      </trkpt>
      <trkpt lat="46.59301" lon="6.30334">
        <ele>1605.06</ele>
        <time>2013-07-14T10:43:38Z</time>
      </trkpt>
      <trkpt lat="46.59304" lon="6.30344">
        <ele>1604.58</ele>
        <time>2013-07-14T10:43:52Z</time>
      </trkpt>
      <trkpt lat="46.59305" lon="6.30353">
        <ele>1606.02</ele>
        <time>2013-07-14T10:44:06Z</time>
      </trkpt>
      <trkpt lat="46.59307" lon="6.30363">
        <ele>1607.94</ele>
        <time>2013-07-14T10:44:18Z</time>
      </trkpt>
      <trkpt lat="46.59307" lon="6.30364">
        <ele>1607.46</ele>
        <time>2013-07-14T10:44:19Z</time>
      </trkpt>
      <trkpt lat="46.59309" lon="6.30374">
        <ele>1608.42</ele>
        <time>2013-07-14T10:44:26Z</time>
      </trkpt>
      <trkpt lat="46.59311" lon="6.30387">
        <ele>1610.35</ele>
        <time>2013-07-14T10:44:39Z</time>
      </trkpt>
      <trkpt lat="46.59314" lon="6.304">
        <ele>1611.79</ele>
        <time>2013-07-14T10:44:52Z</time>
      </trkpt>
      <trkpt lat="46.59314" lon="6.30403">
        <ele>1608.42</ele>
        <time>2013-07-14T10:44:57Z</time>
      </trkpt>
      <trkpt lat="46.59314" lon="6.30403">
        <ele>1611.79</ele>
        <time>2013-07-14T10:44:58Z</time>
      </trkpt>
      <trkpt lat="46.59315" lon="6.30414">
        <ele>1614.19</ele>
        <time>2013-07-14T10:45:12Z</time>
      </trkpt>
      <trkpt lat="46.59319" lon="6.30429">
        <ele>1615.63</ele>
        <time>2013-07-14T10:45:26Z</time>
      </trkpt>
      <trkpt lat="46.59321" lon="6.30433">
        <ele>1615.63</ele>
        <time>2013-07-14T10:45:30Z</time>
      </trkpt>
      <trkpt lat="46.5932" lon="6.30446">
        <ele>1616.59</ele>
        <time>2013-07-14T10:45:43Z</time>
      </trkpt>
      <trkpt lat="46.59322" lon="6.30461">
        <ele>1619.48</ele>
        <time>2013-07-14T10:45:57Z</time>
      </trkpt>
      <trkpt lat="46.59325" lon="6.30469">
        <ele>1619.96</ele>
        <time>2013-07-14T10:46:03Z</time>
      </trkpt>
      <trkpt lat="46.59326" lon="6.30477">
        <ele>1620.44</ele>
        <time>2013-07-14T10:46:18Z</time>
      </trkpt>
      <trkpt lat="46.59326" lon="6.30479">
        <ele>1620.44</ele>
        <time>2013-07-14T10:46:20Z</time>
      </trkpt>
      <trkpt lat="46.59326" lon="6.30482">
        <ele>1620.92</ele>
        <time>2013-07-14T10:46:22Z</time>
      </trkpt>
      <trkpt lat="46.59328" lon="6.30489">
        <ele>1620.92</ele>
        <time>2013-07-14T10:46:33Z</time>
      </trkpt>
      <trkpt lat="46.59329" lon="6.30501">
        <ele>1622.84</ele>
        <time>2013-07-14T10:46:44Z</time>
      </trkpt>
      <trkpt lat="46.59329" lon="6.30516">
        <ele>1623.8</ele>
        <time>2013-07-14T10:46:54Z</time>
      </trkpt>
      <trkpt lat="46.59327" lon="6.30525">
        <ele>1626.21</ele>
        <time>2013-07-14T10:47:03Z</time>
      </trkpt>
      <trkpt lat="46.59329" lon="6.30529">
        <ele>1626.21</ele>
        <time>2013-07-14T10:47:06Z</time>
      </trkpt>
      <trkpt lat="46.59331" lon="6.30543">
        <ele>1628.13</ele>
        <time>2013-07-14T10:47:21Z</time>
      </trkpt>
      <trkpt lat="46.59334" lon="6.30554">
        <ele>1630.53</ele>
        <time>2013-07-14T10:47:36Z</time>
      </trkpt>
      <trkpt lat="46.59335" lon="6.30558">
        <ele>1630.05</ele>
        <time>2013-07-14T10:47:50Z</time>
      </trkpt>
      <trkpt lat="46.59335" lon="6.30557">
        <ele>1630.05</ele>
        <time>2013-07-14T10:48:07Z</time>
      </trkpt>
      <trkpt lat="46.59334" lon="6.3056">
        <ele>1631.49</ele>
        <time>2013-07-14T10:48:22Z</time>
      </trkpt>
      <trkpt lat="46.59335" lon="6.30566">
        <ele>1630.53</ele>
        <time>2013-07-14T10:48:34Z</time>
      </trkpt>
      <trkpt lat="46.59336" lon="6.30576">
        <ele>1631.01</ele>
        <time>2013-07-14T10:48:42Z</time>
      </trkpt>
      <trkpt lat="46.59335" lon="6.30595">
        <ele>1633.42</ele>
        <time>2013-07-14T10:48:57Z</time>
      </trkpt>
      <trkpt lat="46.59338" lon="6.30612">
        <ele>1633.9</ele>
        <time>2013-07-14T10:49:13Z</time>
      </trkpt>
      <trkpt lat="46.59339" lon="6.30614">
        <ele>1635.82</ele>
        <time>2013-07-14T10:49:15Z</time>
      </trkpt>
      <trkpt lat="46.59339" lon="6.30615">
        <ele>1636.78</ele>
        <time>2013-07-14T10:49:17Z</time>
      </trkpt>
      <trkpt lat="46.5934" lon="6.30619">
        <ele>1635.34</ele>
        <time>2013-07-14T10:49:21Z</time>
      </trkpt>
      <trkpt lat="46.5934" lon="6.30619">
        <ele>1638.7</ele>
        <time>2013-07-14T10:49:22Z</time>
      </trkpt>
      <trkpt lat="46.5934" lon="6.30619">
        <ele>1635.82</ele>
        <time>2013-07-14T10:49:23Z</time>
      </trkpt>
      <trkpt lat="46.5934" lon="6.30619">
        <ele>1636.78</ele>
        <time>2013-07-14T10:49:26Z</time>
      </trkpt>
      <trkpt lat="46.59341" lon="6.30622">
        <ele>1637.74</ele>
        <time>2013-07-14T10:49:29Z</time>
      </trkpt>
      <trkpt lat="46.5935" lon="6.30638">
        <ele>1637.26</ele>
        <time>2013-07-14T10:49:41Z</time>
      </trkpt>
      <trkpt lat="46.59353" lon="6.30649">
        <ele>1636.3</ele>
        <time>2013-07-14T10:49:53Z</time>
      </trkpt>
      <trkpt lat="46.59358" lon="6.30654">
        <ele>1635.34</ele>
        <time>2013-07-14T10:49:58Z</time>
      </trkpt>
      <trkpt lat="46.59359" lon="6.30657">
        <ele>1635.82</ele>
        <time>2013-07-14T10:50:01Z</time>
      </trkpt>
      <trkpt lat="46.59357" lon="6.30668">
        <ele>1634.38</ele>
        <time>2013-07-14T10:50:14Z</time>
      </trkpt>
      <trkpt lat="46.59358" lon="6.30673">
        <ele>1632.94</ele>
        <time>2013-07-14T10:50:26Z</time>
      </trkpt>
      <trkpt lat="46.5936" lon="6.30676">
        <ele>1632.94</ele>
        <time>2013-07-14T10:50:28Z</time>
      </trkpt>
      <trkpt lat="46.59361" lon="6.3068">
        <ele>1631.98</ele>
        <time>2013-07-14T10:50:31Z</time>
      </trkpt>
      <trkpt lat="46.59369" lon="6.30689">
        <ele>1631.98</ele>
        <time>2013-07-14T10:50:42Z</time>
      </trkpt>
      <trkpt lat="46.59378" lon="6.30704">
        <ele>1630.53</ele>
        <time>2013-07-14T10:50:56Z</time>
      </trkpt>
      <trkpt lat="46.59379" lon="6.30705">
        <ele>1631.01</ele>
        <time>2013-07-14T10:50:58Z</time>
      </trkpt>
      <trkpt lat="46.59385" lon="6.30716">
        <ele>1629.57</ele>
        <time>2013-07-14T10:51:10Z</time>
      </trkpt>
      <trkpt lat="46.59387" lon="6.30719">
        <ele>1627.17</ele>
        <time>2013-07-14T10:51:14Z</time>
      </trkpt>
      <trkpt lat="46.59387" lon="6.30726">
        <ele>1629.57</ele>
        <time>2013-07-14T10:51:18Z</time>
      </trkpt>
      <trkpt lat="46.59388" lon="6.30737">
        <ele>1625.25</ele>
        <time>2013-07-14T10:51:25Z</time>
      </trkpt>
      <trkpt lat="46.59388" lon="6.30738">
        <ele>1631.98</ele>
        <time>2013-07-14T10:51:26Z</time>
      </trkpt>
      <trkpt lat="46.5939" lon="6.30748">
        <ele>1632.94</ele>
        <time>2013-07-14T10:51:34Z</time>
      </trkpt>
      <trkpt lat="46.5939" lon="6.30749">
        <ele>1631.98</ele>
        <time>2013-07-14T10:51:35Z</time>
      </trkpt>
      <trkpt lat="46.59391" lon="6.30752">
        <ele>1630.53</ele>
        <time>2013-07-14T10:51:38Z</time>
      </trkpt>
      <trkpt lat="46.59393" lon="6.30762">
        <ele>1634.38</ele>
        <time>2013-07-14T10:51:47Z</time>
      </trkpt>
      <trkpt lat="46.59391" lon="6.30781">
        <ele>1633.42</ele>
        <time>2013-07-14T10:51:59Z</time>
      </trkpt>
      <trkpt lat="46.59393" lon="6.30789">
        <ele>1635.82</ele>
        <time>2013-07-14T10:52:08Z</time>
      </trkpt>
      <trkpt lat="46.59393" lon="6.308">
        <ele>1639.67</ele>
        <time>2013-07-14T10:52:21Z</time>
      </trkpt>
      <trkpt lat="46.59393" lon="6.308">
        <ele>1639.19</ele>
        <time>2013-07-14T10:52:22Z</time>
      </trkpt>
      <trkpt lat="46.59392" lon="6.30805">
        <ele>1639.67</ele>
        <time>2013-07-14T10:52:25Z</time>
      </trkpt>
      <trkpt lat="46.59393" lon="6.30811">
        <ele>1639.19</ele>
        <time>2013-07-14T10:52:30Z</time>
      </trkpt>
      <trkpt lat="46.59393" lon="6.30814">
        <ele>1640.63</ele>
        <time>2013-07-14T10:52:32Z</time>
      </trkpt>
      <trkpt lat="46.59393" lon="6.30822">
        <ele>1639.67</ele>
        <time>2013-07-14T10:52:44Z</time>
      </trkpt>
      <trkpt lat="46.59394" lon="6.30824">
        <ele>1640.63</ele>
        <time>2013-07-14T10:52:58Z</time>
      </trkpt>
      <trkpt lat="46.59393" lon="6.30824">
        <ele>1639.67</ele>
        <time>2013-07-14T10:53:20Z</time>
      </trkpt>
      <trkpt lat="46.59392" lon="6.30828">
        <ele>1640.15</ele>
        <time>2013-07-14T10:53:34Z</time>
      </trkpt>
      <trkpt lat="46.59393" lon="6.30831">
        <ele>1641.11</ele>
        <time>2013-07-14T10:53:47Z</time>
      </trkpt>
      <trkpt lat="46.59395" lon="6.30836">
        <ele>1641.11</ele>
        <time>2013-07-14T10:53:52Z</time>
      </trkpt>
      <trkpt lat="46.59398" lon="6.30842">
        <ele>1641.59</ele>
        <time>2013-07-14T10:54:02Z</time>
      </trkpt>
      <trkpt lat="46.594" lon="6.30849">
        <ele>1641.59</ele>
        <time>2013-07-14T10:54:06Z</time>
      </trkpt>
      <trkpt lat="46.594" lon="6.30852">
        <ele>1640.63</ele>
        <time>2013-07-14T10:54:13Z</time>
      </trkpt>
      <trkpt lat="46.59409" lon="6.30864">
        <ele>1642.07</ele>
        <time>2013-07-14T10:54:24Z</time>
      </trkpt>
      <trkpt lat="46.59411" lon="6.3087">
        <ele>1642.55</ele>
        <time>2013-07-14T10:54:36Z</time>
      </trkpt>
      <trkpt lat="46.59411" lon="6.3087">
        <ele>1642.07</ele>
        <time>2013-07-14T10:55:03Z</time>
      </trkpt>
      <trkpt lat="46.59413" lon="6.30878">
        <ele>1643.99</ele>
        <time>2013-07-14T10:55:13Z</time>
      </trkpt>
      <trkpt lat="46.59413" lon="6.30879">
        <ele>1643.99</ele>
        <time>2013-07-14T10:55:14Z</time>
      </trkpt>
      <trkpt lat="46.59414" lon="6.30886">
        <ele>1644.47</ele>
        <time>2013-07-14T10:55:18Z</time>
      </trkpt>
      <trkpt lat="46.59417" lon="6.30891">
        <ele>1645.43</ele>
        <time>2013-07-14T10:55:22Z</time>
      </trkpt>
      <trkpt lat="46.59422" lon="6.30894">
        <ele>1648.8</ele>
        <time>2013-07-14T10:55:32Z</time>
      </trkpt>
      <trkpt lat="46.5943" lon="6.30897">
        <ele>1650.24</ele>
        <time>2013-07-14T10:55:43Z</time>
      </trkpt>
      <trkpt lat="46.5943" lon="6.30901">
        <ele>1651.2</ele>
        <time>2013-07-14T10:55:47Z</time>
      </trkpt>
      <trkpt lat="46.59433" lon="6.30914">
        <ele>1654.09</ele>
        <time>2013-07-14T10:55:59Z</time>
      </trkpt>
      <trkpt lat="46.59437" lon="6.30926">
        <ele>1657.45</ele>
        <time>2013-07-14T10:56:11Z</time>
      </trkpt>
      <trkpt lat="46.59436" lon="6.30929">
        <ele>1657.45</ele>
        <time>2013-07-14T10:56:15Z</time>
      </trkpt>
      <trkpt lat="46.59434" lon="6.30934">
        <ele>1658.41</ele>
        <time>2013-07-14T10:56:21Z</time>
      </trkpt>
      <trkpt lat="46.59434" lon="6.30933">
        <ele>1657.93</ele>
        <time>2013-07-14T10:56:36Z</time>
      </trkpt>
      <trkpt lat="46.59433" lon="6.30934">
        <ele>1658.41</ele>
        <time>2013-07-14T10:56:54Z</time>
      </trkpt>
      <trkpt lat="46.59434" lon="6.30934">
        <ele>1659.37</ele>
        <time>2013-07-14T10:56:57Z</time>
      </trkpt>
      <trkpt lat="46.59441" lon="6.30939">
        <ele>1660.81</ele>
        <time>2013-07-14T10:57:05Z</time>
      </trkpt>
      <trkpt lat="46.59443" lon="6.30941">
        <ele>1661.78</ele>
        <time>2013-07-14T10:57:07Z</time>
      </trkpt>
      <trkpt lat="46.59448" lon="6.30943">
        <ele>1662.74</ele>
        <time>2013-07-14T10:57:12Z</time>
      </trkpt>
      <trkpt lat="46.59451" lon="6.30947">
        <ele>1664.18</ele>
        <time>2013-07-14T10:57:17Z</time>
      </trkpt>
      <trkpt lat="46.59456" lon="6.3095">
        <ele>1666.1</ele>
        <time>2013-07-14T10:57:22Z</time>
      </trkpt>
      <trkpt lat="46.59459" lon="6.30957">
        <ele>1667.54</ele>
        <time>2013-07-14T10:57:32Z</time>
      </trkpt>
      <trkpt lat="46.5946" lon="6.30958">
        <ele>1668.02</ele>
        <time>2013-07-14T10:57:49Z</time>
      </trkpt>
      <trkpt lat="46.5946" lon="6.3096">
        <ele>1668.51</ele>
        <time>2013-07-14T10:58:01Z</time>
      </trkpt>
      <trkpt lat="46.59461" lon="6.30961">
        <ele>1668.51</ele>
        <time>2013-07-14T10:58:03Z</time>
      </trkpt>
      <trkpt lat="46.59462" lon="6.30964">
        <ele>1668.51</ele>
        <time>2013-07-14T10:58:05Z</time>
      </trkpt>
      <trkpt lat="46.59469" lon="6.30982">
        <ele>1671.87</ele>
        <time>2013-07-14T10:58:18Z</time>
      </trkpt>
      <trkpt lat="46.59474" lon="6.30994">
        <ele>1673.31</ele>
        <time>2013-07-14T10:58:25Z</time>
      </trkpt>
      <trkpt lat="46.59476" lon="6.30998">
        <ele>1673.31</ele>
        <time>2013-07-14T10:58:29Z</time>
      </trkpt>
      <trkpt lat="46.59479" lon="6.31002">
        <ele>1673.79</ele>
        <time>2013-07-14T10:58:44Z</time>
      </trkpt>
      <trkpt lat="46.59479" lon="6.31002">
        <ele>1672.83</ele>
        <time>2013-07-14T10:59:02Z</time>
      </trkpt>
      <trkpt lat="46.59479" lon="6.31003">
        <ele>1673.31</ele>
        <time>2013-07-14T10:59:19Z</time>
      </trkpt>
      <trkpt lat="46.59478" lon="6.31004">
        <ele>1675.23</ele>
        <time>2013-07-14T10:59:35Z</time>
      </trkpt>
      <trkpt lat="46.59478" lon="6.31004">
        <ele>1674.75</ele>
        <time>2013-07-14T10:59:52Z</time>
      </trkpt>
      <trkpt lat="46.59477" lon="6.31004">
        <ele>1674.75</ele>
        <time>2013-07-14T11:00:08Z</time>
      </trkpt>
      <trkpt lat="46.59479" lon="6.31002">
        <ele>1674.75</ele>
        <time>2013-07-14T11:00:24Z</time>
      </trkpt>
      <trkpt lat="46.59478" lon="6.31002">
        <ele>1674.75</ele>
        <time>2013-07-14T11:00:40Z</time>
      </trkpt>
      <trkpt lat="46.59475" lon="6.30998">
        <ele>1673.31</ele>
        <time>2013-07-14T11:00:51Z</time>
      </trkpt>
      <trkpt lat="46.59472" lon="6.30997">
        <ele>1673.79</ele>
        <time>2013-07-14T11:01:02Z</time>
      </trkpt>
      <trkpt lat="46.59472" lon="6.31">
        <ele>1673.31</ele>
        <time>2013-07-14T11:01:15Z</time>
      </trkpt>
      <trkpt lat="46.59471" lon="6.31003">
        <ele>1672.35</ele>
        <time>2013-07-14T11:01:26Z</time>
      </trkpt>
      <trkpt lat="46.5947" lon="6.31004">
        <ele>1672.35</ele>
        <time>2013-07-14T11:01:41Z</time>
      </trkpt>
      <trkpt lat="46.59468" lon="6.31007">
        <ele>1672.35</ele>
        <time>2013-07-14T11:01:50Z</time>
      </trkpt>
      <trkpt lat="46.59464" lon="6.31016">
        <ele>1668.99</ele>
        <time>2013-07-14T11:02:01Z</time>
      </trkpt>
      <trkpt lat="46.59465" lon="6.31011">
        <ele>1669.47</ele>
        <time>2013-07-14T11:02:10Z</time>
      </trkpt>
      <trkpt lat="46.59466" lon="6.31005">
        <ele>1670.91</ele>
        <time>2013-07-14T11:02:15Z</time>
      </trkpt>
      <trkpt lat="46.59467" lon="6.31002">
        <ele>1668.02</ele>
        <time>2013-07-14T11:02:19Z</time>
      </trkpt>
      <trkpt lat="46.59467" lon="6.31002">
        <ele>1672.35</ele>
        <time>2013-07-14T11:02:20Z</time>
      </trkpt>
      <trkpt lat="46.59467" lon="6.31002">
        <ele>1668.51</ele>
        <time>2013-07-14T11:02:21Z</time>
      </trkpt>
      <trkpt lat="46.59467" lon="6.31002">
        <ele>1675.72</ele>
        <time>2013-07-14T11:02:25Z</time>
      </trkpt>
      <trkpt lat="46.59466" lon="6.31003">
        <ele>1671.87</ele>
        <time>2013-07-14T11:02:26Z</time>
      </trkpt>
      <trkpt lat="46.59466" lon="6.31004">
        <ele>1671.39</ele>
        <time>2013-07-14T11:02:27Z</time>
      </trkpt>
      <trkpt lat="46.59462" lon="6.31012">
        <ele>1669.47</ele>
        <time>2013-07-14T11:02:32Z</time>
      </trkpt>
      <trkpt lat="46.59458" lon="6.31015">
        <ele>1666.58</ele>
        <time>2013-07-14T11:02:39Z</time>
      </trkpt>
      <trkpt lat="46.59457" lon="6.31016">
        <ele>1666.58</ele>
        <time>2013-07-14T11:02:40Z</time>
      </trkpt>
      <trkpt lat="46.59455" lon="6.31016">
        <ele>1665.62</ele>
        <time>2013-07-14T11:02:42Z</time>
      </trkpt>
      <trkpt lat="46.59454" lon="6.31007">
        <ele>1660.81</ele>
        <time>2013-07-14T11:02:52Z</time>
      </trkpt>
      <trkpt lat="46.59454" lon="6.31007">
        <ele>1664.18</ele>
        <time>2013-07-14T11:02:53Z</time>
      </trkpt>
      <trkpt lat="46.59455" lon="6.31007">
        <ele>1668.51</ele>
        <time>2013-07-14T11:02:54Z</time>
      </trkpt>
      <trkpt lat="46.59455" lon="6.31007">
        <ele>1664.18</ele>
        <time>2013-07-14T11:02:55Z</time>
      </trkpt>
      <trkpt lat="46.59454" lon="6.31007">
        <ele>1664.66</ele>
        <time>2013-07-14T11:03:20Z</time>
      </trkpt>
      <trkpt lat="46.59454" lon="6.31008">
        <ele>1664.66</ele>
        <time>2013-07-14T11:03:49Z</time>
      </trkpt>
      <trkpt lat="46.59454" lon="6.31008">
        <ele>1664.66</ele>
        <time>2013-07-14T11:04:21Z</time>
      </trkpt>
      <trkpt lat="46.59454" lon="6.31008">
        <ele>1664.66</ele>
        <time>2013-07-14T11:04:49Z</time>
      </trkpt>
      <trkpt lat="46.59454" lon="6.31008">
        <ele>1665.62</ele>
        <time>2013-07-14T11:05:09Z</time>
      </trkpt>
      <trkpt lat="46.59455" lon="6.31008">
        <ele>1665.14</ele>
        <time>2013-07-14T11:05:38Z</time>
      </trkpt>
      <trkpt lat="46.59455" lon="6.31008">
        <ele>1664.66</ele>
        <time>2013-07-14T11:06:15Z</time>
      </trkpt>
      <trkpt lat="46.59454" lon="6.31008">
        <ele>1664.66</ele>
        <time>2013-07-14T11:06:50Z</time>
      </trkpt>
      <trkpt lat="46.59454" lon="6.31008">
        <ele>1665.14</ele>
        <time>2013-07-14T11:07:26Z</time>
      </trkpt>
      <trkpt lat="46.59454" lon="6.31008">
        <ele>1666.1</ele>
        <time>2013-07-14T11:08:00Z</time>
      </trkpt>
      <trkpt lat="46.59454" lon="6.31009">
        <ele>1666.58</ele>
        <time>2013-07-14T11:08:34Z</time>
      </trkpt>
      <trkpt lat="46.59454" lon="6.31009">
        <ele>1665.62</ele>
        <time>2013-07-14T11:09:07Z</time>
      </trkpt>
      <trkpt lat="46.59454" lon="6.31009">
        <ele>1665.62</ele>
        <time>2013-07-14T11:09:29Z</time>
      </trkpt>
      <trkpt lat="46.59454" lon="6.31009">
        <ele>1666.1</ele>
        <time>2013-07-14T11:10:03Z</time>
      </trkpt>
      <trkpt lat="46.59454" lon="6.31009">
        <ele>1665.62</ele>
        <time>2013-07-14T11:10:37Z</time>
      </trkpt>
      <trkpt lat="46.59454" lon="6.31008">
        <ele>1666.1</ele>
        <time>2013-07-14T11:11:13Z</time>
      </trkpt>
      <trkpt lat="46.59453" lon="6.31009">
        <ele>1666.1</ele>
        <time>2013-07-14T11:11:43Z</time>
      </trkpt>
      <trkpt lat="46.59453" lon="6.31009">
        <ele>1666.1</ele>
        <time>2013-07-14T11:12:17Z</time>
      </trkpt>
      <trkpt lat="46.59453" lon="6.31009">
        <ele>1666.1</ele>
        <time>2013-07-14T11:12:48Z</time>
      </trkpt>
      <trkpt lat="46.59453" lon="6.31009">
        <ele>1666.1</ele>
        <time>2013-07-14T11:13:15Z</time>
      </trkpt>
      <trkpt lat="46.59453" lon="6.31009">
        <ele>1666.58</ele>
        <time>2013-07-14T11:13:46Z</time>
      </trkpt>
      <trkpt lat="46.59453" lon="6.31008">
        <ele>1666.58</ele>
        <time>2013-07-14T11:14:15Z</time>
      </trkpt>
      <trkpt lat="46.59453" lon="6.31009">
        <ele>1667.06</ele>
        <time>2013-07-14T11:14:45Z</time>
      </trkpt>
      <trkpt lat="46.59452" lon="6.31009">
        <ele>1666.58</ele>
        <time>2013-07-14T11:15:19Z</time>
      </trkpt>
      <trkpt lat="46.59452" lon="6.31009">
        <ele>1667.06</ele>
        <time>2013-07-14T11:15:49Z</time>
      </trkpt>
      <trkpt lat="46.59452" lon="6.31009">
        <ele>1667.06</ele>
        <time>2013-07-14T11:16:24Z</time>
      </trkpt>
      <trkpt lat="46.59452" lon="6.31009">
        <ele>1667.06</ele>
        <time>2013-07-14T11:17:00Z</time>
      </trkpt>
      <trkpt lat="46.59452" lon="6.31008">
        <ele>1667.06</ele>
        <time>2013-07-14T11:17:37Z</time>
      </trkpt>
      <trkpt lat="46.59452" lon="6.31009">
        <ele>1667.54</ele>
        <time>2013-07-14T11:18:13Z</time>
      </trkpt>
      <trkpt lat="46.59452" lon="6.31009">
        <ele>1668.02</ele>
        <time>2013-07-14T11:18:45Z</time>
      </trkpt>
      <trkpt lat="46.59452" lon="6.31009">
        <ele>1667.54</ele>
        <time>2013-07-14T11:19:19Z</time>
      </trkpt>
      <trkpt lat="46.59452" lon="6.31009">
        <ele>1668.02</ele>
        <time>2013-07-14T11:19:53Z</time>
      </trkpt>
      <trkpt lat="46.59452" lon="6.31009">
        <ele>1668.02</ele>
        <time>2013-07-14T11:20:29Z</time>
      </trkpt>
      <trkpt lat="46.59452" lon="6.31009">
        <ele>1668.02</ele>
        <time>2013-07-14T11:21:03Z</time>
      </trkpt>
      <trkpt lat="46.59452" lon="6.31008">
        <ele>1668.02</ele>
        <time>2013-07-14T11:21:41Z</time>
      </trkpt>
      <trkpt lat="46.59453" lon="6.31008">
        <ele>1668.02</ele>
        <time>2013-07-14T11:22:13Z</time>
      </trkpt>
      <trkpt lat="46.59452" lon="6.31009">
        <ele>1668.02</ele>
        <time>2013-07-14T11:22:44Z</time>
      </trkpt>
      <trkpt lat="46.59453" lon="6.31009">
        <ele>1668.02</ele>
        <time>2013-07-14T11:23:20Z</time>
      </trkpt>
      <trkpt lat="46.59453" lon="6.31009">
        <ele>1668.02</ele>
        <time>2013-07-14T11:23:54Z</time>
      </trkpt>
      <trkpt lat="46.59453" lon="6.31008">
        <ele>1668.02</ele>
        <time>2013-07-14T11:24:28Z</time>
      </trkpt>
      <trkpt lat="46.59453" lon="6.31009">
        <ele>1668.02</ele>
        <time>2013-07-14T11:24:55Z</time>
      </trkpt>
      <trkpt lat="46.59454" lon="6.31009">
        <ele>1668.02</ele>
        <time>2013-07-14T11:25:22Z</time>
      </trkpt>
      <trkpt lat="46.59454" lon="6.31009">
        <ele>1668.02</ele>
        <time>2013-07-14T11:25:56Z</time>
      </trkpt>
      <trkpt lat="46.59454" lon="6.31008">
        <ele>1668.02</ele>
        <time>2013-07-14T11:26:26Z</time>
      </trkpt>
      <trkpt lat="46.59454" lon="6.31009">
        <ele>1668.02</ele>
        <time>2013-07-14T11:26:54Z</time>
      </trkpt>
      <trkpt lat="46.59454" lon="6.31009">
        <ele>1668.02</ele>
        <time>2013-07-14T11:27:25Z</time>
      </trkpt>
      <trkpt lat="46.59453" lon="6.31009">
        <ele>1668.02</ele>
        <time>2013-07-14T11:27:51Z</time>
      </trkpt>
      <trkpt lat="46.59453" lon="6.31009">
        <ele>1668.51</ele>
        <time>2013-07-14T11:28:18Z</time>
      </trkpt>
      <trkpt lat="46.59453" lon="6.31009">
        <ele>1668.51</ele>
        <time>2013-07-14T11:28:52Z</time>
      </trkpt>
      <trkpt lat="46.59453" lon="6.31009">
        <ele>1668.51</ele>
        <time>2013-07-14T11:29:27Z</time>
      </trkpt>
      <trkpt lat="46.59453" lon="6.31009">
        <ele>1668.51</ele>
        <time>2013-07-14T11:29:59Z</time>
      </trkpt>
      <trkpt lat="46.59453" lon="6.31009">
        <ele>1666.1</ele>
        <time>2013-07-14T11:30:31Z</time>
      </trkpt>
      <trkpt lat="46.59453" lon="6.31009">
        <ele>1669.47</ele>
        <time>2013-07-14T11:30:33Z</time>
      </trkpt>
      <trkpt lat="46.59453" lon="6.31009">
        <ele>1668.51</ele>
        <time>2013-07-14T11:30:50Z</time>
      </trkpt>
      <trkpt lat="46.59454" lon="6.31009">
        <ele>1668.51</ele>
        <time>2013-07-14T11:31:26Z</time>
      </trkpt>
      <trkpt lat="46.59454" lon="6.31009">
        <ele>1668.99</ele>
        <time>2013-07-14T11:32:00Z</time>
      </trkpt>
      <trkpt lat="46.59453" lon="6.31009">
        <ele>1668.51</ele>
        <time>2013-07-14T11:32:42Z</time>
      </trkpt>
      <trkpt lat="46.59453" lon="6.31008">
        <ele>1668.51</ele>
        <time>2013-07-14T11:33:19Z</time>
      </trkpt>
      <trkpt lat="46.59453" lon="6.31008">
        <ele>1668.51</ele>
        <time>2013-07-14T11:34:02Z</time>
      </trkpt>
      <trkpt lat="46.59454" lon="6.31008">
        <ele>1668.51</ele>
        <time>2013-07-14T11:34:40Z</time>
      </trkpt>
      <trkpt lat="46.59454" lon="6.31008">
        <ele>1668.51</ele>
        <time>2013-07-14T11:35:13Z</time>
      </trkpt>
      <trkpt lat="46.59454" lon="6.31008">
        <ele>1668.51</ele>
        <time>2013-07-14T11:35:49Z</time>
      </trkpt>
      <trkpt lat="46.59454" lon="6.31009">
        <ele>1668.51</ele>
        <time>2013-07-14T11:36:22Z</time>
      </trkpt>
      <trkpt lat="46.59453" lon="6.31009">
        <ele>1668.99</ele>
        <time>2013-07-14T11:36:59Z</time>
      </trkpt>
      <trkpt lat="46.59453" lon="6.31008">
        <ele>1668.99</ele>
        <time>2013-07-14T11:37:40Z</time>
      </trkpt>
      <trkpt lat="46.59453" lon="6.31009">
        <ele>1668.99</ele>
        <time>2013-07-14T11:38:18Z</time>
      </trkpt>
      <trkpt lat="46.59453" lon="6.31008">
        <ele>1668.99</ele>
        <time>2013-07-14T11:38:53Z</time>
      </trkpt>
      <trkpt lat="46.59453" lon="6.31009">
        <ele>1668.99</ele>
        <time>2013-07-14T11:39:28Z</time>
      </trkpt>
      <trkpt lat="46.59453" lon="6.31008">
        <ele>1668.99</ele>
        <time>2013-07-14T11:40:02Z</time>
      </trkpt>
      <trkpt lat="46.59453" lon="6.31008">
        <ele>1669.47</ele>
        <time>2013-07-14T11:40:36Z</time>
      </trkpt>
      <trkpt lat="46.59454" lon="6.31008">
        <ele>1669.47</ele>
        <time>2013-07-14T11:41:08Z</time>
      </trkpt>
      <trkpt lat="46.59453" lon="6.31008">
        <ele>1668.99</ele>
        <time>2013-07-14T11:41:42Z</time>
      </trkpt>
      <trkpt lat="46.59453" lon="6.31008">
        <ele>1668.99</ele>
        <time>2013-07-14T11:42:19Z</time>
      </trkpt>
      <trkpt lat="46.59454" lon="6.31008">
        <ele>1668.99</ele>
        <time>2013-07-14T11:42:51Z</time>
      </trkpt>
      <trkpt lat="46.59454" lon="6.31008">
        <ele>1668.99</ele>
        <time>2013-07-14T11:43:26Z</time>
      </trkpt>
      <trkpt lat="46.59454" lon="6.31008">
        <ele>1668.99</ele>
        <time>2013-07-14T11:43:57Z</time>
      </trkpt>
      <trkpt lat="46.59454" lon="6.31008">
        <ele>1668.99</ele>
        <time>2013-07-14T11:44:33Z</time>
      </trkpt>
      <trkpt lat="46.59454" lon="6.31009">
        <ele>1668.99</ele>
        <time>2013-07-14T11:45:08Z</time>
      </trkpt>
      <trkpt lat="46.59453" lon="6.31009">
        <ele>1668.99</ele>
        <time>2013-07-14T11:45:39Z</time>
      </trkpt>
      <trkpt lat="46.59453" lon="6.31008">
        <ele>1668.99</ele>
        <time>2013-07-14T11:46:13Z</time>
      </trkpt>
      <trkpt lat="46.59453" lon="6.31008">
        <ele>1668.99</ele>
        <time>2013-07-14T11:46:46Z</time>
      </trkpt>
      <trkpt lat="46.59454" lon="6.31008">
        <ele>1668.99</ele>
        <time>2013-07-14T11:47:26Z</time>
      </trkpt>
      <trkpt lat="46.59453" lon="6.31008">
        <ele>1669.47</ele>
        <time>2013-07-14T11:48:02Z</time>
      </trkpt>
      <trkpt lat="46.59453" lon="6.31008">
        <ele>1669.47</ele>
        <time>2013-07-14T11:48:38Z</time>
      </trkpt>
      <trkpt lat="46.59453" lon="6.31008">
        <ele>1669.47</ele>
        <time>2013-07-14T11:49:12Z</time>
      </trkpt>
      <trkpt lat="46.59453" lon="6.31008">
        <ele>1669.47</ele>
        <time>2013-07-14T11:49:48Z</time>
      </trkpt>
      <trkpt lat="46.59453" lon="6.31008">
        <ele>1669.95</ele>
        <time>2013-07-14T11:50:24Z</time>
      </trkpt>
      <trkpt lat="46.59453" lon="6.31008">
        <ele>1669.47</ele>
        <time>2013-07-14T11:51:01Z</time>
      </trkpt>
      <trkpt lat="46.59453" lon="6.31008">
        <ele>1669.47</ele>
        <time>2013-07-14T11:51:37Z</time>
      </trkpt>
      <trkpt lat="46.59453" lon="6.31008">
        <ele>1669.47</ele>
        <time>2013-07-14T11:52:17Z</time>
      </trkpt>
      <trkpt lat="46.59453" lon="6.31008">
        <ele>1669.47</ele>
        <time>2013-07-14T11:52:51Z</time>
      </trkpt>
      <trkpt lat="46.59453" lon="6.31009">
        <ele>1669.95</ele>
        <time>2013-07-14T11:53:28Z</time>
      </trkpt>
      <trkpt lat="46.59454" lon="6.3101">
        <ele>1669.95</ele>
        <time>2013-07-14T11:53:37Z</time>
      </trkpt>
      <trkpt lat="46.59454" lon="6.3101">
        <ele>1670.43</ele>
        <time>2013-07-14T11:53:50Z</time>
      </trkpt>
      <trkpt lat="46.59454" lon="6.31011">
        <ele>1669.95</ele>
        <time>2013-07-14T11:54:08Z</time>
      </trkpt>
      <trkpt lat="46.59452" lon="6.31011">
        <ele>1669.95</ele>
        <time>2013-07-14T11:54:26Z</time>
      </trkpt>
      <trkpt lat="46.5945" lon="6.31011">
        <ele>1668.51</ele>
        <time>2013-07-14T11:54:31Z</time>
      </trkpt>
      <trkpt lat="46.59444" lon="6.31012">
        <ele>1667.54</ele>
        <time>2013-07-14T11:54:37Z</time>
      </trkpt>
      <trkpt lat="46.59441" lon="6.3101">
        <ele>1666.1</ele>
        <time>2013-07-14T11:54:41Z</time>
      </trkpt>
      <trkpt lat="46.59437" lon="6.31001">
        <ele>1664.18</ele>
        <time>2013-07-14T11:54:48Z</time>
      </trkpt>
      <trkpt lat="46.59436" lon="6.30994">
        <ele>1663.22</ele>
        <time>2013-07-14T11:54:53Z</time>
      </trkpt>
      <trkpt lat="46.59434" lon="6.3099">
        <ele>1662.74</ele>
        <time>2013-07-14T11:54:57Z</time>
      </trkpt>
      <trkpt lat="46.59427" lon="6.30983">
        <ele>1660.81</ele>
        <time>2013-07-14T11:55:04Z</time>
      </trkpt>
      <trkpt lat="46.59424" lon="6.30988">
        <ele>1659.37</ele>
        <time>2013-07-14T11:55:11Z</time>
      </trkpt>
      <trkpt lat="46.59421" lon="6.30991">
        <ele>1657.45</ele>
        <time>2013-07-14T11:55:18Z</time>
      </trkpt>
      <trkpt lat="46.59415" lon="6.3099">
        <ele>1655.05</ele>
        <time>2013-07-14T11:55:30Z</time>
      </trkpt>
      <trkpt lat="46.59413" lon="6.30987">
        <ele>1654.57</ele>
        <time>2013-07-14T11:55:33Z</time>
      </trkpt>
      <trkpt lat="46.59407" lon="6.30979">
        <ele>1653.12</ele>
        <time>2013-07-14T11:55:46Z</time>
      </trkpt>
      <trkpt lat="46.59405" lon="6.30973">
        <ele>1651.68</ele>
        <time>2013-07-14T11:55:50Z</time>
      </trkpt>
      <trkpt lat="46.59402" lon="6.30969">
        <ele>1651.2</ele>
        <time>2013-07-14T11:55:55Z</time>
      </trkpt>
      <trkpt lat="46.59398" lon="6.30957">
        <ele>1649.76</ele>
        <time>2013-07-14T11:56:06Z</time>
      </trkpt>
      <trkpt lat="46.59393" lon="6.30948">
        <ele>1648.8</ele>
        <time>2013-07-14T11:56:13Z</time>
      </trkpt>
      <trkpt lat="46.59389" lon="6.30945">
        <ele>1648.32</ele>
        <time>2013-07-14T11:56:18Z</time>
      </trkpt>
      <trkpt lat="46.59385" lon="6.30939">
        <ele>1647.84</ele>
        <time>2013-07-14T11:56:23Z</time>
      </trkpt>
      <trkpt lat="46.59382" lon="6.30937">
        <ele>1647.84</ele>
        <time>2013-07-14T11:56:35Z</time>
      </trkpt>
      <trkpt lat="46.59382" lon="6.30935">
        <ele>1646.88</ele>
        <time>2013-07-14T11:56:51Z</time>
      </trkpt>
      <trkpt lat="46.59381" lon="6.30935">
        <ele>1647.36</ele>
        <time>2013-07-14T11:57:16Z</time>
      </trkpt>
      <trkpt lat="46.59381" lon="6.30935">
        <ele>1647.36</ele>
        <time>2013-07-14T11:57:41Z</time>
      </trkpt>
      <trkpt lat="46.59379" lon="6.30932">
        <ele>1647.36</ele>
        <time>2013-07-14T11:57:53Z</time>
      </trkpt>
      <trkpt lat="46.59377" lon="6.30926">
        <ele>1646.88</ele>
        <time>2013-07-14T11:57:58Z</time>
      </trkpt>
      <trkpt lat="46.59375" lon="6.30923">
        <ele>1646.4</ele>
        <time>2013-07-14T11:58:00Z</time>
      </trkpt>
      <trkpt lat="46.5937" lon="6.30909">
        <ele>1645.43</ele>
        <time>2013-07-14T11:58:12Z</time>
      </trkpt>
      <trkpt lat="46.59369" lon="6.30908">
        <ele>1645.43</ele>
        <time>2013-07-14T11:58:13Z</time>
      </trkpt>
      <trkpt lat="46.59361" lon="6.30889">
        <ele>1643.99</ele>
        <time>2013-07-14T11:58:24Z</time>
      </trkpt>
      <trkpt lat="46.5936" lon="6.30888">
        <ele>1643.51</ele>
        <time>2013-07-14T11:58:26Z</time>
      </trkpt>
      <trkpt lat="46.59359" lon="6.30886">
        <ele>1643.99</ele>
        <time>2013-07-14T11:58:28Z</time>
      </trkpt>
      <trkpt lat="46.5935" lon="6.30876">
        <ele>1643.51</ele>
        <time>2013-07-14T11:58:39Z</time>
      </trkpt>
      <trkpt lat="46.59344" lon="6.30867">
        <ele>1642.07</ele>
        <time>2013-07-14T11:58:48Z</time>
      </trkpt>
      <trkpt lat="46.59339" lon="6.30861">
        <ele>1641.59</ele>
        <time>2013-07-14T11:58:54Z</time>
      </trkpt>
      <trkpt lat="46.59335" lon="6.30857">
        <ele>1641.59</ele>
        <time>2013-07-14T11:58:59Z</time>
      </trkpt>
      <trkpt lat="46.59328" lon="6.30849">
        <ele>1641.11</ele>
        <time>2013-07-14T11:59:07Z</time>
      </trkpt>
      <trkpt lat="46.59325" lon="6.30846">
        <ele>1640.63</ele>
        <time>2013-07-14T11:59:10Z</time>
      </trkpt>
      <trkpt lat="46.59316" lon="6.30838">
        <ele>1639.67</ele>
        <time>2013-07-14T11:59:19Z</time>
      </trkpt>
      <trkpt lat="46.59308" lon="6.30834">
        <ele>1639.19</ele>
        <time>2013-07-14T11:59:31Z</time>
      </trkpt>
      <trkpt lat="46.59304" lon="6.30826">
        <ele>1639.19</ele>
        <time>2013-07-14T11:59:41Z</time>
      </trkpt>
      <trkpt lat="46.59299" lon="6.30809">
        <ele>1640.63</ele>
        <time>2013-07-14T11:59:54Z</time>
      </trkpt>
      <trkpt lat="46.59297" lon="6.30806">
        <ele>1640.63</ele>
        <time>2013-07-14T12:00:07Z</time>
      </trkpt>
      <trkpt lat="46.59295" lon="6.308">
        <ele>1640.63</ele>
        <time>2013-07-14T12:00:15Z</time>
      </trkpt>
      <trkpt lat="46.59293" lon="6.30796">
        <ele>1640.63</ele>
        <time>2013-07-14T12:00:19Z</time>
      </trkpt>
      <trkpt lat="46.5929" lon="6.30791">
        <ele>1641.11</ele>
        <time>2013-07-14T12:00:23Z</time>
      </trkpt>
      <trkpt lat="46.59284" lon="6.30783">
        <ele>1641.59</ele>
        <time>2013-07-14T12:00:31Z</time>
      </trkpt>
      <trkpt lat="46.59279" lon="6.30779">
        <ele>1641.59</ele>
        <time>2013-07-14T12:00:36Z</time>
      </trkpt>
      <trkpt lat="46.59276" lon="6.30764">
        <ele>1642.07</ele>
        <time>2013-07-14T12:00:50Z</time>
      </trkpt>
      <trkpt lat="46.59276" lon="6.30763">
        <ele>1642.07</ele>
        <time>2013-07-14T12:01:15Z</time>
      </trkpt>
      <trkpt lat="46.59275" lon="6.30761">
        <ele>1642.07</ele>
        <time>2013-07-14T12:01:37Z</time>
      </trkpt>
      <trkpt lat="46.5927" lon="6.30766">
        <ele>1641.59</ele>
        <time>2013-07-14T12:01:50Z</time>
      </trkpt>
      <trkpt lat="46.59267" lon="6.30764">
        <ele>1641.59</ele>
        <time>2013-07-14T12:02:06Z</time>
      </trkpt>
      <trkpt lat="46.59267" lon="6.30765">
        <ele>1641.59</ele>
        <time>2013-07-14T12:02:30Z</time>
      </trkpt>
      <trkpt lat="46.59265" lon="6.30762">
        <ele>1641.11</ele>
        <time>2013-07-14T12:02:51Z</time>
      </trkpt>
      <trkpt lat="46.59262" lon="6.30757">
        <ele>1641.59</ele>
        <time>2013-07-14T12:03:03Z</time>
      </trkpt>
      <trkpt lat="46.59261" lon="6.30756">
        <ele>1641.59</ele>
        <time>2013-07-14T12:03:23Z</time>
      </trkpt>
      <trkpt lat="46.59256" lon="6.30749">
        <ele>1642.07</ele>
        <time>2013-07-14T12:03:31Z</time>
      </trkpt>
      <trkpt lat="46.59253" lon="6.30743">
        <ele>1642.07</ele>
        <time>2013-07-14T12:03:36Z</time>
      </trkpt>
      <trkpt lat="46.59249" lon="6.30738">
        <ele>1641.59</ele>
        <time>2013-07-14T12:03:53Z</time>
      </trkpt>
      <trkpt lat="46.59246" lon="6.30735">
        <ele>1641.59</ele>
        <time>2013-07-14T12:04:07Z</time>
      </trkpt>
      <trkpt lat="46.59246" lon="6.30734">
        <ele>1641.59</ele>
        <time>2013-07-14T12:04:26Z</time>
      </trkpt>
      <trkpt lat="46.59243" lon="6.30731">
        <ele>1642.55</ele>
        <time>2013-07-14T12:04:40Z</time>
      </trkpt>
      <trkpt lat="46.59238" lon="6.30726">
        <ele>1644.47</ele>
        <time>2013-07-14T12:04:53Z</time>
      </trkpt>
      <trkpt lat="46.59231" lon="6.30722">
        <ele>1645.43</ele>
        <time>2013-07-14T12:05:00Z</time>
      </trkpt>
      <trkpt lat="46.59225" lon="6.30717">
        <ele>1645.91</ele>
        <time>2013-07-14T12:05:06Z</time>
      </trkpt>
      <trkpt lat="46.59219" lon="6.30713">
        <ele>1646.88</ele>
        <time>2013-07-14T12:05:12Z</time>
      </trkpt>
      <trkpt lat="46.59214" lon="6.30705">
        <ele>1647.84</ele>
        <time>2013-07-14T12:05:20Z</time>
      </trkpt>
      <trkpt lat="46.59199" lon="6.30694">
        <ele>1648.8</ele>
        <time>2013-07-14T12:05:33Z</time>
      </trkpt>
      <trkpt lat="46.59189" lon="6.30686">
        <ele>1649.28</ele>
        <time>2013-07-14T12:05:46Z</time>
      </trkpt>
      <trkpt lat="46.59185" lon="6.30683">
        <ele>1653.12</ele>
        <time>2013-07-14T12:05:52Z</time>
      </trkpt>
      <trkpt lat="46.59185" lon="6.30683">
        <ele>1651.2</ele>
        <time>2013-07-14T12:05:53Z</time>
      </trkpt>
      <trkpt lat="46.59183" lon="6.30682">
        <ele>1651.68</ele>
        <time>2013-07-14T12:05:57Z</time>
      </trkpt>
      <trkpt lat="46.59182" lon="6.30681">
        <ele>1651.2</ele>
        <time>2013-07-14T12:05:59Z</time>
      </trkpt>
      <trkpt lat="46.59176" lon="6.30677">
        <ele>1652.16</ele>
        <time>2013-07-14T12:06:11Z</time>
      </trkpt>
      <trkpt lat="46.59164" lon="6.30665">
        <ele>1652.64</ele>
        <time>2013-07-14T12:06:26Z</time>
      </trkpt>
      <trkpt lat="46.59153" lon="6.30651">
        <ele>1649.28</ele>
        <time>2013-07-14T12:06:41Z</time>
      </trkpt>
      <trkpt lat="46.59153" lon="6.30651">
        <ele>1655.05</ele>
        <time>2013-07-14T12:06:42Z</time>
      </trkpt>
      <trkpt lat="46.59153" lon="6.30651">
        <ele>1652.16</ele>
        <time>2013-07-14T12:06:43Z</time>
      </trkpt>
      <trkpt lat="46.59148" lon="6.30648">
        <ele>1651.68</ele>
        <time>2013-07-14T12:06:55Z</time>
      </trkpt>
      <trkpt lat="46.59138" lon="6.30638">
        <ele>1650.72</ele>
        <time>2013-07-14T12:07:06Z</time>
      </trkpt>
      <trkpt lat="46.5913" lon="6.30626">
        <ele>1650.24</ele>
        <time>2013-07-14T12:07:18Z</time>
      </trkpt>
      <trkpt lat="46.59123" lon="6.30617">
        <ele>1650.24</ele>
        <time>2013-07-14T12:07:26Z</time>
      </trkpt>
      <trkpt lat="46.59121" lon="6.30615">
        <ele>1649.76</ele>
        <time>2013-07-14T12:07:28Z</time>
      </trkpt>
      <trkpt lat="46.59118" lon="6.30612">
        <ele>1649.76</ele>
        <time>2013-07-14T12:07:32Z</time>
      </trkpt>
      <trkpt lat="46.59111" lon="6.30602">
        <ele>1648.8</ele>
        <time>2013-07-14T12:07:43Z</time>
      </trkpt>
      <trkpt lat="46.59104" lon="6.30592">
        <ele>1647.36</ele>
        <time>2013-07-14T12:07:52Z</time>
      </trkpt>
      <trkpt lat="46.59095" lon="6.30579">
        <ele>1646.88</ele>
        <time>2013-07-14T12:08:04Z</time>
      </trkpt>
      <trkpt lat="46.59091" lon="6.30574">
        <ele>1645.43</ele>
        <time>2013-07-14T12:08:10Z</time>
      </trkpt>
      <trkpt lat="46.59081" lon="6.30563">
        <ele>1643.03</ele>
        <time>2013-07-14T12:08:23Z</time>
      </trkpt>
      <trkpt lat="46.59075" lon="6.30551">
        <ele>1642.55</ele>
        <time>2013-07-14T12:08:31Z</time>
      </trkpt>
      <trkpt lat="46.59064" lon="6.30537">
        <ele>1637.26</ele>
        <time>2013-07-14T12:08:46Z</time>
      </trkpt>
      <trkpt lat="46.59063" lon="6.30537">
        <ele>1641.59</ele>
        <time>2013-07-14T12:08:47Z</time>
      </trkpt>
      <trkpt lat="46.59061" lon="6.30533">
        <ele>1639.67</ele>
        <time>2013-07-14T12:08:52Z</time>
      </trkpt>
      <trkpt lat="46.59056" lon="6.30527">
        <ele>1638.22</ele>
        <time>2013-07-14T12:08:57Z</time>
      </trkpt>
      <trkpt lat="46.59048" lon="6.30515">
        <ele>1636.78</ele>
        <time>2013-07-14T12:09:09Z</time>
      </trkpt>
      <trkpt lat="46.59048" lon="6.30514">
        <ele>1636.3</ele>
        <time>2013-07-14T12:09:10Z</time>
      </trkpt>
      <trkpt lat="46.59043" lon="6.30503">
        <ele>1634.86</ele>
        <time>2013-07-14T12:09:19Z</time>
      </trkpt>
      <trkpt lat="46.59035" lon="6.30487">
        <ele>1632.94</ele>
        <time>2013-07-14T12:09:31Z</time>
      </trkpt>
      <trkpt lat="46.59028" lon="6.30477">
        <ele>1632.94</ele>
        <time>2013-07-14T12:09:41Z</time>
      </trkpt>
      <trkpt lat="46.59015" lon="6.30471">
        <ele>1632.94</ele>
        <time>2013-07-14T12:09:53Z</time>
      </trkpt>
      <trkpt lat="46.59008" lon="6.3046">
        <ele>1633.9</ele>
        <time>2013-07-14T12:10:06Z</time>
      </trkpt>
      <trkpt lat="46.59007" lon="6.30459">
        <ele>1633.42</ele>
        <time>2013-07-14T12:10:11Z</time>
      </trkpt>
      <trkpt lat="46.58999" lon="6.30448">
        <ele>1631.98</ele>
        <time>2013-07-14T12:10:23Z</time>
      </trkpt>
      <trkpt lat="46.58994" lon="6.30442">
        <ele>1631.01</ele>
        <time>2013-07-14T12:10:29Z</time>
      </trkpt>
      <trkpt lat="46.58989" lon="6.30437">
        <ele>1630.53</ele>
        <time>2013-07-14T12:10:35Z</time>
      </trkpt>
      <trkpt lat="46.58983" lon="6.3043">
        <ele>1630.53</ele>
        <time>2013-07-14T12:10:44Z</time>
      </trkpt>
      <trkpt lat="46.58981" lon="6.30428">
        <ele>1630.53</ele>
        <time>2013-07-14T12:10:47Z</time>
      </trkpt>
      <trkpt lat="46.58975" lon="6.30423">
        <ele>1630.05</ele>
        <time>2013-07-14T12:10:55Z</time>
      </trkpt>
      <trkpt lat="46.58968" lon="6.30412">
        <ele>1630.53</ele>
        <time>2013-07-14T12:11:06Z</time>
      </trkpt>
      <trkpt lat="46.58958" lon="6.304">
        <ele>1630.05</ele>
        <time>2013-07-14T12:11:17Z</time>
      </trkpt>
      <trkpt lat="46.58957" lon="6.304">
        <ele>1629.57</ele>
        <time>2013-07-14T12:11:19Z</time>
      </trkpt>
      <trkpt lat="46.58951" lon="6.30391">
        <ele>1628.61</ele>
        <time>2013-07-14T12:11:31Z</time>
      </trkpt>
      <trkpt lat="46.58945" lon="6.30382">
        <ele>1627.17</ele>
        <time>2013-07-14T12:11:43Z</time>
      </trkpt>
      <trkpt lat="46.58937" lon="6.30369">
        <ele>1625.73</ele>
        <time>2013-07-14T12:11:56Z</time>
      </trkpt>
      <trkpt lat="46.58932" lon="6.30366">
        <ele>1625.25</ele>
        <time>2013-07-14T12:12:01Z</time>
      </trkpt>
      <trkpt lat="46.5893" lon="6.30364">
        <ele>1625.25</ele>
        <time>2013-07-14T12:12:04Z</time>
      </trkpt>
      <trkpt lat="46.58924" lon="6.30358">
        <ele>1626.69</ele>
        <time>2013-07-14T12:12:16Z</time>
      </trkpt>
      <trkpt lat="46.5892" lon="6.30352">
        <ele>1627.65</ele>
        <time>2013-07-14T12:12:22Z</time>
      </trkpt>
      <trkpt lat="46.58911" lon="6.30345">
        <ele>1628.61</ele>
        <time>2013-07-14T12:12:36Z</time>
      </trkpt>
      <trkpt lat="46.58905" lon="6.30336">
        <ele>1628.61</ele>
        <time>2013-07-14T12:12:45Z</time>
      </trkpt>
      <trkpt lat="46.58899" lon="6.3033">
        <ele>1627.65</ele>
        <time>2013-07-14T12:12:53Z</time>
      </trkpt>
      <trkpt lat="46.58893" lon="6.30328">
        <ele>1627.65</ele>
        <time>2013-07-14T12:13:02Z</time>
      </trkpt>
      <trkpt lat="46.58889" lon="6.30323">
        <ele>1627.65</ele>
        <time>2013-07-14T12:13:06Z</time>
      </trkpt>
      <trkpt lat="46.58883" lon="6.30319">
        <ele>1628.13</ele>
        <time>2013-07-14T12:13:11Z</time>
      </trkpt>
      <trkpt lat="46.58878" lon="6.30315">
        <ele>1627.65</ele>
        <time>2013-07-14T12:13:16Z</time>
      </trkpt>
      <trkpt lat="46.58869" lon="6.30304">
        <ele>1626.69</ele>
        <time>2013-07-14T12:13:27Z</time>
      </trkpt>
      <trkpt lat="46.58865" lon="6.30296">
        <ele>1626.21</ele>
        <time>2013-07-14T12:13:36Z</time>
      </trkpt>
      <trkpt lat="46.5886" lon="6.30285">
        <ele>1626.21</ele>
        <time>2013-07-14T12:13:49Z</time>
      </trkpt>
      <trkpt lat="46.58851" lon="6.30276">
        <ele>1626.69</ele>
        <time>2013-07-14T12:13:59Z</time>
      </trkpt>
      <trkpt lat="46.58842" lon="6.30267">
        <ele>1626.69</ele>
        <time>2013-07-14T12:14:12Z</time>
      </trkpt>
      <trkpt lat="46.58836" lon="6.30258">
        <ele>1626.21</ele>
        <time>2013-07-14T12:14:22Z</time>
      </trkpt>
      <trkpt lat="46.58828" lon="6.30246">
        <ele>1624.77</ele>
        <time>2013-07-14T12:14:34Z</time>
      </trkpt>
      <trkpt lat="46.5882" lon="6.30236">
        <ele>1623.8</ele>
        <time>2013-07-14T12:14:44Z</time>
      </trkpt>
      <trkpt lat="46.58817" lon="6.30231">
        <ele>1623.32</ele>
        <time>2013-07-14T12:14:48Z</time>
      </trkpt>
      <trkpt lat="46.58812" lon="6.30224">
        <ele>1622.36</ele>
        <time>2013-07-14T12:14:54Z</time>
      </trkpt>
      <trkpt lat="46.5881" lon="6.30221">
        <ele>1622.36</ele>
        <time>2013-07-14T12:14:56Z</time>
      </trkpt>
      <trkpt lat="46.58807" lon="6.30215">
        <ele>1620.92</ele>
        <time>2013-07-14T12:15:00Z</time>
      </trkpt>
      <trkpt lat="46.58798" lon="6.30198">
        <ele>1619.96</ele>
        <time>2013-07-14T12:15:13Z</time>
      </trkpt>
      <trkpt lat="46.58793" lon="6.30189">
        <ele>1617.07</ele>
        <time>2013-07-14T12:15:25Z</time>
      </trkpt>
      <trkpt lat="46.5879" lon="6.30181">
        <ele>1615.63</ele>
        <time>2013-07-14T12:15:36Z</time>
      </trkpt>
      <trkpt lat="46.58789" lon="6.30178">
        <ele>1614.67</ele>
        <time>2013-07-14T12:15:49Z</time>
      </trkpt>
      <trkpt lat="46.58788" lon="6.30177">
        <ele>1613.23</ele>
        <time>2013-07-14T12:15:51Z</time>
      </trkpt>
      <trkpt lat="46.58788" lon="6.30164">
        <ele>1611.79</ele>
        <time>2013-07-14T12:16:01Z</time>
      </trkpt>
      <trkpt lat="46.58785" lon="6.30161">
        <ele>1612.75</ele>
        <time>2013-07-14T12:16:06Z</time>
      </trkpt>
      <trkpt lat="46.58778" lon="6.30159">
        <ele>1614.67</ele>
        <time>2013-07-14T12:16:18Z</time>
      </trkpt>
      <trkpt lat="46.58772" lon="6.30158">
        <ele>1616.11</ele>
        <time>2013-07-14T12:16:27Z</time>
      </trkpt>
      <trkpt lat="46.58766" lon="6.30159">
        <ele>1617.07</ele>
        <time>2013-07-14T12:16:35Z</time>
      </trkpt>
      <trkpt lat="46.58761" lon="6.30158">
        <ele>1618.52</ele>
        <time>2013-07-14T12:16:39Z</time>
      </trkpt>
      <trkpt lat="46.58755" lon="6.30151">
        <ele>1618.52</ele>
        <time>2013-07-14T12:16:48Z</time>
      </trkpt>
      <trkpt lat="46.58753" lon="6.30149">
        <ele>1619.48</ele>
        <time>2013-07-14T12:16:51Z</time>
      </trkpt>
      <trkpt lat="46.58746" lon="6.30141">
        <ele>1619.48</ele>
        <time>2013-07-14T12:17:01Z</time>
      </trkpt>
      <trkpt lat="46.58741" lon="6.30137">
        <ele>1619.48</ele>
        <time>2013-07-14T12:17:13Z</time>
      </trkpt>
      <trkpt lat="46.58741" lon="6.30137">
        <ele>1619</ele>
        <time>2013-07-14T12:17:19Z</time>
      </trkpt>
      <trkpt lat="46.58737" lon="6.30131">
        <ele>1619.48</ele>
        <time>2013-07-14T12:17:26Z</time>
      </trkpt>
      <trkpt lat="46.58727" lon="6.30115">
        <ele>1619</ele>
        <time>2013-07-14T12:17:40Z</time>
      </trkpt>
      <trkpt lat="46.58723" lon="6.30112">
        <ele>1618.52</ele>
        <time>2013-07-14T12:17:45Z</time>
      </trkpt>
      <trkpt lat="46.58719" lon="6.30109">
        <ele>1618.04</ele>
        <time>2013-07-14T12:17:49Z</time>
      </trkpt>
      <trkpt lat="46.58716" lon="6.30101">
        <ele>1617.56</ele>
        <time>2013-07-14T12:17:55Z</time>
      </trkpt>
      <trkpt lat="46.58714" lon="6.30097">
        <ele>1616.59</ele>
        <time>2013-07-14T12:17:58Z</time>
      </trkpt>
      <trkpt lat="46.5871" lon="6.30093">
        <ele>1617.07</ele>
        <time>2013-07-14T12:18:03Z</time>
      </trkpt>
      <trkpt lat="46.58706" lon="6.30083">
        <ele>1616.11</ele>
        <time>2013-07-14T12:18:13Z</time>
      </trkpt>
      <trkpt lat="46.58701" lon="6.30071">
        <ele>1614.67</ele>
        <time>2013-07-14T12:18:24Z</time>
      </trkpt>
      <trkpt lat="46.58698" lon="6.30067">
        <ele>1614.67</ele>
        <time>2013-07-14T12:18:27Z</time>
      </trkpt>
      <trkpt lat="46.58696" lon="6.30064">
        <ele>1614.19</ele>
        <time>2013-07-14T12:18:30Z</time>
      </trkpt>
      <trkpt lat="46.58693" lon="6.30057">
        <ele>1613.71</ele>
        <time>2013-07-14T12:18:36Z</time>
      </trkpt>
      <trkpt lat="46.58691" lon="6.30054">
        <ele>1613.23</ele>
        <time>2013-07-14T12:18:38Z</time>
      </trkpt>
      <trkpt lat="46.58689" lon="6.30049">
        <ele>1613.23</ele>
        <time>2013-07-14T12:18:42Z</time>
      </trkpt>
      <trkpt lat="46.58685" lon="6.30041">
        <ele>1612.75</ele>
        <time>2013-07-14T12:18:48Z</time>
      </trkpt>
      <trkpt lat="46.58681" lon="6.30033">
        <ele>1611.79</ele>
        <time>2013-07-14T12:18:54Z</time>
      </trkpt>
      <trkpt lat="46.58675" lon="6.3003">
        <ele>1611.31</ele>
        <time>2013-07-14T12:19:01Z</time>
      </trkpt>
      <trkpt lat="46.58674" lon="6.3003">
        <ele>1611.31</ele>
        <time>2013-07-14T12:19:17Z</time>
      </trkpt>
      <trkpt lat="46.5867" lon="6.30023">
        <ele>1609.86</ele>
        <time>2013-07-14T12:19:33Z</time>
      </trkpt>
      <trkpt lat="46.58666" lon="6.30014">
        <ele>1608.42</ele>
        <time>2013-07-14T12:19:42Z</time>
      </trkpt>
      <trkpt lat="46.58661" lon="6.30003">
        <ele>1606.98</ele>
        <time>2013-07-14T12:19:51Z</time>
      </trkpt>
      <trkpt lat="46.58654" lon="6.29988">
        <ele>1605.06</ele>
        <time>2013-07-14T12:20:03Z</time>
      </trkpt>
      <trkpt lat="46.58648" lon="6.29981">
        <ele>1603.14</ele>
        <time>2013-07-14T12:20:16Z</time>
      </trkpt>
      <trkpt lat="46.58646" lon="6.29979">
        <ele>1602.66</ele>
        <time>2013-07-14T12:20:35Z</time>
      </trkpt>
      <trkpt lat="46.5864" lon="6.2997">
        <ele>1600.73</ele>
        <time>2013-07-14T12:20:48Z</time>
      </trkpt>
      <trkpt lat="46.58638" lon="6.29967">
        <ele>1600.25</ele>
        <time>2013-07-14T12:20:53Z</time>
      </trkpt>
      <trkpt lat="46.58635" lon="6.29962">
        <ele>1598.81</ele>
        <time>2013-07-14T12:21:04Z</time>
      </trkpt>
      <trkpt lat="46.5863" lon="6.29954">
        <ele>1596.41</ele>
        <time>2013-07-14T12:21:13Z</time>
      </trkpt>
      <trkpt lat="46.58623" lon="6.29943">
        <ele>1594.48</ele>
        <time>2013-07-14T12:21:25Z</time>
      </trkpt>
      <trkpt lat="46.58619" lon="6.29939">
        <ele>1594</ele>
        <time>2013-07-14T12:21:29Z</time>
      </trkpt>
      <trkpt lat="46.58616" lon="6.29933">
        <ele>1593.52</ele>
        <time>2013-07-14T12:21:35Z</time>
      </trkpt>
      <trkpt lat="46.58611" lon="6.29927">
        <ele>1589.68</ele>
        <time>2013-07-14T12:21:42Z</time>
      </trkpt>
      <trkpt lat="46.5861" lon="6.29927">
        <ele>1594.48</ele>
        <time>2013-07-14T12:21:43Z</time>
      </trkpt>
      <trkpt lat="46.58607" lon="6.29923">
        <ele>1591.12</ele>
        <time>2013-07-14T12:21:49Z</time>
      </trkpt>
      <trkpt lat="46.58601" lon="6.2991">
        <ele>1589.2</ele>
        <time>2013-07-14T12:22:03Z</time>
      </trkpt>
      <trkpt lat="46.586" lon="6.2991">
        <ele>1588.72</ele>
        <time>2013-07-14T12:22:04Z</time>
      </trkpt>
      <trkpt lat="46.58592" lon="6.29899">
        <ele>1585.83</ele>
        <time>2013-07-14T12:22:20Z</time>
      </trkpt>
      <trkpt lat="46.58582" lon="6.29888">
        <ele>1586.31</ele>
        <time>2013-07-14T12:22:32Z</time>
      </trkpt>
      <trkpt lat="46.58571" lon="6.29885">
        <ele>1584.39</ele>
        <time>2013-07-14T12:22:45Z</time>
      </trkpt>
      <trkpt lat="46.58569" lon="6.29884">
        <ele>1582.95</ele>
        <time>2013-07-14T12:22:48Z</time>
      </trkpt>
      <trkpt lat="46.58565" lon="6.29881">
        <ele>1582.95</ele>
        <time>2013-07-14T12:22:52Z</time>
      </trkpt>
      <trkpt lat="46.58563" lon="6.29878">
        <ele>1583.43</ele>
        <time>2013-07-14T12:22:55Z</time>
      </trkpt>
      <trkpt lat="46.58557" lon="6.29874">
        <ele>1583.91</ele>
        <time>2013-07-14T12:23:08Z</time>
      </trkpt>
      <trkpt lat="46.58557" lon="6.29874">
        <ele>1576.22</ele>
        <time>2013-07-14T12:23:10Z</time>
      </trkpt>
      <trkpt lat="46.58557" lon="6.29874">
        <ele>1586.79</ele>
        <time>2013-07-14T12:23:11Z</time>
      </trkpt>
      <trkpt lat="46.58557" lon="6.29874">
        <ele>1584.87</ele>
        <time>2013-07-14T12:23:12Z</time>
      </trkpt>
      <trkpt lat="46.58557" lon="6.29874">
        <ele>1582.95</ele>
        <time>2013-07-14T12:23:14Z</time>
      </trkpt>
      <trkpt lat="46.58557" lon="6.29873">
        <ele>1582.47</ele>
        <time>2013-07-14T12:23:36Z</time>
      </trkpt>
      <trkpt lat="46.58557" lon="6.29872">
        <ele>1581.99</ele>
        <time>2013-07-14T12:23:56Z</time>
      </trkpt>
      <trkpt lat="46.58554" lon="6.29862">
        <ele>1581.03</ele>
        <time>2013-07-14T12:24:09Z</time>
      </trkpt>
      <trkpt lat="46.58553" lon="6.29855">
        <ele>1580.06</ele>
        <time>2013-07-14T12:24:16Z</time>
      </trkpt>
      <trkpt lat="46.58551" lon="6.29844">
        <ele>1580.54</ele>
        <time>2013-07-14T12:24:23Z</time>
      </trkpt>
      <trkpt lat="46.58548" lon="6.29829">
        <ele>1578.62</ele>
        <time>2013-07-14T12:24:35Z</time>
      </trkpt>
      <trkpt lat="46.58548" lon="6.29819">
        <ele>1577.18</ele>
        <time>2013-07-14T12:24:45Z</time>
      </trkpt>
      <trkpt lat="46.58547" lon="6.29811">
        <ele>1575.74</ele>
        <time>2013-07-14T12:24:51Z</time>
      </trkpt>
      <trkpt lat="46.58541" lon="6.29802">
        <ele>1573.82</ele>
        <time>2013-07-14T12:25:04Z</time>
      </trkpt>
      <trkpt lat="46.58538" lon="6.298">
        <ele>1572.85</ele>
        <time>2013-07-14T12:25:10Z</time>
      </trkpt>
      <trkpt lat="46.58529" lon="6.29798">
        <ele>1572.37</ele>
        <time>2013-07-14T12:25:16Z</time>
      </trkpt>
      <trkpt lat="46.58522" lon="6.29793">
        <ele>1570.93</ele>
        <time>2013-07-14T12:25:27Z</time>
      </trkpt>
      <trkpt lat="46.58517" lon="6.29784">
        <ele>1569.01</ele>
        <time>2013-07-14T12:25:38Z</time>
      </trkpt>
      <trkpt lat="46.58515" lon="6.29776">
        <ele>1569.01</ele>
        <time>2013-07-14T12:25:43Z</time>
      </trkpt>
      <trkpt lat="46.58515" lon="6.29772">
        <ele>1569.49</ele>
        <time>2013-07-14T12:25:45Z</time>
      </trkpt>
      <trkpt lat="46.58512" lon="6.29767">
        <ele>1569.97</ele>
        <time>2013-07-14T12:25:49Z</time>
      </trkpt>
      <trkpt lat="46.58513" lon="6.29759">
        <ele>1569.01</ele>
        <time>2013-07-14T12:25:53Z</time>
      </trkpt>
      <trkpt lat="46.58517" lon="6.29741">
        <ele>1569.97</ele>
        <time>2013-07-14T12:26:07Z</time>
      </trkpt>
      <trkpt lat="46.58521" lon="6.29735">
        <ele>1569.97</ele>
        <time>2013-07-14T12:26:13Z</time>
      </trkpt>
      <trkpt lat="46.58525" lon="6.29731">
        <ele>1569.97</ele>
        <time>2013-07-14T12:26:17Z</time>
      </trkpt>
      <trkpt lat="46.58538" lon="6.2972">
        <ele>1568.53</ele>
        <time>2013-07-14T12:26:33Z</time>
      </trkpt>
      <trkpt lat="46.58541" lon="6.2972">
        <ele>1568.05</ele>
        <time>2013-07-14T12:26:44Z</time>
      </trkpt>
      <trkpt lat="46.58542" lon="6.29717">
        <ele>1568.53</ele>
        <time>2013-07-14T12:27:10Z</time>
      </trkpt>
      <trkpt lat="46.58542" lon="6.29714">
        <ele>1569.49</ele>
        <time>2013-07-14T12:27:24Z</time>
      </trkpt>
      <trkpt lat="46.58542" lon="6.29714">
        <ele>1565.64</ele>
        <time>2013-07-14T12:27:27Z</time>
      </trkpt>
      <trkpt lat="46.58542" lon="6.29714">
        <ele>1571.41</ele>
        <time>2013-07-14T12:27:28Z</time>
      </trkpt>
      <trkpt lat="46.58542" lon="6.29714">
        <ele>1567.57</ele>
        <time>2013-07-14T12:27:29Z</time>
      </trkpt>
      <trkpt lat="46.58544" lon="6.29713">
        <ele>1569.49</ele>
        <time>2013-07-14T12:27:37Z</time>
      </trkpt>
      <trkpt lat="46.58552" lon="6.2971">
        <ele>1569.49</ele>
        <time>2013-07-14T12:27:42Z</time>
      </trkpt>
      <trkpt lat="46.58562" lon="6.29695">
        <ele>1569.97</ele>
        <time>2013-07-14T12:27:54Z</time>
      </trkpt>
      <trkpt lat="46.58566" lon="6.2968">
        <ele>1570.45</ele>
        <time>2013-07-14T12:28:03Z</time>
      </trkpt>
      <trkpt lat="46.5858" lon="6.29666">
        <ele>1569.97</ele>
        <time>2013-07-14T12:28:16Z</time>
      </trkpt>
      <trkpt lat="46.58585" lon="6.29649">
        <ele>1569.49</ele>
        <time>2013-07-14T12:28:30Z</time>
      </trkpt>
      <trkpt lat="46.58586" lon="6.29644">
        <ele>1569.49</ele>
        <time>2013-07-14T12:28:33Z</time>
      </trkpt>
      <trkpt lat="46.58584" lon="6.29628">
        <ele>1569.01</ele>
        <time>2013-07-14T12:28:43Z</time>
      </trkpt>
      <trkpt lat="46.58584" lon="6.29623">
        <ele>1568.05</ele>
        <time>2013-07-14T12:28:47Z</time>
      </trkpt>
      <trkpt lat="46.58585" lon="6.29605">
        <ele>1567.57</ele>
        <time>2013-07-14T12:28:59Z</time>
      </trkpt>
      <trkpt lat="46.58589" lon="6.29593">
        <ele>1567.09</ele>
        <time>2013-07-14T12:29:06Z</time>
      </trkpt>
      <trkpt lat="46.58592" lon="6.29577">
        <ele>1564.68</ele>
        <time>2013-07-14T12:29:19Z</time>
      </trkpt>
      <trkpt lat="46.58593" lon="6.29561">
        <ele>1561.8</ele>
        <time>2013-07-14T12:29:31Z</time>
      </trkpt>
      <trkpt lat="46.58591" lon="6.29557">
        <ele>1561.8</ele>
        <time>2013-07-14T12:29:49Z</time>
      </trkpt>
      <trkpt lat="46.58591" lon="6.29557">
        <ele>1562.28</ele>
        <time>2013-07-14T12:30:17Z</time>
      </trkpt>
      <trkpt lat="46.58591" lon="6.29555">
        <ele>1562.28</ele>
        <time>2013-07-14T12:30:36Z</time>
      </trkpt>
      <trkpt lat="46.58592" lon="6.29551">
        <ele>1560.84</ele>
        <time>2013-07-14T12:30:39Z</time>
      </trkpt>
      <trkpt lat="46.58592" lon="6.29547">
        <ele>1561.32</ele>
        <time>2013-07-14T12:30:42Z</time>
      </trkpt>
      <trkpt lat="46.58594" lon="6.29539">
        <ele>1560.36</ele>
        <time>2013-07-14T12:30:50Z</time>
      </trkpt>
      <trkpt lat="46.58596" lon="6.29535">
        <ele>1560.84</ele>
        <time>2013-07-14T12:30:53Z</time>
      </trkpt>
      <trkpt lat="46.586" lon="6.2952">
        <ele>1558.92</ele>
        <time>2013-07-14T12:31:05Z</time>
      </trkpt>
      <trkpt lat="46.58606" lon="6.29508">
        <ele>1556.99</ele>
        <time>2013-07-14T12:31:18Z</time>
      </trkpt>
      <trkpt lat="46.58609" lon="6.29495">
        <ele>1556.03</ele>
        <time>2013-07-14T12:31:30Z</time>
      </trkpt>
      <trkpt lat="46.58613" lon="6.29489">
        <ele>1554.59</ele>
        <time>2013-07-14T12:31:44Z</time>
      </trkpt>
      <trkpt lat="46.58625" lon="6.29486">
        <ele>1552.19</ele>
        <time>2013-07-14T12:32:00Z</time>
      </trkpt>
      <trkpt lat="46.58634" lon="6.2949">
        <ele>1552.19</ele>
        <time>2013-07-14T12:32:13Z</time>
      </trkpt>
      <trkpt lat="46.58641" lon="6.2949">
        <ele>1551.71</ele>
        <time>2013-07-14T12:32:28Z</time>
      </trkpt>
      <trkpt lat="46.58651" lon="6.29498">
        <ele>1550.26</ele>
        <time>2013-07-14T12:32:42Z</time>
      </trkpt>
      <trkpt lat="46.5866" lon="6.29488">
        <ele>1548.82</ele>
        <time>2013-07-14T12:32:56Z</time>
      </trkpt>
      <trkpt lat="46.58664" lon="6.29485">
        <ele>1548.34</ele>
        <time>2013-07-14T12:33:14Z</time>
      </trkpt>
      <trkpt lat="46.58665" lon="6.29486">
        <ele>1549.3</ele>
        <time>2013-07-14T12:33:43Z</time>
      </trkpt>
      <trkpt lat="46.58664" lon="6.29486">
        <ele>1548.34</ele>
        <time>2013-07-14T12:34:02Z</time>
      </trkpt>
      <trkpt lat="46.58663" lon="6.29485">
        <ele>1548.34</ele>
        <time>2013-07-14T12:34:18Z</time>
      </trkpt>
      <trkpt lat="46.5867" lon="6.29479">
        <ele>1546.9</ele>
        <time>2013-07-14T12:34:30Z</time>
      </trkpt>
      <trkpt lat="46.58679" lon="6.29469">
        <ele>1544.98</ele>
        <time>2013-07-14T12:34:43Z</time>
      </trkpt>
      <trkpt lat="46.58682" lon="6.29465">
        <ele>1544.5</ele>
        <time>2013-07-14T12:34:47Z</time>
      </trkpt>
      <trkpt lat="46.5869" lon="6.29459">
        <ele>1543.53</ele>
        <time>2013-07-14T12:34:52Z</time>
      </trkpt>
      <trkpt lat="46.58689" lon="6.29455">
        <ele>1543.05</ele>
        <time>2013-07-14T12:35:07Z</time>
      </trkpt>
      <trkpt lat="46.58691" lon="6.29452">
        <ele>1542.57</ele>
        <time>2013-07-14T12:35:17Z</time>
      </trkpt>
      <trkpt lat="46.5869" lon="6.29442">
        <ele>1535.36</ele>
        <time>2013-07-14T12:35:27Z</time>
      </trkpt>
      <trkpt lat="46.5869" lon="6.29442">
        <ele>1548.82</ele>
        <time>2013-07-14T12:35:28Z</time>
      </trkpt>
      <trkpt lat="46.5869" lon="6.29442">
        <ele>1542.09</ele>
        <time>2013-07-14T12:35:29Z</time>
      </trkpt>
      <trkpt lat="46.5869" lon="6.29441">
        <ele>1541.61</ele>
        <time>2013-07-14T12:35:46Z</time>
      </trkpt>
      <trkpt lat="46.58683" lon="6.29433">
        <ele>1540.17</ele>
        <time>2013-07-14T12:35:59Z</time>
      </trkpt>
      <trkpt lat="46.58676" lon="6.29426">
        <ele>1538.73</ele>
        <time>2013-07-14T12:36:09Z</time>
      </trkpt>
      <trkpt lat="46.58671" lon="6.29423">
        <ele>1538.25</ele>
        <time>2013-07-14T12:36:17Z</time>
      </trkpt>
      <trkpt lat="46.58661" lon="6.29411">
        <ele>1537.77</ele>
        <time>2013-07-14T12:36:28Z</time>
      </trkpt>
      <trkpt lat="46.58655" lon="6.29405">
        <ele>1536.32</ele>
        <time>2013-07-14T12:36:41Z</time>
      </trkpt>
      <trkpt lat="46.58654" lon="6.29403">
        <ele>1536.32</ele>
        <time>2013-07-14T12:36:43Z</time>
      </trkpt>
      <trkpt lat="46.58647" lon="6.29396">
        <ele>1535.36</ele>
        <time>2013-07-14T12:36:53Z</time>
      </trkpt>
      <trkpt lat="46.58638" lon="6.29379">
        <ele>1535.36</ele>
        <time>2013-07-14T12:37:08Z</time>
      </trkpt>
      <trkpt lat="46.58633" lon="6.29367">
        <ele>1534.88</ele>
        <time>2013-07-14T12:37:17Z</time>
      </trkpt>
      <trkpt lat="46.58624" lon="6.29351">
        <ele>1535.36</ele>
        <time>2013-07-14T12:37:30Z</time>
      </trkpt>
      <trkpt lat="46.58617" lon="6.29338">
        <ele>1535.36</ele>
        <time>2013-07-14T12:37:43Z</time>
      </trkpt>
      <trkpt lat="46.58616" lon="6.29334">
        <ele>1536.32</ele>
        <time>2013-07-14T12:37:47Z</time>
      </trkpt>
      <trkpt lat="46.58613" lon="6.29325">
        <ele>1540.17</ele>
        <time>2013-07-14T12:37:56Z</time>
      </trkpt>
      <trkpt lat="46.58609" lon="6.29318">
        <ele>1537.29</ele>
        <time>2013-07-14T12:38:02Z</time>
      </trkpt>
      <trkpt lat="46.58597" lon="6.29303">
        <ele>1538.73</ele>
        <time>2013-07-14T12:38:19Z</time>
      </trkpt>
      <trkpt lat="46.58589" lon="6.29291">
        <ele>1539.69</ele>
        <time>2013-07-14T12:38:33Z</time>
      </trkpt>
      <trkpt lat="46.58583" lon="6.29286">
        <ele>1541.13</ele>
        <time>2013-07-14T12:38:42Z</time>
      </trkpt>
      <trkpt lat="46.58582" lon="6.29286">
        <ele>1540.65</ele>
        <time>2013-07-14T12:38:43Z</time>
      </trkpt>
      <trkpt lat="46.58571" lon="6.29276">
        <ele>1543.53</ele>
        <time>2013-07-14T12:38:53Z</time>
      </trkpt>
      <trkpt lat="46.5856" lon="6.29268">
        <ele>1542.57</ele>
        <time>2013-07-14T12:39:09Z</time>
      </trkpt>
      <trkpt lat="46.5855" lon="6.29256">
        <ele>1544.5</ele>
        <time>2013-07-14T12:39:24Z</time>
      </trkpt>
      <trkpt lat="46.58539" lon="6.29242">
        <ele>1544.01</ele>
        <time>2013-07-14T12:39:40Z</time>
      </trkpt>
      <trkpt lat="46.58528" lon="6.29226">
        <ele>1543.53</ele>
        <time>2013-07-14T12:39:57Z</time>
      </trkpt>
      <trkpt lat="46.58516" lon="6.29217">
        <ele>1545.94</ele>
        <time>2013-07-14T12:40:11Z</time>
      </trkpt>
      <trkpt lat="46.58515" lon="6.29216">
        <ele>1544.98</ele>
        <time>2013-07-14T12:40:12Z</time>
      </trkpt>
      <trkpt lat="46.58504" lon="6.29205">
        <ele>1548.34</ele>
        <time>2013-07-14T12:40:28Z</time>
      </trkpt>
      <trkpt lat="46.58503" lon="6.29206">
        <ele>1547.38</ele>
        <time>2013-07-14T12:40:30Z</time>
      </trkpt>
      <trkpt lat="46.58493" lon="6.29206">
        <ele>1547.86</ele>
        <time>2013-07-14T12:40:42Z</time>
      </trkpt>
      <trkpt lat="46.58482" lon="6.29209">
        <ele>1548.82</ele>
        <time>2013-07-14T12:40:55Z</time>
      </trkpt>
      <trkpt lat="46.58476" lon="6.29206">
        <ele>1549.78</ele>
        <time>2013-07-14T12:41:01Z</time>
      </trkpt>
      <trkpt lat="46.58465" lon="6.29195">
        <ele>1550.26</ele>
        <time>2013-07-14T12:41:16Z</time>
      </trkpt>
      <trkpt lat="46.58458" lon="6.29187">
        <ele>1553.63</ele>
        <time>2013-07-14T12:41:27Z</time>
      </trkpt>
      <trkpt lat="46.58457" lon="6.29185">
        <ele>1553.15</ele>
        <time>2013-07-14T12:41:29Z</time>
      </trkpt>
      <trkpt lat="46.58445" lon="6.29171">
        <ele>1554.11</ele>
        <time>2013-07-14T12:41:46Z</time>
      </trkpt>
      <trkpt lat="46.58433" lon="6.29157">
        <ele>1555.07</ele>
        <time>2013-07-14T12:42:01Z</time>
      </trkpt>
      <trkpt lat="46.58429" lon="6.29151">
        <ele>1548.82</ele>
        <time>2013-07-14T12:42:10Z</time>
      </trkpt>
      <trkpt lat="46.58429" lon="6.29151">
        <ele>1561.8</ele>
        <time>2013-07-14T12:42:11Z</time>
      </trkpt>
      <trkpt lat="46.58418" lon="6.29138">
        <ele>1556.03</ele>
        <time>2013-07-14T12:42:25Z</time>
      </trkpt>
      <trkpt lat="46.58413" lon="6.29134">
        <ele>1557.47</ele>
        <time>2013-07-14T12:42:34Z</time>
      </trkpt>
      <trkpt lat="46.58403" lon="6.29124">
        <ele>1558.92</ele>
        <time>2013-07-14T12:42:51Z</time>
      </trkpt>
      <trkpt lat="46.58399" lon="6.29117">
        <ele>1559.4</ele>
        <time>2013-07-14T12:42:56Z</time>
      </trkpt>
      <trkpt lat="46.58392" lon="6.29098">
        <ele>1560.36</ele>
        <time>2013-07-14T12:43:10Z</time>
      </trkpt>
      <trkpt lat="46.58383" lon="6.29084">
        <ele>1559.4</ele>
        <time>2013-07-14T12:43:26Z</time>
      </trkpt>
      <trkpt lat="46.58376" lon="6.29078">
        <ele>1558.43</ele>
        <time>2013-07-14T12:43:37Z</time>
      </trkpt>
      <trkpt lat="46.58373" lon="6.29077">
        <ele>1558.92</ele>
        <time>2013-07-14T12:43:40Z</time>
      </trkpt>
      <trkpt lat="46.58367" lon="6.2907">
        <ele>1562.76</ele>
        <time>2013-07-14T12:43:49Z</time>
      </trkpt>
      <trkpt lat="46.58361" lon="6.29059">
        <ele>1563.24</ele>
        <time>2013-07-14T12:44:04Z</time>
      </trkpt>
      <trkpt lat="46.58355" lon="6.2905">
        <ele>1567.09</ele>
        <time>2013-07-14T12:44:16Z</time>
      </trkpt>
      <trkpt lat="46.58356" lon="6.2905">
        <ele>1565.64</ele>
        <time>2013-07-14T12:44:33Z</time>
      </trkpt>
      <trkpt lat="46.58357" lon="6.29051">
        <ele>1565.64</ele>
        <time>2013-07-14T12:44:59Z</time>
      </trkpt>
      <trkpt lat="46.58357" lon="6.29051">
        <ele>1565.64</ele>
        <time>2013-07-14T12:45:25Z</time>
      </trkpt>
      <trkpt lat="46.58358" lon="6.29051">
        <ele>1565.64</ele>
        <time>2013-07-14T12:45:52Z</time>
      </trkpt>
      <trkpt lat="46.58358" lon="6.29051">
        <ele>1566.12</ele>
        <time>2013-07-14T12:46:20Z</time>
      </trkpt>
      <trkpt lat="46.58358" lon="6.29051">
        <ele>1565.64</ele>
        <time>2013-07-14T12:46:47Z</time>
      </trkpt>
      <trkpt lat="46.58353" lon="6.2905">
        <ele>1565.16</ele>
        <time>2013-07-14T12:47:04Z</time>
      </trkpt>
      <trkpt lat="46.5835" lon="6.29046">
        <ele>1567.09</ele>
        <time>2013-07-14T12:47:12Z</time>
      </trkpt>
      <trkpt lat="46.58336" lon="6.29038">
        <ele>1568.53</ele>
        <time>2013-07-14T12:47:26Z</time>
      </trkpt>
      <trkpt lat="46.58334" lon="6.29035">
        <ele>1569.97</ele>
        <time>2013-07-14T12:47:34Z</time>
      </trkpt>
      <trkpt lat="46.58326" lon="6.2902">
        <ele>1570.93</ele>
        <time>2013-07-14T12:47:47Z</time>
      </trkpt>
      <trkpt lat="46.58313" lon="6.29014">
        <ele>1571.41</ele>
        <time>2013-07-14T12:47:58Z</time>
      </trkpt>
      <trkpt lat="46.5831" lon="6.29006">
        <ele>1574.3</ele>
        <time>2013-07-14T12:48:06Z</time>
      </trkpt>
      <trkpt lat="46.58309" lon="6.28994">
        <ele>1572.85</ele>
        <time>2013-07-14T12:48:22Z</time>
      </trkpt>
      <trkpt lat="46.58308" lon="6.28993">
        <ele>1579.58</ele>
        <time>2013-07-14T12:48:23Z</time>
      </trkpt>
      <trkpt lat="46.58308" lon="6.28992">
        <ele>1576.22</ele>
        <time>2013-07-14T12:48:24Z</time>
      </trkpt>
      <trkpt lat="46.58302" lon="6.28982">
        <ele>1577.18</ele>
        <time>2013-07-14T12:48:36Z</time>
      </trkpt>
      <trkpt lat="46.58294" lon="6.28973">
        <ele>1577.66</ele>
        <time>2013-07-14T12:48:50Z</time>
      </trkpt>
      <trkpt lat="46.58284" lon="6.28958">
        <ele>1579.1</ele>
        <time>2013-07-14T12:49:03Z</time>
      </trkpt>
      <trkpt lat="46.5828" lon="6.28952">
        <ele>1580.54</ele>
        <time>2013-07-14T12:49:17Z</time>
      </trkpt>
      <trkpt lat="46.5827" lon="6.28948">
        <ele>1582.47</ele>
        <time>2013-07-14T12:49:30Z</time>
      </trkpt>
      <trkpt lat="46.58264" lon="6.28947">
        <ele>1579.1</ele>
        <time>2013-07-14T12:49:37Z</time>
      </trkpt>
      <trkpt lat="46.58264" lon="6.28947">
        <ele>1579.58</ele>
        <time>2013-07-14T12:49:38Z</time>
      </trkpt>
      <trkpt lat="46.58264" lon="6.28948">
        <ele>1588.24</ele>
        <time>2013-07-14T12:49:39Z</time>
      </trkpt>
      <trkpt lat="46.58263" lon="6.28948">
        <ele>1582.95</ele>
        <time>2013-07-14T12:49:40Z</time>
      </trkpt>
      <trkpt lat="46.58261" lon="6.28945">
        <ele>1583.43</ele>
        <time>2013-07-14T12:49:55Z</time>
      </trkpt>
      <trkpt lat="46.5825" lon="6.28936">
        <ele>1584.87</ele>
        <time>2013-07-14T12:50:09Z</time>
      </trkpt>
      <trkpt lat="46.58244" lon="6.28934">
        <ele>1585.83</ele>
        <time>2013-07-14T12:50:20Z</time>
      </trkpt>
      <trkpt lat="46.5824" lon="6.28932">
        <ele>1585.83</ele>
        <time>2013-07-14T12:50:26Z</time>
      </trkpt>
      <trkpt lat="46.58235" lon="6.2893">
        <ele>1588.24</ele>
        <time>2013-07-14T12:50:41Z</time>
      </trkpt>
      <trkpt lat="46.58224" lon="6.28927">
        <ele>1588.24</ele>
        <time>2013-07-14T12:50:52Z</time>
      </trkpt>
      <trkpt lat="46.58221" lon="6.28925">
        <ele>1589.2</ele>
        <time>2013-07-14T12:50:56Z</time>
      </trkpt>
      <trkpt lat="46.58215" lon="6.28915">
        <ele>1589.68</ele>
        <time>2013-07-14T12:51:04Z</time>
      </trkpt>
      <trkpt lat="46.58208" lon="6.28909">
        <ele>1591.12</ele>
        <time>2013-07-14T12:51:13Z</time>
      </trkpt>
      <trkpt lat="46.58205" lon="6.28905">
        <ele>1591.6</ele>
        <time>2013-07-14T12:51:17Z</time>
      </trkpt>
      <trkpt lat="46.582" lon="6.28897">
        <ele>1590.64</ele>
        <time>2013-07-14T12:51:23Z</time>
      </trkpt>
      <trkpt lat="46.58195" lon="6.28894">
        <ele>1590.16</ele>
        <time>2013-07-14T12:51:29Z</time>
      </trkpt>
      <trkpt lat="46.58189" lon="6.2889">
        <ele>1591.6</ele>
        <time>2013-07-14T12:51:36Z</time>
      </trkpt>
      <trkpt lat="46.58182" lon="6.28892">
        <ele>1592.56</ele>
        <time>2013-07-14T12:51:45Z</time>
      </trkpt>
      <trkpt lat="46.58174" lon="6.28884">
        <ele>1592.56</ele>
        <time>2013-07-14T12:51:57Z</time>
      </trkpt>
      <trkpt lat="46.58164" lon="6.28872">
        <ele>1592.56</ele>
        <time>2013-07-14T12:52:08Z</time>
      </trkpt>
      <trkpt lat="46.5816" lon="6.2887">
        <ele>1593.04</ele>
        <time>2013-07-14T12:52:12Z</time>
      </trkpt>
      <trkpt lat="46.58155" lon="6.28868">
        <ele>1592.56</ele>
        <time>2013-07-14T12:52:17Z</time>
      </trkpt>
      <trkpt lat="46.58152" lon="6.28864">
        <ele>1593.04</ele>
        <time>2013-07-14T12:52:20Z</time>
      </trkpt>
      <trkpt lat="46.58141" lon="6.28861">
        <ele>1594</ele>
        <time>2013-07-14T12:52:29Z</time>
      </trkpt>
      <trkpt lat="46.58135" lon="6.28858">
        <ele>1595.45</ele>
        <time>2013-07-14T12:52:35Z</time>
      </trkpt>
      <trkpt lat="46.5813" lon="6.28853">
        <ele>1595.45</ele>
        <time>2013-07-14T12:52:43Z</time>
      </trkpt>
      <trkpt lat="46.58124" lon="6.28851">
        <ele>1597.85</ele>
        <time>2013-07-14T12:52:53Z</time>
      </trkpt>
      <trkpt lat="46.58123" lon="6.28853">
        <ele>1597.37</ele>
        <time>2013-07-14T12:53:04Z</time>
      </trkpt>
      <trkpt lat="46.5812" lon="6.28853">
        <ele>1598.81</ele>
        <time>2013-07-14T12:53:07Z</time>
      </trkpt>
      <trkpt lat="46.58119" lon="6.28852">
        <ele>1599.29</ele>
        <time>2013-07-14T12:53:12Z</time>
      </trkpt>
      <trkpt lat="46.58114" lon="6.28848">
        <ele>1599.29</ele>
        <time>2013-07-14T12:53:19Z</time>
      </trkpt>
      <trkpt lat="46.58108" lon="6.28843">
        <ele>1600.73</ele>
        <time>2013-07-14T12:53:32Z</time>
      </trkpt>
      <trkpt lat="46.58099" lon="6.28837">
        <ele>1602.66</ele>
        <time>2013-07-14T12:53:44Z</time>
      </trkpt>
      <trkpt lat="46.58098" lon="6.28838">
        <ele>1602.66</ele>
        <time>2013-07-14T12:53:59Z</time>
      </trkpt>
      <trkpt lat="46.58098" lon="6.28838">
        <ele>1602.66</ele>
        <time>2013-07-14T12:54:20Z</time>
      </trkpt>
      <trkpt lat="46.58098" lon="6.28839">
        <ele>1602.66</ele>
        <time>2013-07-14T12:54:45Z</time>
      </trkpt>
      <trkpt lat="46.58098" lon="6.28838">
        <ele>1603.14</ele>
        <time>2013-07-14T12:55:08Z</time>
      </trkpt>
      <trkpt lat="46.58097" lon="6.28839">
        <ele>1602.66</ele>
        <time>2013-07-14T12:55:35Z</time>
      </trkpt>
      <trkpt lat="46.58096" lon="6.28836">
        <ele>1603.62</ele>
        <time>2013-07-14T12:55:38Z</time>
      </trkpt>
      <trkpt lat="46.58087" lon="6.28826">
        <ele>1603.14</ele>
        <time>2013-07-14T12:55:49Z</time>
      </trkpt>
      <trkpt lat="46.58081" lon="6.28818">
        <ele>1603.14</ele>
        <time>2013-07-14T12:55:56Z</time>
      </trkpt>
      <trkpt lat="46.58079" lon="6.28815">
        <ele>1603.14</ele>
        <time>2013-07-14T12:55:58Z</time>
      </trkpt>
      <trkpt lat="46.58074" lon="6.28813">
        <ele>1602.66</ele>
        <time>2013-07-14T12:56:09Z</time>
      </trkpt>
      <trkpt lat="46.58074" lon="6.28814">
        <ele>1602.66</ele>
        <time>2013-07-14T12:56:18Z</time>
      </trkpt>
      <trkpt lat="46.58065" lon="6.28804">
        <ele>1602.17</ele>
        <time>2013-07-14T12:56:31Z</time>
      </trkpt>
      <trkpt lat="46.58056" lon="6.28794">
        <ele>1601.21</ele>
        <time>2013-07-14T12:56:40Z</time>
      </trkpt>
      <trkpt lat="46.58051" lon="6.28786">
        <ele>1600.25</ele>
        <time>2013-07-14T12:56:46Z</time>
      </trkpt>
      <trkpt lat="46.5805" lon="6.28785">
        <ele>1599.77</ele>
        <time>2013-07-14T12:56:48Z</time>
      </trkpt>
      <trkpt lat="46.58039" lon="6.28772">
        <ele>1597.37</ele>
        <time>2013-07-14T12:57:02Z</time>
      </trkpt>
      <trkpt lat="46.58032" lon="6.28767">
        <ele>1595.93</ele>
        <time>2013-07-14T12:57:11Z</time>
      </trkpt>
      <trkpt lat="46.58027" lon="6.28761">
        <ele>1594.48</ele>
        <time>2013-07-14T12:57:17Z</time>
      </trkpt>
      <trkpt lat="46.58016" lon="6.28749">
        <ele>1592.08</ele>
        <time>2013-07-14T12:57:30Z</time>
      </trkpt>
      <trkpt lat="46.58008" lon="6.28742">
        <ele>1589.68</ele>
        <time>2013-07-14T12:57:40Z</time>
      </trkpt>
      <trkpt lat="46.58004" lon="6.28734">
        <ele>1587.75</ele>
        <time>2013-07-14T12:57:47Z</time>
      </trkpt>
      <trkpt lat="46.57995" lon="6.28714">
        <ele>1584.87</ele>
        <time>2013-07-14T12:58:00Z</time>
      </trkpt>
      <trkpt lat="46.57989" lon="6.28699">
        <ele>1581.51</ele>
        <time>2013-07-14T12:58:12Z</time>
      </trkpt>
      <trkpt lat="46.57975" lon="6.28684">
        <ele>1579.1</ele>
        <time>2013-07-14T12:58:25Z</time>
      </trkpt>
      <trkpt lat="46.57964" lon="6.28671">
        <ele>1576.22</ele>
        <time>2013-07-14T12:58:37Z</time>
      </trkpt>
      <trkpt lat="46.57958" lon="6.28667">
        <ele>1575.26</ele>
        <time>2013-07-14T12:58:43Z</time>
      </trkpt>
      <trkpt lat="46.5795" lon="6.28657">
        <ele>1573.33</ele>
        <time>2013-07-14T12:58:54Z</time>
      </trkpt>
      <trkpt lat="46.57944" lon="6.28649">
        <ele>1572.37</ele>
        <time>2013-07-14T12:59:07Z</time>
      </trkpt>
      <trkpt lat="46.57944" lon="6.28652">
        <ele>1572.37</ele>
        <time>2013-07-14T12:59:25Z</time>
      </trkpt>
      <trkpt lat="46.57939" lon="6.28645">
        <ele>1571.41</ele>
        <time>2013-07-14T12:59:38Z</time>
      </trkpt>
      <trkpt lat="46.57932" lon="6.28636">
        <ele>1569.49</ele>
        <time>2013-07-14T12:59:51Z</time>
      </trkpt>
      <trkpt lat="46.57926" lon="6.28622">
        <ele>1567.57</ele>
        <time>2013-07-14T13:00:05Z</time>
      </trkpt>
      <trkpt lat="46.57921" lon="6.28609">
        <ele>1567.57</ele>
        <time>2013-07-14T13:00:17Z</time>
      </trkpt>
      <trkpt lat="46.57918" lon="6.28605">
        <ele>1567.57</ele>
        <time>2013-07-14T13:00:36Z</time>
      </trkpt>
      <trkpt lat="46.57916" lon="6.28607">
        <ele>1567.09</ele>
        <time>2013-07-14T13:00:59Z</time>
      </trkpt>
      <trkpt lat="46.57913" lon="6.28597">
        <ele>1566.61</ele>
        <time>2013-07-14T13:01:11Z</time>
      </trkpt>
      <trkpt lat="46.57914" lon="6.28579">
        <ele>1567.09</ele>
        <time>2013-07-14T13:01:22Z</time>
      </trkpt>
      <trkpt lat="46.57912" lon="6.2856">
        <ele>1567.57</ele>
        <time>2013-07-14T13:01:33Z</time>
      </trkpt>
      <trkpt lat="46.57911" lon="6.28542">
        <ele>1567.57</ele>
        <time>2013-07-14T13:01:46Z</time>
      </trkpt>
      <trkpt lat="46.57913" lon="6.28528">
        <ele>1566.61</ele>
        <time>2013-07-14T13:01:55Z</time>
      </trkpt>
      <trkpt lat="46.57918" lon="6.2851">
        <ele>1565.16</ele>
        <time>2013-07-14T13:02:07Z</time>
      </trkpt>
      <trkpt lat="46.57921" lon="6.2849">
        <ele>1564.2</ele>
        <time>2013-07-14T13:02:20Z</time>
      </trkpt>
      <trkpt lat="46.57926" lon="6.28473">
        <ele>1563.24</ele>
        <time>2013-07-14T13:02:32Z</time>
      </trkpt>
      <trkpt lat="46.57929" lon="6.28457">
        <ele>1562.76</ele>
        <time>2013-07-14T13:02:46Z</time>
      </trkpt>
      <trkpt lat="46.57932" lon="6.28447">
        <ele>1561.8</ele>
        <time>2013-07-14T13:02:54Z</time>
      </trkpt>
      <trkpt lat="46.57942" lon="6.28426">
        <ele>1559.88</ele>
        <time>2013-07-14T13:03:10Z</time>
      </trkpt>
      <trkpt lat="46.57944" lon="6.28416">
        <ele>1558.43</ele>
        <time>2013-07-14T13:03:16Z</time>
      </trkpt>
      <trkpt lat="46.5795" lon="6.28404">
        <ele>1557.95</ele>
        <time>2013-07-14T13:03:30Z</time>
      </trkpt>
      <trkpt lat="46.57957" lon="6.28399">
        <ele>1556.03</ele>
        <time>2013-07-14T13:03:44Z</time>
      </trkpt>
      <trkpt lat="46.57959" lon="6.28398">
        <ele>1555.55</ele>
        <time>2013-07-14T13:03:48Z</time>
      </trkpt>
      <trkpt lat="46.57978" lon="6.28386">
        <ele>1553.63</ele>
        <time>2013-07-14T13:04:03Z</time>
      </trkpt>
      <trkpt lat="46.57983" lon="6.28382">
        <ele>1553.63</ele>
        <time>2013-07-14T13:04:09Z</time>
      </trkpt>
      <trkpt lat="46.5799" lon="6.28375">
        <ele>1552.67</ele>
        <time>2013-07-14T13:04:18Z</time>
      </trkpt>
      <trkpt lat="46.57993" lon="6.28372">
        <ele>1552.19</ele>
        <time>2013-07-14T13:04:20Z</time>
      </trkpt>
      <trkpt lat="46.57996" lon="6.2836">
        <ele>1551.71</ele>
        <time>2013-07-14T13:04:29Z</time>
      </trkpt>
      <trkpt lat="46.58003" lon="6.2834">
        <ele>1549.78</ele>
        <time>2013-07-14T13:04:44Z</time>
      </trkpt>
      <trkpt lat="46.58007" lon="6.28336">
        <ele>1549.3</ele>
        <time>2013-07-14T13:04:49Z</time>
      </trkpt>
      <trkpt lat="46.58017" lon="6.28321">
        <ele>1547.38</ele>
        <time>2013-07-14T13:05:02Z</time>
      </trkpt>
      <trkpt lat="46.58022" lon="6.28312">
        <ele>1546.9</ele>
        <time>2013-07-14T13:05:14Z</time>
      </trkpt>
      <trkpt lat="46.58026" lon="6.28307">
        <ele>1545.94</ele>
        <time>2013-07-14T13:05:18Z</time>
      </trkpt>
      <trkpt lat="46.58031" lon="6.28293">
        <ele>1543.53</ele>
        <time>2013-07-14T13:05:28Z</time>
      </trkpt>
      <trkpt lat="46.58028" lon="6.2828">
        <ele>1541.61</ele>
        <time>2013-07-14T13:05:37Z</time>
      </trkpt>
      <trkpt lat="46.58023" lon="6.28275">
        <ele>1540.17</ele>
        <time>2013-07-14T13:05:43Z</time>
      </trkpt>
      <trkpt lat="46.58019" lon="6.28268">
        <ele>1538.73</ele>
        <time>2013-07-14T13:05:56Z</time>
      </trkpt>
      <trkpt lat="46.58016" lon="6.28268">
        <ele>1537.77</ele>
        <time>2013-07-14T13:06:11Z</time>
      </trkpt>
      <trkpt lat="46.58008" lon="6.28262">
        <ele>1535.36</ele>
        <time>2013-07-14T13:06:23Z</time>
      </trkpt>
      <trkpt lat="46.58008" lon="6.2826">
        <ele>1534.88</ele>
        <time>2013-07-14T13:06:24Z</time>
      </trkpt>
      <trkpt lat="46.58004" lon="6.28253">
        <ele>1533.92</ele>
        <time>2013-07-14T13:06:29Z</time>
      </trkpt>
      <trkpt lat="46.58002" lon="6.28247">
        <ele>1532.96</ele>
        <time>2013-07-14T13:06:33Z</time>
      </trkpt>
      <trkpt lat="46.5799" lon="6.28232">
        <ele>1531.52</ele>
        <time>2013-07-14T13:06:44Z</time>
      </trkpt>
      <trkpt lat="46.57989" lon="6.2823">
        <ele>1530.56</ele>
        <time>2013-07-14T13:06:45Z</time>
      </trkpt>
      <trkpt lat="46.57987" lon="6.28224">
        <ele>1530.56</ele>
        <time>2013-07-14T13:06:48Z</time>
      </trkpt>
      <trkpt lat="46.57983" lon="6.28218">
        <ele>1530.08</ele>
        <time>2013-07-14T13:06:52Z</time>
      </trkpt>
      <trkpt lat="46.5798" lon="6.28208">
        <ele>1529.11</ele>
        <time>2013-07-14T13:06:58Z</time>
      </trkpt>
      <trkpt lat="46.57978" lon="6.28203">
        <ele>1529.11</ele>
        <time>2013-07-14T13:07:00Z</time>
      </trkpt>
      <trkpt lat="46.57974" lon="6.28197">
        <ele>1528.15</ele>
        <time>2013-07-14T13:07:05Z</time>
      </trkpt>
      <trkpt lat="46.5797" lon="6.28185">
        <ele>1527.19</ele>
        <time>2013-07-14T13:07:19Z</time>
      </trkpt>
      <trkpt lat="46.57967" lon="6.28177">
        <ele>1526.23</ele>
        <time>2013-07-14T13:07:25Z</time>
      </trkpt>
      <trkpt lat="46.57961" lon="6.28162">
        <ele>1525.75</ele>
        <time>2013-07-14T13:07:35Z</time>
      </trkpt>
      <trkpt lat="46.5796" lon="6.28161">
        <ele>1525.75</ele>
        <time>2013-07-14T13:07:36Z</time>
      </trkpt>
      <trkpt lat="46.57953" lon="6.28146">
        <ele>1524.79</ele>
        <time>2013-07-14T13:07:48Z</time>
      </trkpt>
      <trkpt lat="46.57952" lon="6.28144">
        <ele>1524.79</ele>
        <time>2013-07-14T13:07:50Z</time>
      </trkpt>
      <trkpt lat="46.57952" lon="6.28141">
        <ele>1524.31</ele>
        <time>2013-07-14T13:07:52Z</time>
      </trkpt>
      <trkpt lat="46.57951" lon="6.28125">
        <ele>1523.35</ele>
        <time>2013-07-14T13:08:04Z</time>
      </trkpt>
      <trkpt lat="46.57951" lon="6.28123">
        <ele>1522.87</ele>
        <time>2013-07-14T13:08:18Z</time>
      </trkpt>
      <trkpt lat="46.57952" lon="6.28123">
        <ele>1522.87</ele>
        <time>2013-07-14T13:08:19Z</time>
      </trkpt>
      <trkpt lat="46.57952" lon="6.28117">
        <ele>1522.87</ele>
        <time>2013-07-14T13:08:23Z</time>
      </trkpt>
      <trkpt lat="46.57952" lon="6.28114">
        <ele>1522.87</ele>
        <time>2013-07-14T13:08:25Z</time>
      </trkpt>
      <trkpt lat="46.57951" lon="6.28103">
        <ele>1522.39</ele>
        <time>2013-07-14T13:08:32Z</time>
      </trkpt>
      <trkpt lat="46.57949" lon="6.2809">
        <ele>1520.94</ele>
        <time>2013-07-14T13:08:40Z</time>
      </trkpt>
      <trkpt lat="46.57947" lon="6.28087">
        <ele>1520.94</ele>
        <time>2013-07-14T13:08:43Z</time>
      </trkpt>
      <trkpt lat="46.57945" lon="6.28082">
        <ele>1520.46</ele>
        <time>2013-07-14T13:08:46Z</time>
      </trkpt>
      <trkpt lat="46.57939" lon="6.28074">
        <ele>1519.98</ele>
        <time>2013-07-14T13:08:57Z</time>
      </trkpt>
      <trkpt lat="46.57938" lon="6.2807">
        <ele>1519.5</ele>
        <time>2013-07-14T13:09:00Z</time>
      </trkpt>
      <trkpt lat="46.57934" lon="6.28066">
        <ele>1519.02</ele>
        <time>2013-07-14T13:09:07Z</time>
      </trkpt>
      <trkpt lat="46.57931" lon="6.28064">
        <ele>1519.02</ele>
        <time>2013-07-14T13:09:10Z</time>
      </trkpt>
      <trkpt lat="46.57927" lon="6.2806">
        <ele>1518.06</ele>
        <time>2013-07-14T13:09:17Z</time>
      </trkpt>
      <trkpt lat="46.57923" lon="6.28058">
        <ele>1518.54</ele>
        <time>2013-07-14T13:09:20Z</time>
      </trkpt>
      <trkpt lat="46.57918" lon="6.28051">
        <ele>1518.54</ele>
        <time>2013-07-14T13:09:24Z</time>
      </trkpt>
      <trkpt lat="46.57909" lon="6.28045">
        <ele>1519.98</ele>
        <time>2013-07-14T13:09:37Z</time>
      </trkpt>
      <trkpt lat="46.57908" lon="6.28045">
        <ele>1519.98</ele>
        <time>2013-07-14T13:09:39Z</time>
      </trkpt>
      <trkpt lat="46.57905" lon="6.2804">
        <ele>1520.46</ele>
        <time>2013-07-14T13:09:42Z</time>
      </trkpt>
      <trkpt lat="46.57898" lon="6.28033">
        <ele>1519.98</ele>
        <time>2013-07-14T13:09:51Z</time>
      </trkpt>
      <trkpt lat="46.57896" lon="6.28032">
        <ele>1520.46</ele>
        <time>2013-07-14T13:09:53Z</time>
      </trkpt>
      <trkpt lat="46.57892" lon="6.28028">
        <ele>1520.46</ele>
        <time>2013-07-14T13:09:56Z</time>
      </trkpt>
      <trkpt lat="46.57882" lon="6.28011">
        <ele>1519.5</ele>
        <time>2013-07-14T13:10:06Z</time>
      </trkpt>
      <trkpt lat="46.5788" lon="6.28009">
        <ele>1519.5</ele>
        <time>2013-07-14T13:10:08Z</time>
      </trkpt>
      <trkpt lat="46.57878" lon="6.28007">
        <ele>1519.5</ele>
        <time>2013-07-14T13:10:11Z</time>
      </trkpt>
      <trkpt lat="46.57875" lon="6.28004">
        <ele>1518.54</ele>
        <time>2013-07-14T13:10:14Z</time>
      </trkpt>
      <trkpt lat="46.57873" lon="6.28001">
        <ele>1517.58</ele>
        <time>2013-07-14T13:10:16Z</time>
      </trkpt>
      <trkpt lat="46.57871" lon="6.27998">
        <ele>1517.58</ele>
        <time>2013-07-14T13:10:19Z</time>
      </trkpt>
      <trkpt lat="46.57864" lon="6.27989">
        <ele>1518.06</ele>
        <time>2013-07-14T13:10:32Z</time>
      </trkpt>
      <trkpt lat="46.57861" lon="6.27981">
        <ele>1518.06</ele>
        <time>2013-07-14T13:10:37Z</time>
      </trkpt>
      <trkpt lat="46.57858" lon="6.27978">
        <ele>1517.58</ele>
        <time>2013-07-14T13:10:40Z</time>
      </trkpt>
      <trkpt lat="46.57852" lon="6.27972">
        <ele>1517.1</ele>
        <time>2013-07-14T13:10:49Z</time>
      </trkpt>
      <trkpt lat="46.5785" lon="6.2797">
        <ele>1517.58</ele>
        <time>2013-07-14T13:10:52Z</time>
      </trkpt>
      <trkpt lat="46.57835" lon="6.27957">
        <ele>1515.66</ele>
        <time>2013-07-14T13:11:06Z</time>
      </trkpt>
      <trkpt lat="46.57829" lon="6.27952">
        <ele>1515.66</ele>
        <time>2013-07-14T13:11:14Z</time>
      </trkpt>
      <trkpt lat="46.57824" lon="6.27949">
        <ele>1514.21</ele>
        <time>2013-07-14T13:11:18Z</time>
      </trkpt>
      <trkpt lat="46.57819" lon="6.27946">
        <ele>1514.69</ele>
        <time>2013-07-14T13:11:23Z</time>
      </trkpt>
      <trkpt lat="46.57817" lon="6.2794">
        <ele>1514.21</ele>
        <time>2013-07-14T13:11:27Z</time>
      </trkpt>
      <trkpt lat="46.57814" lon="6.27939">
        <ele>1514.21</ele>
        <time>2013-07-14T13:11:29Z</time>
      </trkpt>
      <trkpt lat="46.57806" lon="6.27934">
        <ele>1513.25</ele>
        <time>2013-07-14T13:11:35Z</time>
      </trkpt>
      <trkpt lat="46.57802" lon="6.27931">
        <ele>1513.25</ele>
        <time>2013-07-14T13:11:39Z</time>
      </trkpt>
      <trkpt lat="46.57796" lon="6.2793">
        <ele>1513.25</ele>
        <time>2013-07-14T13:11:49Z</time>
      </trkpt>
      <trkpt lat="46.57796" lon="6.2793">
        <ele>1512.77</ele>
        <time>2013-07-14T13:12:00Z</time>
      </trkpt>
      <trkpt lat="46.57795" lon="6.27928">
        <ele>1513.25</ele>
        <time>2013-07-14T13:12:03Z</time>
      </trkpt>
      <trkpt lat="46.5779" lon="6.27922">
        <ele>1512.29</ele>
        <time>2013-07-14T13:12:09Z</time>
      </trkpt>
      <trkpt lat="46.57777" lon="6.2791">
        <ele>1511.81</ele>
        <time>2013-07-14T13:12:23Z</time>
      </trkpt>
      <trkpt lat="46.57774" lon="6.27906">
        <ele>1511.81</ele>
        <time>2013-07-14T13:12:26Z</time>
      </trkpt>
      <trkpt lat="46.5776" lon="6.27905">
        <ele>1512.29</ele>
        <time>2013-07-14T13:12:39Z</time>
      </trkpt>
      <trkpt lat="46.57753" lon="6.27901">
        <ele>1512.77</ele>
        <time>2013-07-14T13:12:51Z</time>
      </trkpt>
      <trkpt lat="46.57738" lon="6.27885">
        <ele>1515.18</ele>
        <time>2013-07-14T13:13:07Z</time>
      </trkpt>
      <trkpt lat="46.57733" lon="6.2788">
        <ele>1516.62</ele>
        <time>2013-07-14T13:13:13Z</time>
      </trkpt>
      <trkpt lat="46.57724" lon="6.27874">
        <ele>1517.1</ele>
        <time>2013-07-14T13:13:25Z</time>
      </trkpt>
      <trkpt lat="46.57717" lon="6.27873">
        <ele>1520.46</ele>
        <time>2013-07-14T13:13:38Z</time>
      </trkpt>
      <trkpt lat="46.57711" lon="6.27868">
        <ele>1521.42</ele>
        <time>2013-07-14T13:13:49Z</time>
      </trkpt>
      <trkpt lat="46.57698" lon="6.27859">
        <ele>1525.75</ele>
        <time>2013-07-14T13:14:05Z</time>
      </trkpt>
      <trkpt lat="46.5769" lon="6.27856">
        <ele>1525.75</ele>
        <time>2013-07-14T13:14:15Z</time>
      </trkpt>
      <trkpt lat="46.57684" lon="6.2785">
        <ele>1526.71</ele>
        <time>2013-07-14T13:14:22Z</time>
      </trkpt>
      <trkpt lat="46.57677" lon="6.2783">
        <ele>1528.63</ele>
        <time>2013-07-14T13:14:38Z</time>
      </trkpt>
      <trkpt lat="46.57671" lon="6.27826">
        <ele>1530.08</ele>
        <time>2013-07-14T13:14:45Z</time>
      </trkpt>
      <trkpt lat="46.57665" lon="6.27825">
        <ele>1531.04</ele>
        <time>2013-07-14T13:14:52Z</time>
      </trkpt>
      <trkpt lat="46.57658" lon="6.27822">
        <ele>1532.96</ele>
        <time>2013-07-14T13:15:00Z</time>
      </trkpt>
      <trkpt lat="46.57645" lon="6.27816">
        <ele>1536.32</ele>
        <time>2013-07-14T13:15:16Z</time>
      </trkpt>
      <trkpt lat="46.5764" lon="6.27809">
        <ele>1537.77</ele>
        <time>2013-07-14T13:15:28Z</time>
      </trkpt>
      <trkpt lat="46.57637" lon="6.27802">
        <ele>1537.29</ele>
        <time>2013-07-14T13:15:42Z</time>
      </trkpt>
      <trkpt lat="46.57639" lon="6.27802">
        <ele>1536.8</ele>
        <time>2013-07-14T13:15:57Z</time>
      </trkpt>
      <trkpt lat="46.5764" lon="6.27801">
        <ele>1537.29</ele>
        <time>2013-07-14T13:16:19Z</time>
      </trkpt>
      <trkpt lat="46.5764" lon="6.278">
        <ele>1537.77</ele>
        <time>2013-07-14T13:16:32Z</time>
      </trkpt>
      <trkpt lat="46.57629" lon="6.27795">
        <ele>1539.21</ele>
        <time>2013-07-14T13:16:45Z</time>
      </trkpt>
      <trkpt lat="46.57626" lon="6.27791">
        <ele>1539.21</ele>
        <time>2013-07-14T13:16:50Z</time>
      </trkpt>
      <trkpt lat="46.57614" lon="6.27784">
        <ele>1539.69</ele>
        <time>2013-07-14T13:17:05Z</time>
      </trkpt>
      <trkpt lat="46.57613" lon="6.27784">
        <ele>1540.65</ele>
        <time>2013-07-14T13:17:07Z</time>
      </trkpt>
      <trkpt lat="46.57604" lon="6.27775">
        <ele>1541.13</ele>
        <time>2013-07-14T13:17:17Z</time>
      </trkpt>
      <trkpt lat="46.57599" lon="6.27771">
        <ele>1542.09</ele>
        <time>2013-07-14T13:17:26Z</time>
      </trkpt>
      <trkpt lat="46.57588" lon="6.27759">
        <ele>1542.09</ele>
        <time>2013-07-14T13:17:41Z</time>
      </trkpt>
      <trkpt lat="46.57573" lon="6.27735">
        <ele>1544.01</ele>
        <time>2013-07-14T13:17:58Z</time>
      </trkpt>
      <trkpt lat="46.57563" lon="6.27724">
        <ele>1544.01</ele>
        <time>2013-07-14T13:18:11Z</time>
      </trkpt>
      <trkpt lat="46.57548" lon="6.27715">
        <ele>1544.01</ele>
        <time>2013-07-14T13:18:25Z</time>
      </trkpt>
      <trkpt lat="46.57539" lon="6.27704">
        <ele>1543.05</ele>
        <time>2013-07-14T13:18:39Z</time>
      </trkpt>
      <trkpt lat="46.57534" lon="6.27704">
        <ele>1542.57</ele>
        <time>2013-07-14T13:18:44Z</time>
      </trkpt>
      <trkpt lat="46.57523" lon="6.27697">
        <ele>1544.01</ele>
        <time>2013-07-14T13:18:56Z</time>
      </trkpt>
      <trkpt lat="46.57504" lon="6.27699">
        <ele>1544.98</ele>
        <time>2013-07-14T13:19:13Z</time>
      </trkpt>
      <trkpt lat="46.5749" lon="6.27698">
        <ele>1547.38</ele>
        <time>2013-07-14T13:19:29Z</time>
      </trkpt>
      <trkpt lat="46.57472" lon="6.27703">
        <ele>1548.34</ele>
        <time>2013-07-14T13:19:46Z</time>
      </trkpt>
      <trkpt lat="46.57462" lon="6.27708">
        <ele>1547.86</ele>
        <time>2013-07-14T13:20:00Z</time>
      </trkpt>
      <trkpt lat="46.5746" lon="6.27704">
        <ele>1547.38</ele>
        <time>2013-07-14T13:20:16Z</time>
      </trkpt>
      <trkpt lat="46.57453" lon="6.27697">
        <ele>1546.9</ele>
        <time>2013-07-14T13:20:25Z</time>
      </trkpt>
      <trkpt lat="46.57445" lon="6.27683">
        <ele>1545.94</ele>
        <time>2013-07-14T13:20:38Z</time>
      </trkpt>
      <trkpt lat="46.57438" lon="6.27674">
        <ele>1544.5</ele>
        <time>2013-07-14T13:20:51Z</time>
      </trkpt>
      <trkpt lat="46.57426" lon="6.27666">
        <ele>1543.05</ele>
        <time>2013-07-14T13:21:03Z</time>
      </trkpt>
      <trkpt lat="46.57412" lon="6.27659">
        <ele>1545.94</ele>
        <time>2013-07-14T13:21:17Z</time>
      </trkpt>
      <trkpt lat="46.57404" lon="6.27653">
        <ele>1546.9</ele>
        <time>2013-07-14T13:21:28Z</time>
      </trkpt>
      <trkpt lat="46.57401" lon="6.27649">
        <ele>1548.82</ele>
        <time>2013-07-14T13:21:36Z</time>
      </trkpt>
      <trkpt lat="46.57394" lon="6.27636">
        <ele>1550.26</ele>
        <time>2013-07-14T13:21:46Z</time>
      </trkpt>
      <trkpt lat="46.57381" lon="6.27624">
        <ele>1552.19</ele>
        <time>2013-07-14T13:22:02Z</time>
      </trkpt>
      <trkpt lat="46.57372" lon="6.27615">
        <ele>1554.59</ele>
        <time>2013-07-14T13:22:16Z</time>
      </trkpt>
      <trkpt lat="46.57371" lon="6.27616">
        <ele>1556.51</ele>
        <time>2013-07-14T13:22:32Z</time>
      </trkpt>
      <trkpt lat="46.57369" lon="6.27616">
        <ele>1555.55</ele>
        <time>2013-07-14T13:22:34Z</time>
      </trkpt>
      <trkpt lat="46.57367" lon="6.27612">
        <ele>1556.99</ele>
        <time>2013-07-14T13:22:38Z</time>
      </trkpt>
      <trkpt lat="46.57365" lon="6.27608">
        <ele>1557.95</ele>
        <time>2013-07-14T13:22:42Z</time>
      </trkpt>
      <trkpt lat="46.57362" lon="6.27605">
        <ele>1556.99</ele>
        <time>2013-07-14T13:22:45Z</time>
      </trkpt>
      <trkpt lat="46.57357" lon="6.27601">
        <ele>1557.95</ele>
        <time>2013-07-14T13:22:51Z</time>
      </trkpt>
      <trkpt lat="46.5735" lon="6.27595">
        <ele>1559.4</ele>
        <time>2013-07-14T13:22:59Z</time>
      </trkpt>
      <trkpt lat="46.57347" lon="6.27594">
        <ele>1560.84</ele>
        <time>2013-07-14T13:23:02Z</time>
      </trkpt>
      <trkpt lat="46.5734" lon="6.27587">
        <ele>1561.8</ele>
        <time>2013-07-14T13:23:10Z</time>
      </trkpt>
      <trkpt lat="46.57335" lon="6.27583">
        <ele>1563.72</ele>
        <time>2013-07-14T13:23:16Z</time>
      </trkpt>
      <trkpt lat="46.57326" lon="6.27581">
        <ele>1565.16</ele>
        <time>2013-07-14T13:23:24Z</time>
      </trkpt>
      <trkpt lat="46.57317" lon="6.27586">
        <ele>1566.12</ele>
        <time>2013-07-14T13:23:33Z</time>
      </trkpt>
      <trkpt lat="46.57306" lon="6.27593">
        <ele>1566.12</ele>
        <time>2013-07-14T13:23:46Z</time>
      </trkpt>
      <trkpt lat="46.57305" lon="6.27593">
        <ele>1565.64</ele>
        <time>2013-07-14T13:23:47Z</time>
      </trkpt>
      <trkpt lat="46.57299" lon="6.27597">
        <ele>1564.2</ele>
        <time>2013-07-14T13:23:53Z</time>
      </trkpt>
      <trkpt lat="46.57296" lon="6.27601">
        <ele>1564.2</ele>
        <time>2013-07-14T13:24:10Z</time>
      </trkpt>
      <trkpt lat="46.57297" lon="6.27602">
        <ele>1564.2</ele>
        <time>2013-07-14T13:24:25Z</time>
      </trkpt>
      <trkpt lat="46.57297" lon="6.27602">
        <ele>1564.68</ele>
        <time>2013-07-14T13:24:27Z</time>
      </trkpt>
      <trkpt lat="46.57284" lon="6.27603">
        <ele>1564.2</ele>
        <time>2013-07-14T13:24:39Z</time>
      </trkpt>
      <trkpt lat="46.5728" lon="6.27603">
        <ele>1564.2</ele>
        <time>2013-07-14T13:24:43Z</time>
      </trkpt>
      <trkpt lat="46.57267" lon="6.27603">
        <ele>1565.16</ele>
        <time>2013-07-14T13:25:00Z</time>
      </trkpt>
      <trkpt lat="46.57267" lon="6.27602">
        <ele>1565.16</ele>
        <time>2013-07-14T13:25:11Z</time>
      </trkpt>
      <trkpt lat="46.5726" lon="6.27603">
        <ele>1564.2</ele>
        <time>2013-07-14T13:25:24Z</time>
      </trkpt>
      <trkpt lat="46.57255" lon="6.27604">
        <ele>1564.68</ele>
        <time>2013-07-14T13:25:29Z</time>
      </trkpt>
      <trkpt lat="46.57245" lon="6.2761">
        <ele>1564.68</ele>
        <time>2013-07-14T13:25:42Z</time>
      </trkpt>
      <trkpt lat="46.57243" lon="6.27611">
        <ele>1564.68</ele>
        <time>2013-07-14T13:25:45Z</time>
      </trkpt>
      <trkpt lat="46.57238" lon="6.27613">
        <ele>1564.2</ele>
        <time>2013-07-14T13:25:51Z</time>
      </trkpt>
      <trkpt lat="46.57223" lon="6.27607">
        <ele>1563.24</ele>
        <time>2013-07-14T13:26:04Z</time>
      </trkpt>
      <trkpt lat="46.57215" lon="6.27602">
        <ele>1562.28</ele>
        <time>2013-07-14T13:26:12Z</time>
      </trkpt>
      <trkpt lat="46.57212" lon="6.276">
        <ele>1563.24</ele>
        <time>2013-07-14T13:26:15Z</time>
      </trkpt>
      <trkpt lat="46.57205" lon="6.27593">
        <ele>1562.76</ele>
        <time>2013-07-14T13:26:23Z</time>
      </trkpt>
      <trkpt lat="46.57198" lon="6.27588">
        <ele>1562.28</ele>
        <time>2013-07-14T13:26:30Z</time>
      </trkpt>
      <trkpt lat="46.57196" lon="6.27586">
        <ele>1561.8</ele>
        <time>2013-07-14T13:26:32Z</time>
      </trkpt>
      <trkpt lat="46.57185" lon="6.27571">
        <ele>1560.36</ele>
        <time>2013-07-14T13:26:45Z</time>
      </trkpt>
      <trkpt lat="46.57182" lon="6.27566">
        <ele>1560.36</ele>
        <time>2013-07-14T13:26:49Z</time>
      </trkpt>
      <trkpt lat="46.57179" lon="6.27563">
        <ele>1559.4</ele>
        <time>2013-07-14T13:26:52Z</time>
      </trkpt>
      <trkpt lat="46.57177" lon="6.2756">
        <ele>1558.92</ele>
        <time>2013-07-14T13:26:58Z</time>
      </trkpt>
      <trkpt lat="46.57174" lon="6.27557">
        <ele>1558.43</ele>
        <time>2013-07-14T13:27:01Z</time>
      </trkpt>
      <trkpt lat="46.57173" lon="6.27553">
        <ele>1557.47</ele>
        <time>2013-07-14T13:27:04Z</time>
      </trkpt>
      <trkpt lat="46.57171" lon="6.27548">
        <ele>1557.95</ele>
        <time>2013-07-14T13:27:17Z</time>
      </trkpt>
      <trkpt lat="46.57171" lon="6.27547">
        <ele>1557.47</ele>
        <time>2013-07-14T13:27:32Z</time>
      </trkpt>
      <trkpt lat="46.57172" lon="6.27548">
        <ele>1557.47</ele>
        <time>2013-07-14T13:27:58Z</time>
      </trkpt>
      <trkpt lat="46.5717" lon="6.27548">
        <ele>1556.99</ele>
        <time>2013-07-14T13:28:08Z</time>
      </trkpt>
      <trkpt lat="46.57163" lon="6.27553">
        <ele>1556.03</ele>
        <time>2013-07-14T13:28:17Z</time>
      </trkpt>
      <trkpt lat="46.57157" lon="6.27549">
        <ele>1554.11</ele>
        <time>2013-07-14T13:28:23Z</time>
      </trkpt>
      <trkpt lat="46.57155" lon="6.27547">
        <ele>1554.59</ele>
        <time>2013-07-14T13:28:25Z</time>
      </trkpt>
      <trkpt lat="46.57153" lon="6.27544">
        <ele>1554.11</ele>
        <time>2013-07-14T13:28:28Z</time>
      </trkpt>
      <trkpt lat="46.5715" lon="6.27541">
        <ele>1553.63</ele>
        <time>2013-07-14T13:28:33Z</time>
      </trkpt>
      <trkpt lat="46.57144" lon="6.2753">
        <ele>1551.71</ele>
        <time>2013-07-14T13:28:48Z</time>
      </trkpt>
      <trkpt lat="46.57142" lon="6.27526">
        <ele>1550.26</ele>
        <time>2013-07-14T13:28:53Z</time>
      </trkpt>
      <trkpt lat="46.57136" lon="6.27519">
        <ele>1548.34</ele>
        <time>2013-07-14T13:29:09Z</time>
      </trkpt>
      <trkpt lat="46.57136" lon="6.27518">
        <ele>1548.34</ele>
        <time>2013-07-14T13:29:11Z</time>
      </trkpt>
      <trkpt lat="46.57125" lon="6.27502">
        <ele>1544.98</ele>
        <time>2013-07-14T13:29:25Z</time>
      </trkpt>
      <trkpt lat="46.57118" lon="6.27491">
        <ele>1542.09</ele>
        <time>2013-07-14T13:29:35Z</time>
      </trkpt>
      <trkpt lat="46.57109" lon="6.27482">
        <ele>1540.17</ele>
        <time>2013-07-14T13:29:48Z</time>
      </trkpt>
      <trkpt lat="46.57108" lon="6.27479">
        <ele>1538.73</ele>
        <time>2013-07-14T13:29:53Z</time>
      </trkpt>
      <trkpt lat="46.57106" lon="6.27476">
        <ele>1538.73</ele>
        <time>2013-07-14T13:29:55Z</time>
      </trkpt>
      <trkpt lat="46.57102" lon="6.27472">
        <ele>1537.29</ele>
        <time>2013-07-14T13:30:04Z</time>
      </trkpt>
      <trkpt lat="46.57098" lon="6.27462">
        <ele>1535.84</ele>
        <time>2013-07-14T13:30:17Z</time>
      </trkpt>
      <trkpt lat="46.57095" lon="6.27455">
        <ele>1534.4</ele>
        <time>2013-07-14T13:30:24Z</time>
      </trkpt>
      <trkpt lat="46.57087" lon="6.27439">
        <ele>1531.04</ele>
        <time>2013-07-14T13:30:37Z</time>
      </trkpt>
      <trkpt lat="46.57076" lon="6.27425">
        <ele>1528.15</ele>
        <time>2013-07-14T13:30:51Z</time>
      </trkpt>
      <trkpt lat="46.57075" lon="6.27423">
        <ele>1527.19</ele>
        <time>2013-07-14T13:30:53Z</time>
      </trkpt>
      <trkpt lat="46.57064" lon="6.27407">
        <ele>1524.31</ele>
        <time>2013-07-14T13:31:07Z</time>
      </trkpt>
      <trkpt lat="46.57055" lon="6.27394">
        <ele>1520.94</ele>
        <time>2013-07-14T13:31:17Z</time>
      </trkpt>
      <trkpt lat="46.57046" lon="6.27384">
        <ele>1518.54</ele>
        <time>2013-07-14T13:31:28Z</time>
      </trkpt>
      <trkpt lat="46.57035" lon="6.2737">
        <ele>1516.62</ele>
        <time>2013-07-14T13:31:41Z</time>
      </trkpt>
      <trkpt lat="46.57033" lon="6.27369">
        <ele>1515.66</ele>
        <time>2013-07-14T13:31:43Z</time>
      </trkpt>
      <trkpt lat="46.57023" lon="6.27362">
        <ele>1512.77</ele>
        <time>2013-07-14T13:31:55Z</time>
      </trkpt>
      <trkpt lat="46.57014" lon="6.27352">
        <ele>1509.41</ele>
        <time>2013-07-14T13:32:07Z</time>
      </trkpt>
      <trkpt lat="46.57002" lon="6.27339">
        <ele>1506.04</ele>
        <time>2013-07-14T13:32:20Z</time>
      </trkpt>
      <trkpt lat="46.56992" lon="6.27328">
        <ele>1505.08</ele>
        <time>2013-07-14T13:32:33Z</time>
      </trkpt>
      <trkpt lat="46.56981" lon="6.27326">
        <ele>1505.56</ele>
        <time>2013-07-14T13:32:49Z</time>
      </trkpt>
      <trkpt lat="46.56981" lon="6.27327">
        <ele>1500.76</ele>
        <time>2013-07-14T13:33:05Z</time>
      </trkpt>
      <trkpt lat="46.56981" lon="6.27327">
        <ele>1507.48</ele>
        <time>2013-07-14T13:33:06Z</time>
      </trkpt>
      <trkpt lat="46.56981" lon="6.27327">
        <ele>1505.56</ele>
        <time>2013-07-14T13:33:35Z</time>
      </trkpt>
      <trkpt lat="46.56977" lon="6.27325">
        <ele>1506.04</ele>
        <time>2013-07-14T13:33:58Z</time>
      </trkpt>
      <trkpt lat="46.56971" lon="6.27323">
        <ele>1506.04</ele>
        <time>2013-07-14T13:34:14Z</time>
      </trkpt>
      <trkpt lat="46.56969" lon="6.27319">
        <ele>1502.2</ele>
        <time>2013-07-14T13:34:20Z</time>
      </trkpt>
      <trkpt lat="46.56968" lon="6.27318">
        <ele>1508.93</ele>
        <time>2013-07-14T13:34:21Z</time>
      </trkpt>
      <trkpt lat="46.56968" lon="6.27318">
        <ele>1508.45</ele>
        <time>2013-07-14T13:34:22Z</time>
      </trkpt>
      <trkpt lat="46.56967" lon="6.27316">
        <ele>1504.6</ele>
        <time>2013-07-14T13:34:24Z</time>
      </trkpt>
      <trkpt lat="46.56966" lon="6.27315">
        <ele>1509.41</ele>
        <time>2013-07-14T13:34:26Z</time>
      </trkpt>
      <trkpt lat="46.56963" lon="6.27313">
        <ele>1505.56</ele>
        <time>2013-07-14T13:34:29Z</time>
      </trkpt>
      <trkpt lat="46.56962" lon="6.27312">
        <ele>1509.89</ele>
        <time>2013-07-14T13:34:30Z</time>
      </trkpt>
      <trkpt lat="46.56959" lon="6.27309">
        <ele>1506.52</ele>
        <time>2013-07-14T13:34:35Z</time>
      </trkpt>
      <trkpt lat="46.56955" lon="6.27308">
        <ele>1509.41</ele>
        <time>2013-07-14T13:34:40Z</time>
      </trkpt>
      <trkpt lat="46.56951" lon="6.27307">
        <ele>1509.89</ele>
        <time>2013-07-14T13:34:44Z</time>
      </trkpt>
      <trkpt lat="46.56936" lon="6.27298">
        <ele>1512.29</ele>
        <time>2013-07-14T13:34:58Z</time>
      </trkpt>
      <trkpt lat="46.56921" lon="6.27297">
        <ele>1514.69</ele>
        <time>2013-07-14T13:35:15Z</time>
      </trkpt>
      <trkpt lat="46.56919" lon="6.27297">
        <ele>1515.66</ele>
        <time>2013-07-14T13:35:17Z</time>
      </trkpt>
      <trkpt lat="46.56916" lon="6.27298">
        <ele>1515.18</ele>
        <time>2013-07-14T13:35:37Z</time>
      </trkpt>
      <trkpt lat="46.56911" lon="6.27293">
        <ele>1517.1</ele>
        <time>2013-07-14T13:35:57Z</time>
      </trkpt>
      <trkpt lat="46.56896" lon="6.27288">
        <ele>1520.46</ele>
        <time>2013-07-14T13:36:14Z</time>
      </trkpt>
      <trkpt lat="46.5688" lon="6.27282">
        <ele>1521.42</ele>
        <time>2013-07-14T13:36:31Z</time>
      </trkpt>
      <trkpt lat="46.56867" lon="6.27278">
        <ele>1522.87</ele>
        <time>2013-07-14T13:36:48Z</time>
      </trkpt>
      <trkpt lat="46.56864" lon="6.27276">
        <ele>1523.83</ele>
        <time>2013-07-14T13:36:53Z</time>
      </trkpt>
      <trkpt lat="46.56862" lon="6.27274">
        <ele>1523.83</ele>
        <time>2013-07-14T13:36:56Z</time>
      </trkpt>
      <trkpt lat="46.56843" lon="6.27271">
        <ele>1525.75</ele>
        <time>2013-07-14T13:37:12Z</time>
      </trkpt>
      <trkpt lat="46.56838" lon="6.27268">
        <ele>1525.75</ele>
        <time>2013-07-14T13:37:18Z</time>
      </trkpt>
      <trkpt lat="46.56823" lon="6.27255">
        <ele>1525.27</ele>
        <time>2013-07-14T13:37:35Z</time>
      </trkpt>
      <trkpt lat="46.56811" lon="6.2725">
        <ele>1525.27</ele>
        <time>2013-07-14T13:37:48Z</time>
      </trkpt>
      <trkpt lat="46.56801" lon="6.27247">
        <ele>1525.75</ele>
        <time>2013-07-14T13:37:57Z</time>
      </trkpt>
      <trkpt lat="46.56784" lon="6.27234">
        <ele>1525.27</ele>
        <time>2013-07-14T13:38:14Z</time>
      </trkpt>
      <trkpt lat="46.56767" lon="6.27224">
        <ele>1525.75</ele>
        <time>2013-07-14T13:38:30Z</time>
      </trkpt>
      <trkpt lat="46.56754" lon="6.27218">
        <ele>1523.83</ele>
        <time>2013-07-14T13:38:42Z</time>
      </trkpt>
      <trkpt lat="46.56738" lon="6.27207">
        <ele>1522.39</ele>
        <time>2013-07-14T13:38:56Z</time>
      </trkpt>
      <trkpt lat="46.56731" lon="6.27201">
        <ele>1520.94</ele>
        <time>2013-07-14T13:39:07Z</time>
      </trkpt>
      <trkpt lat="46.56729" lon="6.27199">
        <ele>1521.42</ele>
        <time>2013-07-14T13:39:09Z</time>
      </trkpt>
      <trkpt lat="46.56726" lon="6.27197">
        <ele>1520.94</ele>
        <time>2013-07-14T13:39:12Z</time>
      </trkpt>
      <trkpt lat="46.56716" lon="6.27188">
        <ele>1519.02</ele>
        <time>2013-07-14T13:39:23Z</time>
      </trkpt>
      <trkpt lat="46.5671" lon="6.27184">
        <ele>1519.5</ele>
        <time>2013-07-14T13:39:35Z</time>
      </trkpt>
      <trkpt lat="46.56706" lon="6.27182">
        <ele>1519.02</ele>
        <time>2013-07-14T13:39:40Z</time>
      </trkpt>
      <trkpt lat="46.56702" lon="6.27177">
        <ele>1518.06</ele>
        <time>2013-07-14T13:39:53Z</time>
      </trkpt>
      <trkpt lat="46.56697" lon="6.27172">
        <ele>1517.58</ele>
        <time>2013-07-14T13:39:57Z</time>
      </trkpt>
      <trkpt lat="46.56693" lon="6.27169">
        <ele>1517.1</ele>
        <time>2013-07-14T13:40:09Z</time>
      </trkpt>
      <trkpt lat="46.56688" lon="6.27167">
        <ele>1516.14</ele>
        <time>2013-07-14T13:40:23Z</time>
      </trkpt>
      <trkpt lat="46.56688" lon="6.27168">
        <ele>1515.66</ele>
        <time>2013-07-14T13:40:47Z</time>
      </trkpt>
      <trkpt lat="46.56687" lon="6.27168">
        <ele>1516.62</ele>
        <time>2013-07-14T13:41:13Z</time>
      </trkpt>
      <trkpt lat="46.56683" lon="6.27163">
        <ele>1514.69</ele>
        <time>2013-07-14T13:41:31Z</time>
      </trkpt>
      <trkpt lat="46.5668" lon="6.27162">
        <ele>1514.69</ele>
        <time>2013-07-14T13:41:33Z</time>
      </trkpt>
      <trkpt lat="46.5667" lon="6.27144">
        <ele>1512.77</ele>
        <time>2013-07-14T13:41:47Z</time>
      </trkpt>
      <trkpt lat="46.5666" lon="6.27134">
        <ele>1510.37</ele>
        <time>2013-07-14T13:41:59Z</time>
      </trkpt>
      <trkpt lat="46.56656" lon="6.27128">
        <ele>1509.41</ele>
        <time>2013-07-14T13:42:04Z</time>
      </trkpt>
      <trkpt lat="46.56653" lon="6.27125">
        <ele>1508.93</ele>
        <time>2013-07-14T13:42:07Z</time>
      </trkpt>
      <trkpt lat="46.56647" lon="6.2712">
        <ele>1507.97</ele>
        <time>2013-07-14T13:42:13Z</time>
      </trkpt>
      <trkpt lat="46.56644" lon="6.27117">
        <ele>1507.48</ele>
        <time>2013-07-14T13:42:15Z</time>
      </trkpt>
      <trkpt lat="46.5663" lon="6.27105">
        <ele>1505.08</ele>
        <time>2013-07-14T13:42:29Z</time>
      </trkpt>
      <trkpt lat="46.56619" lon="6.27094">
        <ele>1502.2</ele>
        <time>2013-07-14T13:42:42Z</time>
      </trkpt>
      <trkpt lat="46.56609" lon="6.27087">
        <ele>1501.24</ele>
        <time>2013-07-14T13:42:55Z</time>
      </trkpt>
      <trkpt lat="46.56603" lon="6.27081">
        <ele>1499.79</ele>
        <time>2013-07-14T13:43:08Z</time>
      </trkpt>
      <trkpt lat="46.56599" lon="6.27077">
        <ele>1499.31</ele>
        <time>2013-07-14T13:43:27Z</time>
      </trkpt>
      <trkpt lat="46.56598" lon="6.27077">
        <ele>1499.31</ele>
        <time>2013-07-14T13:43:48Z</time>
      </trkpt>
      <trkpt lat="46.56598" lon="6.27076">
        <ele>1499.31</ele>
        <time>2013-07-14T13:44:02Z</time>
      </trkpt>
      <trkpt lat="46.56595" lon="6.27071">
        <ele>1498.83</ele>
        <time>2013-07-14T13:44:24Z</time>
      </trkpt>
      <trkpt lat="46.56585" lon="6.27063">
        <ele>1496.91</ele>
        <time>2013-07-14T13:44:38Z</time>
      </trkpt>
      <trkpt lat="46.56579" lon="6.2706">
        <ele>1495.95</ele>
        <time>2013-07-14T13:44:43Z</time>
      </trkpt>
      <trkpt lat="46.56576" lon="6.27055">
        <ele>1495.47</ele>
        <time>2013-07-14T13:44:48Z</time>
      </trkpt>
      <trkpt lat="46.56572" lon="6.27053">
        <ele>1495.47</ele>
        <time>2013-07-14T13:44:52Z</time>
      </trkpt>
      <trkpt lat="46.56563" lon="6.27044">
        <ele>1494.03</ele>
        <time>2013-07-14T13:45:03Z</time>
      </trkpt>
      <trkpt lat="46.56555" lon="6.27033">
        <ele>1493.06</ele>
        <time>2013-07-14T13:45:15Z</time>
      </trkpt>
      <trkpt lat="46.56553" lon="6.27031">
        <ele>1493.06</ele>
        <time>2013-07-14T13:45:18Z</time>
      </trkpt>
      <trkpt lat="46.5655" lon="6.27027">
        <ele>1491.62</ele>
        <time>2013-07-14T13:45:23Z</time>
      </trkpt>
      <trkpt lat="46.56549" lon="6.27026">
        <ele>1491.62</ele>
        <time>2013-07-14T13:45:26Z</time>
      </trkpt>
      <trkpt lat="46.56545" lon="6.27023">
        <ele>1491.14</ele>
        <time>2013-07-14T13:45:32Z</time>
      </trkpt>
      <trkpt lat="46.56542" lon="6.27021">
        <ele>1491.14</ele>
        <time>2013-07-14T13:45:35Z</time>
      </trkpt>
      <trkpt lat="46.56538" lon="6.27018">
        <ele>1490.66</ele>
        <time>2013-07-14T13:45:40Z</time>
      </trkpt>
      <trkpt lat="46.56532" lon="6.27012">
        <ele>1490.18</ele>
        <time>2013-07-14T13:45:47Z</time>
      </trkpt>
      <trkpt lat="46.56529" lon="6.27011">
        <ele>1489.7</ele>
        <time>2013-07-14T13:45:56Z</time>
      </trkpt>
      <trkpt lat="46.56526" lon="6.27008">
        <ele>1489.7</ele>
        <time>2013-07-14T13:46:00Z</time>
      </trkpt>
      <trkpt lat="46.56519" lon="6.27001">
        <ele>1489.22</ele>
        <time>2013-07-14T13:46:06Z</time>
      </trkpt>
      <trkpt lat="46.56508" lon="6.2699">
        <ele>1488.26</ele>
        <time>2013-07-14T13:46:16Z</time>
      </trkpt>
      <trkpt lat="46.56507" lon="6.26989">
        <ele>1487.78</ele>
        <time>2013-07-14T13:46:18Z</time>
      </trkpt>
      <trkpt lat="46.56505" lon="6.26986">
        <ele>1488.26</ele>
        <time>2013-07-14T13:46:21Z</time>
      </trkpt>
      <trkpt lat="46.56502" lon="6.26981">
        <ele>1487.78</ele>
        <time>2013-07-14T13:46:26Z</time>
      </trkpt>
      <trkpt lat="46.56497" lon="6.26979">
        <ele>1487.78</ele>
        <time>2013-07-14T13:46:31Z</time>
      </trkpt>
      <trkpt lat="46.56487" lon="6.26968">
        <ele>1485.85</ele>
        <time>2013-07-14T13:46:43Z</time>
      </trkpt>
      <trkpt lat="46.56484" lon="6.26965">
        <ele>1485.37</ele>
        <time>2013-07-14T13:46:47Z</time>
      </trkpt>
      <trkpt lat="46.56482" lon="6.26961">
        <ele>1484.89</ele>
        <time>2013-07-14T13:46:58Z</time>
      </trkpt>
      <trkpt lat="46.56476" lon="6.26953">
        <ele>1484.41</ele>
        <time>2013-07-14T13:47:06Z</time>
      </trkpt>
      <trkpt lat="46.56475" lon="6.26948">
        <ele>1484.89</ele>
        <time>2013-07-14T13:47:09Z</time>
      </trkpt>
      <trkpt lat="46.5647" lon="6.2693">
        <ele>1483.93</ele>
        <time>2013-07-14T13:47:20Z</time>
      </trkpt>
      <trkpt lat="46.5646" lon="6.26918">
        <ele>1482.97</ele>
        <time>2013-07-14T13:47:31Z</time>
      </trkpt>
      <trkpt lat="46.56455" lon="6.26912">
        <ele>1482.01</ele>
        <time>2013-07-14T13:47:37Z</time>
      </trkpt>
      <trkpt lat="46.56445" lon="6.26899">
        <ele>1481.05</ele>
        <time>2013-07-14T13:47:49Z</time>
      </trkpt>
      <trkpt lat="46.56435" lon="6.26882">
        <ele>1480.09</ele>
        <time>2013-07-14T13:48:02Z</time>
      </trkpt>
      <trkpt lat="46.56429" lon="6.26873">
        <ele>1479.13</ele>
        <time>2013-07-14T13:48:08Z</time>
      </trkpt>
      <trkpt lat="46.56425" lon="6.2686">
        <ele>1477.68</ele>
        <time>2013-07-14T13:48:18Z</time>
      </trkpt>
      <trkpt lat="46.56433" lon="6.2684">
        <ele>1476.72</ele>
        <time>2013-07-14T13:48:29Z</time>
      </trkpt>
      <trkpt lat="46.56438" lon="6.26822">
        <ele>1474.8</ele>
        <time>2013-07-14T13:48:41Z</time>
      </trkpt>
      <trkpt lat="46.56439" lon="6.26815">
        <ele>1474.32</ele>
        <time>2013-07-14T13:48:46Z</time>
      </trkpt>
      <trkpt lat="46.56438" lon="6.26803">
        <ele>1472.88</ele>
        <time>2013-07-14T13:48:53Z</time>
      </trkpt>
      <trkpt lat="46.56437" lon="6.26799">
        <ele>1472.4</ele>
        <time>2013-07-14T13:48:55Z</time>
      </trkpt>
      <trkpt lat="46.56434" lon="6.26793">
        <ele>1472.4</ele>
        <time>2013-07-14T13:49:00Z</time>
      </trkpt>
      <trkpt lat="46.56432" lon="6.26789">
        <ele>1471.92</ele>
        <time>2013-07-14T13:49:03Z</time>
      </trkpt>
      <trkpt lat="46.56429" lon="6.2678">
        <ele>1470.95</ele>
        <time>2013-07-14T13:49:08Z</time>
      </trkpt>
      <trkpt lat="46.56429" lon="6.26764">
        <ele>1471.44</ele>
        <time>2013-07-14T13:49:17Z</time>
      </trkpt>
      <trkpt lat="46.56427" lon="6.26744">
        <ele>1471.92</ele>
        <time>2013-07-14T13:49:28Z</time>
      </trkpt>
      <trkpt lat="46.56424" lon="6.26724">
        <ele>1471.92</ele>
        <time>2013-07-14T13:49:40Z</time>
      </trkpt>
      <trkpt lat="46.5642" lon="6.26718">
        <ele>1471.92</ele>
        <time>2013-07-14T13:49:45Z</time>
      </trkpt>
      <trkpt lat="46.56411" lon="6.26706">
        <ele>1472.4</ele>
        <time>2013-07-14T13:49:55Z</time>
      </trkpt>
      <trkpt lat="46.56408" lon="6.26703">
        <ele>1472.88</ele>
        <time>2013-07-14T13:49:59Z</time>
      </trkpt>
      <trkpt lat="46.56404" lon="6.267">
        <ele>1472.88</ele>
        <time>2013-07-14T13:50:03Z</time>
      </trkpt>
      <trkpt lat="46.564" lon="6.26697">
        <ele>1473.36</ele>
        <time>2013-07-14T13:50:08Z</time>
      </trkpt>
      <trkpt lat="46.56396" lon="6.26695">
        <ele>1473.84</ele>
        <time>2013-07-14T13:50:11Z</time>
      </trkpt>
      <trkpt lat="46.56382" lon="6.26687">
        <ele>1473.36</ele>
        <time>2013-07-14T13:50:26Z</time>
      </trkpt>
      <trkpt lat="46.56378" lon="6.2668">
        <ele>1473.84</ele>
        <time>2013-07-14T13:50:33Z</time>
      </trkpt>
      <trkpt lat="46.56368" lon="6.26668">
        <ele>1474.32</ele>
        <time>2013-07-14T13:50:44Z</time>
      </trkpt>
      <trkpt lat="46.56364" lon="6.26663">
        <ele>1474.8</ele>
        <time>2013-07-14T13:50:49Z</time>
      </trkpt>
      <trkpt lat="46.56359" lon="6.26657">
        <ele>1474.8</ele>
        <time>2013-07-14T13:50:54Z</time>
      </trkpt>
      <trkpt lat="46.56354" lon="6.26646">
        <ele>1474.8</ele>
        <time>2013-07-14T13:51:02Z</time>
      </trkpt>
      <trkpt lat="46.56347" lon="6.26641">
        <ele>1474.8</ele>
        <time>2013-07-14T13:51:07Z</time>
      </trkpt>
      <trkpt lat="46.56345" lon="6.26638">
        <ele>1475.28</ele>
        <time>2013-07-14T13:51:09Z</time>
      </trkpt>
      <trkpt lat="46.56338" lon="6.26628">
        <ele>1475.28</ele>
        <time>2013-07-14T13:51:18Z</time>
      </trkpt>
      <trkpt lat="46.56331" lon="6.26616">
        <ele>1474.8</ele>
        <time>2013-07-14T13:51:28Z</time>
      </trkpt>
      <trkpt lat="46.56325" lon="6.2661">
        <ele>1474.32</ele>
        <time>2013-07-14T13:51:34Z</time>
      </trkpt>
      <trkpt lat="46.56324" lon="6.26606">
        <ele>1474.32</ele>
        <time>2013-07-14T13:51:36Z</time>
      </trkpt>
      <trkpt lat="46.56321" lon="6.266">
        <ele>1473.84</ele>
        <time>2013-07-14T13:51:40Z</time>
      </trkpt>
      <trkpt lat="46.56318" lon="6.26597">
        <ele>1473.84</ele>
        <time>2013-07-14T13:51:43Z</time>
      </trkpt>
      <trkpt lat="46.56308" lon="6.26582">
        <ele>1472.88</ele>
        <time>2013-07-14T13:51:55Z</time>
      </trkpt>
      <trkpt lat="46.56302" lon="6.26576">
        <ele>1471.92</ele>
        <time>2013-07-14T13:52:01Z</time>
      </trkpt>
      <trkpt lat="46.563" lon="6.26572">
        <ele>1471.44</ele>
        <time>2013-07-14T13:52:04Z</time>
      </trkpt>
      <trkpt lat="46.56288" lon="6.26563">
        <ele>1470.47</ele>
        <time>2013-07-14T13:52:15Z</time>
      </trkpt>
      <trkpt lat="46.5628" lon="6.26554">
        <ele>1469.99</ele>
        <time>2013-07-14T13:52:24Z</time>
      </trkpt>
      <trkpt lat="46.56275" lon="6.26547">
        <ele>1469.99</ele>
        <time>2013-07-14T13:52:29Z</time>
      </trkpt>
      <trkpt lat="46.56257" lon="6.2654">
        <ele>1469.99</ele>
        <time>2013-07-14T13:52:43Z</time>
      </trkpt>
      <trkpt lat="46.56248" lon="6.26531">
        <ele>1468.07</ele>
        <time>2013-07-14T13:52:53Z</time>
      </trkpt>
      <trkpt lat="46.56238" lon="6.26517">
        <ele>1468.55</ele>
        <time>2013-07-14T13:53:07Z</time>
      </trkpt>
      <trkpt lat="46.56237" lon="6.2651">
        <ele>1468.55</ele>
        <time>2013-07-14T13:53:12Z</time>
      </trkpt>
      <trkpt lat="46.56236" lon="6.26505">
        <ele>1469.03</ele>
        <time>2013-07-14T13:53:15Z</time>
      </trkpt>
      <trkpt lat="46.56234" lon="6.26501">
        <ele>1469.51</ele>
        <time>2013-07-14T13:53:18Z</time>
      </trkpt>
      <trkpt lat="46.56234" lon="6.26496">
        <ele>1469.51</ele>
        <time>2013-07-14T13:53:21Z</time>
      </trkpt>
      <trkpt lat="46.56235" lon="6.26489">
        <ele>1469.99</ele>
        <time>2013-07-14T13:53:25Z</time>
      </trkpt>
      <trkpt lat="46.56233" lon="6.26483">
        <ele>1470.47</ele>
        <time>2013-07-14T13:53:29Z</time>
      </trkpt>
      <trkpt lat="46.56232" lon="6.26477">
        <ele>1470.47</ele>
        <time>2013-07-14T13:53:34Z</time>
      </trkpt>
      <trkpt lat="46.5623" lon="6.26466">
        <ele>1471.92</ele>
        <time>2013-07-14T13:53:48Z</time>
      </trkpt>
      <trkpt lat="46.56229" lon="6.26467">
        <ele>1471.92</ele>
        <time>2013-07-14T13:54:13Z</time>
      </trkpt>
      <trkpt lat="46.56228" lon="6.2646">
        <ele>1472.4</ele>
        <time>2013-07-14T13:54:23Z</time>
      </trkpt>
      <trkpt lat="46.56226" lon="6.2644">
        <ele>1472.88</ele>
        <time>2013-07-14T13:54:34Z</time>
      </trkpt>
      <trkpt lat="46.56216" lon="6.26422">
        <ele>1472.4</ele>
        <time>2013-07-14T13:54:49Z</time>
      </trkpt>
      <trkpt lat="46.5621" lon="6.26407">
        <ele>1471.92</ele>
        <time>2013-07-14T13:55:06Z</time>
      </trkpt>
      <trkpt lat="46.56209" lon="6.26402">
        <ele>1471.92</ele>
        <time>2013-07-14T13:55:10Z</time>
      </trkpt>
      <trkpt lat="46.56201" lon="6.26395">
        <ele>1472.4</ele>
        <time>2013-07-14T13:55:22Z</time>
      </trkpt>
      <trkpt lat="46.56197" lon="6.26393">
        <ele>1472.4</ele>
        <time>2013-07-14T13:55:31Z</time>
      </trkpt>
      <trkpt lat="46.56186" lon="6.26379">
        <ele>1472.88</ele>
        <time>2013-07-14T13:55:45Z</time>
      </trkpt>
      <trkpt lat="46.56177" lon="6.26367">
        <ele>1472.88</ele>
        <time>2013-07-14T13:55:57Z</time>
      </trkpt>
      <trkpt lat="46.56165" lon="6.26342">
        <ele>1473.84</ele>
        <time>2013-07-14T13:56:13Z</time>
      </trkpt>
      <trkpt lat="46.56151" lon="6.26325">
        <ele>1473.84</ele>
        <time>2013-07-14T13:56:27Z</time>
      </trkpt>
      <trkpt lat="46.5614" lon="6.26314">
        <ele>1473.84</ele>
        <time>2013-07-14T13:56:40Z</time>
      </trkpt>
      <trkpt lat="46.56123" lon="6.26302">
        <ele>1474.8</ele>
        <time>2013-07-14T13:56:55Z</time>
      </trkpt>
      <trkpt lat="46.56117" lon="6.26292">
        <ele>1474.8</ele>
        <time>2013-07-14T13:57:03Z</time>
      </trkpt>
      <trkpt lat="46.56113" lon="6.26285">
        <ele>1475.76</ele>
        <time>2013-07-14T13:57:08Z</time>
      </trkpt>
      <trkpt lat="46.56115" lon="6.26275">
        <ele>1476.24</ele>
        <time>2013-07-14T13:57:14Z</time>
      </trkpt>
      <trkpt lat="46.56116" lon="6.26267">
        <ele>1476.72</ele>
        <time>2013-07-14T13:57:19Z</time>
      </trkpt>
      <trkpt lat="46.56111" lon="6.26252">
        <ele>1477.68</ele>
        <time>2013-07-14T13:57:33Z</time>
      </trkpt>
      <trkpt lat="46.56109" lon="6.26252">
        <ele>1477.2</ele>
        <time>2013-07-14T13:57:36Z</time>
      </trkpt>
      <trkpt lat="46.56101" lon="6.26238">
        <ele>1477.68</ele>
        <time>2013-07-14T13:57:46Z</time>
      </trkpt>
      <trkpt lat="46.56093" lon="6.26222">
        <ele>1477.2</ele>
        <time>2013-07-14T13:57:56Z</time>
      </trkpt>
      <trkpt lat="46.56083" lon="6.26205">
        <ele>1476.72</ele>
        <time>2013-07-14T13:58:10Z</time>
      </trkpt>
      <trkpt lat="46.56076" lon="6.26192">
        <ele>1476.24</ele>
        <time>2013-07-14T13:58:21Z</time>
      </trkpt>
      <trkpt lat="46.56065" lon="6.26173">
        <ele>1474.32</ele>
        <time>2013-07-14T13:58:37Z</time>
      </trkpt>
      <trkpt lat="46.56064" lon="6.2617">
        <ele>1473.84</ele>
        <time>2013-07-14T13:58:39Z</time>
      </trkpt>
      <trkpt lat="46.56051" lon="6.26148">
        <ele>1472.88</ele>
        <time>2013-07-14T13:58:55Z</time>
      </trkpt>
      <trkpt lat="46.56052" lon="6.26143">
        <ele>1471.92</ele>
        <time>2013-07-14T13:59:12Z</time>
      </trkpt>
      <trkpt lat="46.56051" lon="6.26146">
        <ele>1472.4</ele>
        <time>2013-07-14T13:59:46Z</time>
      </trkpt>
      <trkpt lat="46.56048" lon="6.26144">
        <ele>1471.92</ele>
        <time>2013-07-14T13:59:49Z</time>
      </trkpt>
      <trkpt lat="46.56036" lon="6.26128">
        <ele>1470.47</ele>
        <time>2013-07-14T14:00:03Z</time>
      </trkpt>
      <trkpt lat="46.56034" lon="6.26126">
        <ele>1470.47</ele>
        <time>2013-07-14T14:00:23Z</time>
      </trkpt>
      <trkpt lat="46.56026" lon="6.2612">
        <ele>1469.03</ele>
        <time>2013-07-14T14:00:39Z</time>
      </trkpt>
      <trkpt lat="46.56021" lon="6.26109">
        <ele>1468.07</ele>
        <time>2013-07-14T14:00:51Z</time>
      </trkpt>
      <trkpt lat="46.5602" lon="6.26107">
        <ele>1467.11</ele>
        <time>2013-07-14T14:00:58Z</time>
      </trkpt>
      <trkpt lat="46.56017" lon="6.26096">
        <ele>1466.63</ele>
        <time>2013-07-14T14:01:04Z</time>
      </trkpt>
      <trkpt lat="46.56014" lon="6.26094">
        <ele>1466.15</ele>
        <time>2013-07-14T14:01:07Z</time>
      </trkpt>
      <trkpt lat="46.56006" lon="6.26078">
        <ele>1464.23</ele>
        <time>2013-07-14T14:01:21Z</time>
      </trkpt>
      <trkpt lat="46.56001" lon="6.26073">
        <ele>1463.74</ele>
        <time>2013-07-14T14:01:27Z</time>
      </trkpt>
      <trkpt lat="46.55997" lon="6.26066">
        <ele>1463.26</ele>
        <time>2013-07-14T14:01:32Z</time>
      </trkpt>
      <trkpt lat="46.55984" lon="6.26051">
        <ele>1462.3</ele>
        <time>2013-07-14T14:01:44Z</time>
      </trkpt>
      <trkpt lat="46.55973" lon="6.26028">
        <ele>1457.98</ele>
        <time>2013-07-14T14:01:57Z</time>
      </trkpt>
      <trkpt lat="46.55972" lon="6.26028">
        <ele>1462.3</ele>
        <time>2013-07-14T14:01:58Z</time>
      </trkpt>
      <trkpt lat="46.55969" lon="6.26022">
        <ele>1459.42</ele>
        <time>2013-07-14T14:02:03Z</time>
      </trkpt>
      <trkpt lat="46.55961" lon="6.26011">
        <ele>1455.57</ele>
        <time>2013-07-14T14:02:17Z</time>
      </trkpt>
      <trkpt lat="46.55961" lon="6.2601">
        <ele>1462.3</ele>
        <time>2013-07-14T14:02:18Z</time>
      </trkpt>
      <trkpt lat="46.5596" lon="6.26009">
        <ele>1458.46</ele>
        <time>2013-07-14T14:02:19Z</time>
      </trkpt>
      <trkpt lat="46.55958" lon="6.26006">
        <ele>1456.53</ele>
        <time>2013-07-14T14:02:27Z</time>
      </trkpt>
      <trkpt lat="46.55951" lon="6.25994">
        <ele>1456.53</ele>
        <time>2013-07-14T14:02:41Z</time>
      </trkpt>
      <trkpt lat="46.55947" lon="6.25983">
        <ele>1455.57</ele>
        <time>2013-07-14T14:02:56Z</time>
      </trkpt>
      <trkpt lat="46.55946" lon="6.25976">
        <ele>1454.61</ele>
        <time>2013-07-14T14:03:00Z</time>
      </trkpt>
      <trkpt lat="46.55947" lon="6.2596">
        <ele>1452.69</ele>
        <time>2013-07-14T14:03:07Z</time>
      </trkpt>
      <trkpt lat="46.55954" lon="6.25949">
        <ele>1452.69</ele>
        <time>2013-07-14T14:03:12Z</time>
      </trkpt>
      <trkpt lat="46.55958" lon="6.2594">
        <ele>1456.53</ele>
        <time>2013-07-14T14:03:18Z</time>
      </trkpt>
      <trkpt lat="46.5596" lon="6.2594">
        <ele>1454.13</ele>
        <time>2013-07-14T14:03:19Z</time>
      </trkpt>
      <trkpt lat="46.55952" lon="6.25914">
        <ele>1456.53</ele>
        <time>2013-07-14T14:03:36Z</time>
      </trkpt>
      <trkpt lat="46.55954" lon="6.25898">
        <ele>1456.53</ele>
        <time>2013-07-14T14:03:47Z</time>
      </trkpt>
      <trkpt lat="46.55949" lon="6.25883">
        <ele>1457.02</ele>
        <time>2013-07-14T14:04:02Z</time>
      </trkpt>
      <trkpt lat="46.5594" lon="6.25875">
        <ele>1455.57</ele>
        <time>2013-07-14T14:04:09Z</time>
      </trkpt>
      <trkpt lat="46.55923" lon="6.25861">
        <ele>1456.53</ele>
        <time>2013-07-14T14:04:25Z</time>
      </trkpt>
      <trkpt lat="46.55909" lon="6.25848">
        <ele>1457.98</ele>
        <time>2013-07-14T14:04:42Z</time>
      </trkpt>
      <trkpt lat="46.55902" lon="6.25843">
        <ele>1461.82</ele>
        <time>2013-07-14T14:04:55Z</time>
      </trkpt>
      <trkpt lat="46.55896" lon="6.25836">
        <ele>1463.26</ele>
        <time>2013-07-14T14:05:12Z</time>
      </trkpt>
      <trkpt lat="46.55882" lon="6.25826">
        <ele>1464.71</ele>
        <time>2013-07-14T14:05:28Z</time>
      </trkpt>
      <trkpt lat="46.55873" lon="6.2582">
        <ele>1467.11</ele>
        <time>2013-07-14T14:05:43Z</time>
      </trkpt>
      <trkpt lat="46.55868" lon="6.25817">
        <ele>1468.55</ele>
        <time>2013-07-14T14:05:54Z</time>
      </trkpt>
      <trkpt lat="46.55866" lon="6.25811">
        <ele>1470.47</ele>
        <time>2013-07-14T14:06:09Z</time>
      </trkpt>
      <trkpt lat="46.55859" lon="6.25803">
        <ele>1471.92</ele>
        <time>2013-07-14T14:06:20Z</time>
      </trkpt>
      <trkpt lat="46.55853" lon="6.25794">
        <ele>1472.88</ele>
        <time>2013-07-14T14:06:29Z</time>
      </trkpt>
      <trkpt lat="46.55846" lon="6.25786">
        <ele>1473.84</ele>
        <time>2013-07-14T14:06:42Z</time>
      </trkpt>
      <trkpt lat="46.55845" lon="6.25783">
        <ele>1475.76</ele>
        <time>2013-07-14T14:06:44Z</time>
      </trkpt>
      <trkpt lat="46.55845" lon="6.25781">
        <ele>1474.8</ele>
        <time>2013-07-14T14:06:45Z</time>
      </trkpt>
      <trkpt lat="46.55821" lon="6.25759">
        <ele>1476.24</ele>
        <time>2013-07-14T14:06:58Z</time>
      </trkpt>
      <trkpt lat="46.55818" lon="6.25751">
        <ele>1477.2</ele>
        <time>2013-07-14T14:07:04Z</time>
      </trkpt>
      <trkpt lat="46.55807" lon="6.25734">
        <ele>1478.65</ele>
        <time>2013-07-14T14:07:23Z</time>
      </trkpt>
      <trkpt lat="46.55794" lon="6.25724">
        <ele>1477.68</ele>
        <time>2013-07-14T14:07:37Z</time>
      </trkpt>
      <trkpt lat="46.55785" lon="6.25719">
        <ele>1479.13</ele>
        <time>2013-07-14T14:07:51Z</time>
      </trkpt>
      <trkpt lat="46.55782" lon="6.25714">
        <ele>1479.13</ele>
        <time>2013-07-14T14:08:07Z</time>
      </trkpt>
      <trkpt lat="46.55779" lon="6.25713">
        <ele>1479.13</ele>
        <time>2013-07-14T14:08:35Z</time>
      </trkpt>
      <trkpt lat="46.5577" lon="6.25707">
        <ele>1478.16</ele>
        <time>2013-07-14T14:08:47Z</time>
      </trkpt>
      <trkpt lat="46.55761" lon="6.25696">
        <ele>1471.44</ele>
        <time>2013-07-14T14:08:59Z</time>
      </trkpt>
      <trkpt lat="46.55761" lon="6.25695">
        <ele>1476.24</ele>
        <time>2013-07-14T14:09:00Z</time>
      </trkpt>
      <trkpt lat="46.55755" lon="6.25686">
        <ele>1469.51</ele>
        <time>2013-07-14T14:09:06Z</time>
      </trkpt>
      <trkpt lat="46.55754" lon="6.25685">
        <ele>1476.72</ele>
        <time>2013-07-14T14:09:07Z</time>
      </trkpt>
      <trkpt lat="46.55752" lon="6.25681">
        <ele>1474.8</ele>
        <time>2013-07-14T14:09:11Z</time>
      </trkpt>
      <trkpt lat="46.55752" lon="6.25675">
        <ele>1471.92</ele>
        <time>2013-07-14T14:09:22Z</time>
      </trkpt>
      <trkpt lat="46.55747" lon="6.25662">
        <ele>1470.95</ele>
        <time>2013-07-14T14:09:36Z</time>
      </trkpt>
      <trkpt lat="46.55745" lon="6.25657">
        <ele>1469.03</ele>
        <time>2013-07-14T14:09:48Z</time>
      </trkpt>
      <trkpt lat="46.55745" lon="6.25652">
        <ele>1467.59</ele>
        <time>2013-07-14T14:10:07Z</time>
      </trkpt>
      <trkpt lat="46.55741" lon="6.25629">
        <ele>1464.71</ele>
        <time>2013-07-14T14:10:22Z</time>
      </trkpt>
      <trkpt lat="46.55735" lon="6.25619">
        <ele>1463.26</ele>
        <time>2013-07-14T14:10:32Z</time>
      </trkpt>
      <trkpt lat="46.55733" lon="6.25611">
        <ele>1462.78</ele>
        <time>2013-07-14T14:10:39Z</time>
      </trkpt>
      <trkpt lat="46.55727" lon="6.25602">
        <ele>1461.82</ele>
        <time>2013-07-14T14:10:44Z</time>
      </trkpt>
      <trkpt lat="46.55715" lon="6.25584">
        <ele>1460.38</ele>
        <time>2013-07-14T14:10:56Z</time>
      </trkpt>
      <trkpt lat="46.55713" lon="6.25583">
        <ele>1460.38</ele>
        <time>2013-07-14T14:10:58Z</time>
      </trkpt>
      <trkpt lat="46.55696" lon="6.25574">
        <ele>1459.9</ele>
        <time>2013-07-14T14:11:10Z</time>
      </trkpt>
      <trkpt lat="46.55682" lon="6.25564">
        <ele>1459.9</ele>
        <time>2013-07-14T14:11:22Z</time>
      </trkpt>
      <trkpt lat="46.5568" lon="6.2556">
        <ele>1459.42</ele>
        <time>2013-07-14T14:11:24Z</time>
      </trkpt>
      <trkpt lat="46.55663" lon="6.25543">
        <ele>1458.46</ele>
        <time>2013-07-14T14:11:38Z</time>
      </trkpt>
      <trkpt lat="46.55649" lon="6.25538">
        <ele>1461.34</ele>
        <time>2013-07-14T14:11:48Z</time>
      </trkpt>
      <trkpt lat="46.55639" lon="6.25522">
        <ele>1459.9</ele>
        <time>2013-07-14T14:12:05Z</time>
      </trkpt>
      <trkpt lat="46.55634" lon="6.25516">
        <ele>1459.42</ele>
        <time>2013-07-14T14:12:21Z</time>
      </trkpt>
      <trkpt lat="46.55627" lon="6.25508">
        <ele>1459.9</ele>
        <time>2013-07-14T14:12:35Z</time>
      </trkpt>
      <trkpt lat="46.55622" lon="6.25504">
        <ele>1459.9</ele>
        <time>2013-07-14T14:12:45Z</time>
      </trkpt>
      <trkpt lat="46.55611" lon="6.2549">
        <ele>1459.42</ele>
        <time>2013-07-14T14:12:58Z</time>
      </trkpt>
      <trkpt lat="46.55601" lon="6.25473">
        <ele>1458.94</ele>
        <time>2013-07-14T14:13:12Z</time>
      </trkpt>
      <trkpt lat="46.55596" lon="6.25463">
        <ele>1457.98</ele>
        <time>2013-07-14T14:13:22Z</time>
      </trkpt>
      <trkpt lat="46.55584" lon="6.2545">
        <ele>1457.5</ele>
        <time>2013-07-14T14:13:36Z</time>
      </trkpt>
      <trkpt lat="46.55577" lon="6.25444">
        <ele>1453.17</ele>
        <time>2013-07-14T14:13:42Z</time>
      </trkpt>
      <trkpt lat="46.55577" lon="6.25443">
        <ele>1458.94</ele>
        <time>2013-07-14T14:13:43Z</time>
      </trkpt>
      <trkpt lat="46.55574" lon="6.25439">
        <ele>1456.05</ele>
        <time>2013-07-14T14:13:48Z</time>
      </trkpt>
      <trkpt lat="46.55563" lon="6.25422">
        <ele>1454.13</ele>
        <time>2013-07-14T14:14:02Z</time>
      </trkpt>
      <trkpt lat="46.55559" lon="6.25417">
        <ele>1453.17</ele>
        <time>2013-07-14T14:14:18Z</time>
      </trkpt>
      <trkpt lat="46.55551" lon="6.25401">
        <ele>1452.21</ele>
        <time>2013-07-14T14:14:33Z</time>
      </trkpt>
      <trkpt lat="46.55547" lon="6.25396">
        <ele>1452.21</ele>
        <time>2013-07-14T14:14:38Z</time>
      </trkpt>
      <trkpt lat="46.55528" lon="6.25371">
        <ele>1449.32</ele>
        <time>2013-07-14T14:14:54Z</time>
      </trkpt>
      <trkpt lat="46.55514" lon="6.25356">
        <ele>1447.88</ele>
        <time>2013-07-14T14:15:12Z</time>
      </trkpt>
      <trkpt lat="46.55502" lon="6.25341">
        <ele>1446.92</ele>
        <time>2013-07-14T14:15:29Z</time>
      </trkpt>
      <trkpt lat="46.55492" lon="6.25323">
        <ele>1445.96</ele>
        <time>2013-07-14T14:15:45Z</time>
      </trkpt>
      <trkpt lat="46.5548" lon="6.25301">
        <ele>1445</ele>
        <time>2013-07-14T14:16:01Z</time>
      </trkpt>
      <trkpt lat="46.55459" lon="6.25283">
        <ele>1445.96</ele>
        <time>2013-07-14T14:16:19Z</time>
      </trkpt>
      <trkpt lat="46.55451" lon="6.25277">
        <ele>1442.6</ele>
        <time>2013-07-14T14:16:26Z</time>
      </trkpt>
      <trkpt lat="46.55449" lon="6.25277">
        <ele>1447.88</ele>
        <time>2013-07-14T14:16:27Z</time>
      </trkpt>
      <trkpt lat="46.55438" lon="6.25276">
        <ele>1445.48</ele>
        <time>2013-07-14T14:16:42Z</time>
      </trkpt>
      <trkpt lat="46.55429" lon="6.25266">
        <ele>1446.92</ele>
        <time>2013-07-14T14:16:54Z</time>
      </trkpt>
      <trkpt lat="46.55421" lon="6.25245">
        <ele>1449.81</ele>
        <time>2013-07-14T14:17:07Z</time>
      </trkpt>
      <trkpt lat="46.55413" lon="6.2523">
        <ele>1453.17</ele>
        <time>2013-07-14T14:17:21Z</time>
      </trkpt>
      <trkpt lat="46.55412" lon="6.25229">
        <ele>1446.92</ele>
        <time>2013-07-14T14:17:22Z</time>
      </trkpt>
      <trkpt lat="46.5541" lon="6.25228">
        <ele>1455.57</ele>
        <time>2013-07-14T14:17:23Z</time>
      </trkpt>
      <trkpt lat="46.55409" lon="6.25226">
        <ele>1451.25</ele>
        <time>2013-07-14T14:17:24Z</time>
      </trkpt>
      <trkpt lat="46.55404" lon="6.2522">
        <ele>1447.88</ele>
        <time>2013-07-14T14:17:31Z</time>
      </trkpt>
      <trkpt lat="46.55403" lon="6.2522">
        <ele>1454.13</ele>
        <time>2013-07-14T14:17:32Z</time>
      </trkpt>
      <trkpt lat="46.55403" lon="6.25219">
        <ele>1453.17</ele>
        <time>2013-07-14T14:17:33Z</time>
      </trkpt>
      <trkpt lat="46.55401" lon="6.25218">
        <ele>1452.69</ele>
        <time>2013-07-14T14:17:35Z</time>
      </trkpt>
      <trkpt lat="46.554" lon="6.25217">
        <ele>1448.36</ele>
        <time>2013-07-14T14:17:36Z</time>
      </trkpt>
      <trkpt lat="46.55399" lon="6.25217">
        <ele>1455.57</ele>
        <time>2013-07-14T14:17:37Z</time>
      </trkpt>
      <trkpt lat="46.55398" lon="6.25216">
        <ele>1452.69</ele>
        <time>2013-07-14T14:17:38Z</time>
      </trkpt>
      <trkpt lat="46.55392" lon="6.25207">
        <ele>1454.13</ele>
        <time>2013-07-14T14:17:48Z</time>
      </trkpt>
      <trkpt lat="46.55382" lon="6.25191">
        <ele>1454.13</ele>
        <time>2013-07-14T14:17:59Z</time>
      </trkpt>
      <trkpt lat="46.55361" lon="6.25175">
        <ele>1454.61</ele>
        <time>2013-07-14T14:18:20Z</time>
      </trkpt>
      <trkpt lat="46.5535" lon="6.2517">
        <ele>1451.25</ele>
        <time>2013-07-14T14:18:32Z</time>
      </trkpt>
      <trkpt lat="46.55349" lon="6.25169">
        <ele>1457.5</ele>
        <time>2013-07-14T14:18:33Z</time>
      </trkpt>
      <trkpt lat="46.55348" lon="6.25169">
        <ele>1454.13</ele>
        <time>2013-07-14T14:18:34Z</time>
      </trkpt>
      <trkpt lat="46.55346" lon="6.25161">
        <ele>1453.65</ele>
        <time>2013-07-14T14:18:47Z</time>
      </trkpt>
      <trkpt lat="46.5534" lon="6.25144">
        <ele>1452.21</ele>
        <time>2013-07-14T14:19:01Z</time>
      </trkpt>
      <trkpt lat="46.55322" lon="6.2512">
        <ele>1450.29</ele>
        <time>2013-07-14T14:19:17Z</time>
      </trkpt>
      <trkpt lat="46.55307" lon="6.25098">
        <ele>1449.32</ele>
        <time>2013-07-14T14:19:34Z</time>
      </trkpt>
      <trkpt lat="46.55298" lon="6.25085">
        <ele>1448.36</ele>
        <time>2013-07-14T14:19:47Z</time>
      </trkpt>
      <trkpt lat="46.5529" lon="6.25064">
        <ele>1447.88</ele>
        <time>2013-07-14T14:20:01Z</time>
      </trkpt>
      <trkpt lat="46.55284" lon="6.25056">
        <ele>1446.44</ele>
        <time>2013-07-14T14:20:13Z</time>
      </trkpt>
      <trkpt lat="46.55273" lon="6.25043">
        <ele>1445.96</ele>
        <time>2013-07-14T14:20:28Z</time>
      </trkpt>
      <trkpt lat="46.55268" lon="6.25035">
        <ele>1445.48</ele>
        <time>2013-07-14T14:20:33Z</time>
      </trkpt>
      <trkpt lat="46.55248" lon="6.25018">
        <ele>1445</ele>
        <time>2013-07-14T14:20:48Z</time>
      </trkpt>
      <trkpt lat="46.55243" lon="6.25017">
        <ele>1445.48</ele>
        <time>2013-07-14T14:21:02Z</time>
      </trkpt>
      <trkpt lat="46.55242" lon="6.25022">
        <ele>1445.96</ele>
        <time>2013-07-14T14:21:17Z</time>
      </trkpt>
      <trkpt lat="46.55242" lon="6.25028">
        <ele>1445.48</ele>
        <time>2013-07-14T14:21:52Z</time>
      </trkpt>
    </trkseg>
  </trk>
</gpx>